[[{"header":{"parameterUnit":"m.s-1","parameterCategory":1,"la1":30.6,"la2":28.766,"lo1":-90.7593,"lo2":-88.6598,"dy":0.0162,"dx":0.0183,"nx":116,"ny":114,"refTime":"2024-07-03T00:00:00:Z","depth":0,"parameterNumber":2,"parameterNumberName":"U-component_of_WINDS"},"data":[0.0,0.0,0.0,0.0,0.0,0.0,0.0,0.0,0.0,0.0,0.0,0.0,0.0,0.0,0.0,0.0,0.0,0.0,0.0,0.0,0.0,0.0,0.0,0.0,0.0,0.0,0.0,0.0,0.0,0.0,0.0,0.0,0.0,0.0,0.0,0.0,0.0,0.0,0.0,0.0,0.0,0.0,0.0,0.0,0.0,0.0,0.0,0.0,0.0,0.0,0.0,0.0,0.0,0.0,0.0,0.0,0.0,0.0,0.0,0.0,0.0,0.0,0.0,0.0,0.0,0.0,0.0,0.0,0.0,0.0,0.0,0.0,0.0,0.0,0.0,0.0,0.0,0.0,0.0,0.0,0.0,0.0,0.0,0.0,0.0,0.0,0.0,0.0,0.0,0.0,0.0,0.0,0.0,0.0,0.0,0.0,0.0,0.0,0.0,0.0,0.0,0.0,0.0,0.0,0.0,0.0,0.0,0.0,0.0,0.0,0.0,0.0,0.0,0.0,0.0,0.0,0.0,0.0,0.0,0.0,0.0,0.0,0.0,0.0,0.0,0.0,0.0,0.0,0.0,0.0,0.0,0.0,0.0,0.0,0.0,0.0,0.0,0.0,0.0,0.0,0.0,0.0,0.0,0.0,0.0,0.0,0.0,0.0,0.0,0.0,0.0,0.0,0.0,0.0,0.0,0.0,0.0,0.0,0.0,0.0,0.0,0.0,0.0,0.0,0.0,0.0,0.0,0.0,0.0,0.0,0.0,0.0,0.0,0.0,0.0,0.0,0.0,0.0,0.0,0.0,0.0,0.0,0.0,0.0,0.0,0.0,0.0,0.0,0.0,0.0,0.0,0.0,0.0,0.0,0.0,0.0,0.0,0.0,0.0,0.0,0.0,0.0,0.0,0.0,0.0,0.0,0.0,0.0,0.0,0.0,0.0,0.0,0.0,0.0,0.0,0.0,0.0,0.0,0.0,0.0,0.0,0.0,0.0,0.0,0.0,0.0,0.0,0.0,0.0,0.0,0.0,0.0,0.0,0.0,0.0,0.0,0.0,0.0,0.0,0.0,0.0,0.0,0.0,0.0,0.0,0.0,0.0,0.0,0.0,0.0,0.0,0.0,0.0,0.0,0.0,0.0,0.0,0.0,0.0,0.0,0.0,0.0,0.0,0.0,0.0,0.0,0.0,0.0,0.0,0.0,0.0,0.0,0.0,0.0,0.0,0.0,0.0,0.0,0.0,0.0,0.0,0.0,0.0,0.0,0.0,0.0,0.0,0.0,0.0,0.0,0.0,0.0,0.0,0.0,0.0,0.0,0.0,0.0,0.0,0.0,0.0,0.0,0.0,0.0,0.0,0.0,0.0,0.0,0.0,0.0,0.0,0.0,0.0,0.0,0.0,0.0,0.0,0.0,0.0,0.0,0.0,0.0,0.0,0.0,0.0,0.0,0.0,0.0,0.0,0.0,0.0,0.0,0.0,0.0,0.0,0.0,0.0,0.0,0.0,0.0,0.0,0.0,0.0,0.0,0.0,0.0,0.0,0.0,0.0,0.0,0.0,0.0,0.0,0.0,0.0,0.0,0.0,0.0,0.0,0.0,0.0,0.0,0.0,0.0,0.0,0.0,0.0,0.0,0.0,0.0,0.0,0.0,0.0,0.0,0.0,0.0,0.0,0.0,0.0,0.0,0.0,0.0,0.0,0.0,0.0,0.0,0.0,0.0,0.0,0.0,0.0,0.0,0.0,0.0,0.0,0.0,0.0,0.0,0.0,0.0,0.0,0.0,0.0,0.0,0.0,0.0,0.0,0.0,0.0,0.0,0.0,0.0,0.0,0.0,0.0,0.0,0.0,0.0,0.0,0.0,0.0,0.0,0.0,0.0,0.0,0.0,0.0,0.0,0.0,0.0,0.0,0.0,0.0,0.0,0.0,0.0,0.0,0.0,0.0,0.0,0.0,0.0,0.0,0.0,0.0,0.0,0.0,0.0,0.0,0.0,0.0,0.0,0.0,0.0,0.0,0.0,0.0,0.0,0.0,0.0,0.0,0.0,0.0,0.0,0.0,0.0,0.0,0.0,0.0,0.0,0.0,0.0,0.0,0.0,0.0,0.0,0.0,0.0,0.0,0.0,0.0,0.0,0.0,0.0,0.0,0.0,0.0,0.0,0.0,0.0,0.0,0.0,0.0,0.0,0.0,0.0,0.0,0.0,0.0,0.0,0.0,0.0,0.0,0.0,0.0,0.0,0.0,0.0,0.0,0.0,0.0,0.0,0.0,0.0,0.0,0.0,0.0,0.0,0.0,0.0,0.0,0.0,0.0,0.0,0.0,0.0,0.0,0.0,0.0,0.0,0.0,0.0,0.0,0.0,0.0,0.0,0.0,0.0,0.0,0.0,0.0,0.0,0.0,0.0,0.0,0.0,0.0,0.0,0.0,0.0,0.0,0.0,0.0,0.0,0.0,0.0,0.0,0.0,0.0,0.0,0.0,0.0,0.0,0.0,0.0,0.0,0.0,0.0,0.0,0.0,0.0,0.0,0.0,0.0,0.0,0.0,0.0,0.0,0.0,0.0,0.0,0.0,0.0,0.0,0.0,0.0,0.0,0.0,0.0,0.0,0.0,0.0,0.0,0.0,0.0,0.0,0.0,0.0,0.0,0.0,0.0,0.0,0.0,0.0,0.0,0.0,0.0,0.0,0.0,0.0,0.0,0.0,0.0,0.0,0.0,0.0,0.0,0.0,0.0,0.0,0.0,0.0,0.0,0.0,0.0,0.0,0.0,0.0,0.0,0.0,0.0,0.0,0.0,0.0,0.0,0.0,0.0,0.0,0.0,0.0,0.0,0.0,0.0,0.0,0.0,0.0,0.0,0.0,0.0,0.0,0.0,0.0,0.0,0.0,0.0,0.0,0.0,0.0,0.0,0.0,0.0,0.0,0.0,0.0,0.0,0.0,0.0,0.0,0.0,0.0,0.0,0.0,0.0,0.0,0.0,0.0,0.0,0.0,0.0,0.0,0.0,0.0,0.0,0.0,0.0,0.0,0.0,0.0,0.0,0.0,0.0,0.0,0.0,0.0,0.0,0.0,0.0,0.0,0.0,0.0,0.0,0.0,0.0,0.0,0.0,0.0,0.0,0.0,0.0,0.0,0.0,0.0,0.0,0.0,0.0,0.0,0.0,0.0,0.0,0.0,0.0,0.0,0.0,0.0,0.0,0.0,0.0,0.0,0.0,0.0,0.0,0.0,0.0,0.0,0.0,0.0,0.0,0.0,0.0,0.0,0.0,0.0,0.0,0.0,0.0,0.0,0.0,0.0,0.0,0.0,0.0,0.0,0.0,0.0,0.0,0.0,0.0,0.0,0.0,0.0,0.0,0.0,0.0,0.0,0.0,0.0,0.0,0.0,0.0,0.0,0.0,0.0,0.0,0.0,0.0,0.0,0.0,0.0,0.0,0.0,0.0,0.0,0.0,0.0,0.0,0.0,0.0,0.0,0.0,0.0,0.0,0.0,0.0,0.0,0.0,0.0,0.0,0.0,0.0,0.0,0.0,0.0,0.0,0.0,0.0,0.0,0.0,0.0,0.0,0.0,0.0,0.0,0.0,0.0,0.0,0.0,0.0,0.0,0.0,0.0,0.0,0.0,0.0,0.0,0.0,0.0,0.0,0.0,0.0,0.0,0.0,0.0,0.0,0.0,0.0,0.0,0.0,0.0,0.0,0.0,0.0,0.0,0.0,0.0,0.0,0.0,0.0,0.0,0.0,0.0,0.0,0.0,0.0,0.0,0.0,0.0,0.0,0.0,0.0,0.0,0.0,0.0,0.0,0.0,0.0,0.0,0.0,0.0,0.0,0.0,0.0,0.0,0.0,0.0,0.0,0.0,0.0,0.0,0.0,0.0,0.0,0.0,0.0,0.0,0.0,0.0,0.0,0.0,0.0,0.0,0.0,0.0,0.0,0.0,0.0,0.0,0.0,0.0,0.0,0.0,0.0,0.0,0.0,0.0,0.0,0.0,0.0,0.0,0.0,0.0,0.0,0.0,0.0,0.0,0.0,0.0,0.0,0.0,0.0,0.0,0.0,0.0,0.0,0.0,0.0,0.0,0.0,0.0,0.0,0.0,0.0,0.0,0.0,0.0,0.0,0.0,0.0,0.0,0.0,0.0,0.0,0.0,0.0,0.0,0.0,0.0,0.0,0.0,0.0,0.0,0.0,0.0,0.0,0.0,0.0,0.0,0.0,0.0,0.0,0.0,0.0,0.0,0.0,0.0,0.0,0.0,0.0,0.0,0.0,0.0,0.0,0.0,0.0,0.0,0.0,0.0,0.0,0.0,0.0,0.0,0.0,0.0,0.0,0.0,0.0,0.0,0.0,0.0,0.0,0.0,0.0,0.0,0.0,0.0,0.0,0.0,0.0,0.0,0.0,0.0,0.0,0.0,0.0,0.0,0.0,0.0,0.0,0.0,0.0,0.0,0.0,0.0,0.0,0.0,0.0,0.0,0.0,0.0,0.0,0.0,0.0,0.0,0.0,0.0,0.0,0.0,0.0,0.0,0.0,0.0,0.0,0.0,0.0,0.0,0.0,0.0,0.0,0.0,0.0,0.0,0.0,0.0,0.0,0.0,0.0,0.0,0.0,0.0,0.0,0.0,0.0,0.0,0.0,0.0,0.0,0.0,0.0,0.0,0.0,0.0,0.0,0.0,0.0,0.0,0.0,0.0,0.0,0.0,0.0,0.0,0.0,0.0,0.0,0.0,0.0,0.0,0.0,0.0,0.0,0.0,0.0,0.0,0.0,0.0,0.0,0.0,0.0,0.0,0.0,0.0,0.0,0.0,0.0,0.0,0.0,0.0,0.0,0.0,0.0,0.0,0.0,0.0,0.0,0.0,0.0,0.0,0.0,0.0,0.0,0.0,0.0,0.0,0.0,0.0,0.0,0.0,0.0,0.0,0.0,0.0,0.0,0.0,0.0,0.0,0.0,0.0,0.0,0.0,0.0,0.0,0.0,0.0,0.0,0.0,0.0,0.0,0.0,0.0,0.0,0.0,0.0,0.0,0.0,0.0,0.0,0.0,0.0,0.0,0.0,0.0,0.0,0.0,0.0,0.0,0.0,0.0,0.0,0.0,0.0,0.0,0.0,0.0,0.0,0.0,0.0,0.0,0.0,0.0,0.0,0.0,0.0,0.0,0.0,0.0,0.0,0.0,0.0,0.0,0.0,0.0,0.0,0.0,0.0,0.0,0.0,0.0,0.0,0.0,0.0,0.0,0.0,0.0,0.0,0.0,0.0,0.0,0.0,0.0,0.0,0.0,0.0,0.0,0.0,0.0,0.0,0.0,0.0,0.0,0.0,0.0,0.0,0.0,0.0,0.0,0.0,0.0,0.0,0.0,0.0,0.0,0.0,0.0,0.0,0.0,0.0,0.0,0.0,0.0,0.0,0.0,0.0,0.0,0.0,0.0,0.0,0.0,0.0,0.0,0.0,0.0,0.0,0.0,0.0,0.0,0.0,0.0,0.0,0.0,0.0,0.0,0.0,0.0,0.0,0.0,0.0,0.0,0.0,0.0,0.0,0.0,0.0,0.0,0.0,0.0,0.0,0.0,0.0,0.0,0.0,0.0,0.0,0.0,0.0,0.0,0.0,0.0,0.0,0.0,0.0,0.0,0.0,0.0,0.0,0.0,0.0,0.0,0.0,0.0,0.0,0.0,0.0,0.0,0.0,0.0,0.0,0.0,0.0,0.0,0.0,0.0,0.0,0.0,0.0,0.0,0.0,0.0,0.0,0.0,0.0,0.0,0.0,0.0,0.0,0.0,0.0,0.0,0.0,0.0,0.0,0.0,0.0,0.0,0.0,0.0,0.0,0.0,0.0,0.0,0.0,0.0,0.0,0.0,0.0,0.0,0.0,0.0,0.0,0.0,0.0,0.0,0.0,0.0,0.0,0.0,0.0,0.0,0.0,0.0,0.0,0.0,0.0,0.0,0.0,0.0,0.0,0.0,0.0,0.0,0.0,0.0,0.0,0.0,0.0,0.0,0.0,0.0,0.0,0.0,0.0,0.0,0.0,0.0,0.0,0.0,0.0,0.0,0.0,0.0,0.0,0.0,-2.4711,0.0,0.0,0.0,0.0,0.0,0.0,0.0,0.0,0.0,0.0,0.0,0.0,0.0,0.0,0.0,0.0,0.0,0.0,0.0,0.0,0.0,0.0,0.0,0.0,-1.9764,-1.9498,-1.9138,-1.7628,-1.6765,-1.6907,0.0,0.0,0.0,0.0,0.0,-2.357,-2.4555,-2.5386,-2.6071,-2.6597,-2.6947,-2.7155,-2.6162,-2.4102,-2.1372,0.0,0.0,0.0,0.0,0.0,0.0,0.0,0.0,0.0,0.0,0.0,0.0,0.0,0.0,0.0,0.0,0.0,0.0,0.0,0.0,0.0,0.0,0.0,0.0,0.0,0.0,0.0,0.0,0.0,0.0,0.0,0.0,0.0,0.0,0.0,0.0,0.0,0.0,0.0,0.0,0.0,0.0,0.0,0.0,0.0,0.0,0.0,0.0,0.0,0.0,0.0,0.0,0.0,0.0,0.0,0.0,0.0,0.0,0.0,0.0,0.0,0.0,0.0,0.0,0.0,0.0,0.0,0.0,0.0,0.0,0.0,-2.6108,0.0,0.0,0.0,0.0,0.0,0.0,0.0,0.0,0.0,0.0,0.0,0.0,0.0,0.0,0.0,0.0,0.0,0.0,0.0,0.0,0.0,-2.0738,-2.1788,-2.2546,-2.2927,-2.2798,-2.1617,-2.045,-1.9383,0.0,0.0,0.0,0.0,-2.3849,-2.4719,-2.6265,-2.7689,-2.8898,-3.0269,-3.1341,-3.211,-3.3472,-3.1967,-2.8135,-2.8054,0.0,0.0,0.0,0.0,0.0,0.0,0.0,0.0,0.0,0.0,0.0,0.0,0.0,0.0,0.0,0.0,0.0,0.0,0.0,0.0,0.0,0.0,0.0,0.0,0.0,0.0,0.0,0.0,0.0,0.0,0.0,0.0,0.0,0.0,0.0,0.0,0.0,0.0,0.0,0.0,0.0,0.0,0.0,0.0,0.0,0.0,0.0,0.0,0.0,0.0,0.0,0.0,0.0,0.0,0.0,0.0,0.0,0.0,0.0,0.0,0.0,0.0,0.0,0.0,0.0,-2.5659,-2.802,-2.8671,-2.7926,-2.7827,-2.7478,-2.679,0.0,0.0,0.0,0.0,0.0,0.0,0.0,0.0,0.0,0.0,0.0,0.0,0.0,0.0,0.0,0.0,0.0,0.0,0.0,0.0,-2.1994,-2.3734,-2.4277,-2.4813,-2.5505,-2.3827,-2.2955,-2.3392,-2.1856,0.0,0.0,-2.3727,-2.4766,-2.6444,-2.7057,-2.8494,-3.0813,-3.3684,-3.5827,-3.7177,-3.8577,-3.9175,-3.8858,-3.5311,-3.3609,-3.3416,0.0,0.0,0.0,0.0,0.0,0.0,0.0,0.0,0.0,0.0,0.0,0.0,0.0,0.0,0.0,0.0,0.0,0.0,0.0,0.0,0.0,0.0,0.0,0.0,0.0,0.0,0.0,0.0,0.0,0.0,0.0,0.0,0.0,0.0,0.0,0.0,0.0,0.0,0.0,0.0,0.0,-3.3235,-3.3965,0.0,0.0,0.0,0.0,0.0,0.0,0.0,0.0,0.0,0.0,0.0,0.0,0.0,0.0,-2.6775,-2.6567,-2.5859,-2.4679,-2.4893,-2.5054,-2.5101,-2.5602,-2.5321,-2.4596,-2.7043,0.0,-2.5943,-2.4409,0.0,0.0,0.0,0.0,0.0,0.0,0.0,0.0,0.0,0.0,0.0,0.0,0.0,0.0,0.0,0.0,0.0,0.0,0.0,0.0,0.0,-2.529,-2.6179,-2.7132,-2.6405,-2.5628,-2.4916,0.0,0.0,-2.3973,-2.4898,-2.5812,-2.6737,-2.8555,-3.123,-3.4751,-3.7401,-3.9508,-4.0971,-4.2296,-4.3486,-4.4487,-4.2354,-4.0137,-3.7917,-3.604,0.0,0.0,0.0,0.0,0.0,0.0,0.0,0.0,0.0,0.0,0.0,0.0,0.0,0.0,0.0,0.0,0.0,0.0,0.0,0.0,0.0,0.0,0.0,0.0,0.0,0.0,0.0,0.0,0.0,0.0,0.0,0.0,0.0,0.0,0.0,0.0,0.0,0.0,0.0,-3.4547,-3.7037,-3.7742,-3.7661,-3.714,0.0,0.0,0.0,0.0,0.0,0.0,0.0,0.0,0.0,-2.8867,-2.8796,-2.8505,-2.7932,-2.7694,-2.6978,-2.5674,-2.6244,-2.6637,-2.6793,-2.6658,-2.6255,-2.5662,-2.6732,-2.6606,-2.5572,-2.4351,-2.3169,-2.2113,0.0,0.0,0.0,0.0,0.0,0.0,0.0,0.0,0.0,0.0,0.0,0.0,0.0,0.0,0.0,0.0,0.0,0.0,-2.4872,-2.6133,-2.7315,-2.8407,-2.8237,0.0,0.0,0.0,-2.5278,-2.4765,-2.5841,-2.6751,-2.7346,-3.0821,-3.4413,-3.8096,-4.0649,-4.2552,-4.3902,-4.5422,-4.667,-4.7751,-4.7537,-4.5452,-4.2004,-3.9437,-3.6423,0.0,0.0,0.0,0.0,0.0,0.0,0.0,0.0,0.0,0.0,0.0,0.0,0.0,0.0,0.0,0.0,0.0,0.0,0.0,0.0,0.0,0.0,0.0,0.0,0.0,0.0,0.0,0.0,0.0,0.0,0.0,0.0,0.0,0.0,0.0,0.0,0.0,0.0,-3.8421,-4.0373,-4.1121,-4.0731,-4.0119,0.0,0.0,0.0,0.0,0.0,0.0,-3.0533,-3.0222,-2.9921,-2.951,-2.975,-2.9572,-2.8874,-2.8514,-2.769,-2.6383,-2.6891,-2.7369,-2.7806,-2.7552,-2.7258,-2.6908,-2.6504,-2.6034,-2.5441,-2.4247,-2.3084,-2.2044,-2.1738,-2.165,0.0,-2.2971,-2.2992,-2.2702,0.0,0.0,0.0,0.0,0.0,0.0,0.0,0.0,0.0,0.0,0.0,-2.4837,-2.6081,0.0,-2.8178,0.0,0.0,0.0,0.0,0.0,-2.5792,-2.6183,-2.6487,-2.7483,-2.9123,-3.4184,-3.7762,-3.9805,-4.2954,-4.4933,-4.5786,-4.8066,-4.9017,-4.892,-4.9476,-4.8252,-4.5624,-4.2551,-3.8924,-3.4769,0.0,0.0,0.0,0.0,0.0,0.0,0.0,0.0,0.0,0.0,0.0,0.0,0.0,0.0,0.0,0.0,0.0,0.0,0.0,0.0,0.0,0.0,0.0,0.0,0.0,0.0,0.0,0.0,0.0,0.0,0.0,0.0,0.0,0.0,0.0,0.0,0.0,0.0,0.0,-4.3729,-4.4041,0.0,0.0,0.0,0.0,-3.6949,-3.5566,-3.4035,-3.2457,-3.2114,-3.1549,-3.0658,-3.0342,-2.9845,-2.9108,-2.8434,-2.7405,-2.6023,-2.6243,-2.6505,-2.6791,-2.6758,-2.6725,-2.6691,-2.6364,-2.599,-2.5501,-2.3951,-2.2919,-2.2225,-2.1435,-2.2366,-2.3891,-2.1741,-2.2062,-2.352,0.0,0.0,0.0,-1.8816,-1.9173,-1.9481,-1.9587,-2.0662,-2.1461,-2.1368,-2.3379,-2.5226,0.0,-2.7864,-2.9037,0.0,0.0,0.0,0.0,0.0,-2.6874,-2.7126,-2.7474,-2.9244,-3.258,-3.5684,-3.8681,-4.1493,-4.3933,-4.6024,-4.7882,-4.9117,-5.017,-5.1045,-5.0389,-4.924,-4.7595,-4.4114,-4.0234,-3.5974,-3.1124,-2.6425,0.0,0.0,0.0,0.0,0.0,0.0,0.0,0.0,0.0,0.0,0.0,0.0,0.0,0.0,0.0,0.0,0.0,0.0,0.0,0.0,0.0,0.0,0.0,0.0,0.0,0.0,0.0,0.0,0.0,0.0,0.0,0.0,0.0,0.0,0.0,0.0,0.0,-4.5631,-4.5879,0.0,0.0,-4.1783,-4.0141,-3.9483,-3.7161,-3.5429,-3.467,-3.3093,-3.1991,-3.1424,-3.0691,-3.0117,-2.9668,-2.8909,-2.8306,-2.7818,-2.7431,-2.7153,-2.6895,-2.6559,-2.6432,-2.6509,-2.558,-2.5317,-2.5567,-2.4875,-2.4531,-2.4408,-2.4094,-2.4302,-2.4641,-2.3806,-2.3748,-2.3994,-1.7402,-1.7911,0.0,-1.8554,-1.9196,-1.9687,-1.9801,-2.09,-2.169,-2.1605,-2.3826,-2.5804,0.0,0.0,0.0,0.0,0.0,0.0,0.0,0.0,-2.7834,-2.7964,-2.8929,-3.1199,-3.481,-3.6754,-3.9289,-4.2422,-4.4355,-4.6283,-4.8165,-4.9442,-5.0558,-5.1387,-5.078,-4.975,-4.829,-4.5158,-4.1292,-3.69,-3.211,-2.7491,-2.3017,0.0,0.0,0.0,0.0,0.0,0.0,0.0,0.0,0.0,0.0,0.0,0.0,0.0,0.0,0.0,0.0,0.0,0.0,0.0,0.0,0.0,0.0,0.0,0.0,0.0,0.0,0.0,0.0,0.0,0.0,0.0,0.0,0.0,0.0,0.0,-4.6269,-4.6894,-4.7005,-4.6683,-4.5689,-4.3373,-4.1731,-4.1174,-3.859,-3.6697,-3.5949,-3.3955,-3.2519,-3.1951,-3.0966,-3.0316,-3.006,-2.9189,-2.8747,-2.8731,-2.7962,-2.7517,-2.7331,-2.6623,-2.6215,-2.5925,-2.492,-2.4791,-2.524,-2.5217,-2.5333,-2.5486,-2.541,-2.5217,-2.5005,-2.5139,-2.4926,-2.4498,-1.6386,-1.6656,-1.6965,-1.769,-1.8499,-1.9252,-1.9915,-2.1123,-2.1939,-2.1844,-2.4403,-2.6595,0.0,0.0,0.0,0.0,0.0,0.0,0.0,-2.8688,-2.8621,-2.8757,-3.0891,-3.3186,-3.565,-3.7456,-3.9692,-4.2375,-4.4325,-4.5741,-4.6678,-4.9146,-5.0128,-4.9889,-5.0629,-4.9854,-4.7746,-4.5634,-4.2159,-3.762,-3.3022,-2.8542,-2.4224,0.0,0.0,0.0,0.0,0.0,0.0,0.0,0.0,0.0,0.0,0.0,0.0,0.0,0.0,0.0,0.0,0.0,0.0,0.0,0.0,0.0,0.0,0.0,0.0,0.0,0.0,0.0,0.0,0.0,0.0,0.0,0.0,0.0,-4.3585,-4.6304,-4.7863,-4.762,-4.7581,-4.7233,-4.6388,-4.4143,-4.2535,-4.2078,-3.9888,-3.7912,-3.6363,-3.4727,-3.3342,-3.2268,-3.1166,-3.0417,-3.0189,-2.9162,-2.8608,-2.8608,-2.7721,-2.7513,-2.8013,-2.7073,-2.6052,-2.5029,-2.4539,-2.4426,-2.4589,-2.4886,-2.5123,-2.5294,-2.51,-2.5005,-2.5045,-2.5448,-2.5333,-2.5061,-1.5579,-1.6733,-1.769,-1.785,-1.9064,-2.0036,-2.0127,-2.0828,-2.1518,-2.2021,-2.3693,0.0,0.0,0.0,0.0,0.0,0.0,0.0,-2.8705,-2.8767,-2.9452,-3.0749,-3.231,-3.4024,-3.5854,-3.7624,-3.9558,-4.1603,-4.4091,-4.58,-4.6802,-4.9292,-5.0062,-4.9433,-4.9975,-4.9135,-4.7248,-4.5199,-4.2632,-3.9671,-3.4875,-3.0514,-2.6567,0.0,0.0,0.0,0.0,0.0,0.0,0.0,0.0,0.0,0.0,0.0,0.0,0.0,0.0,0.0,0.0,0.0,0.0,0.0,0.0,0.0,0.0,0.0,0.0,0.0,0.0,0.0,0.0,0.0,0.0,0.0,0.0,-4.2314,-4.3589,-4.5408,-4.698,-4.7782,-4.7667,-4.7272,-4.6839,-4.4821,-4.334,-4.2906,-4.0198,-3.836,-3.7841,-3.5856,-3.4233,-3.3102,-3.211,-3.1141,-3.0205,-2.9664,-2.9303,-2.9109,-2.8738,-2.8632,-2.8772,-2.7838,-2.6993,-2.6309,-2.5164,-2.4564,-2.4385,-2.4726,-2.5021,-2.5294,-2.5256,-2.5294,-2.541,-2.541,-2.5201,-2.495,-1.5255,-1.6455,-1.7557,-1.786,-1.9009,-1.9988,-2.0211,-2.0794,-2.1476,-2.2152,-2.3521,0.0,0.0,0.0,0.0,0.0,0.0,-2.8887,-2.8016,-2.8945,-3.0214,-3.1735,-3.3137,-3.4449,-3.5693,-3.7335,-3.892,-4.0358,-4.2622,-4.411,-4.4849,-4.7718,-4.8687,-4.8072,-4.9071,-4.8624,-4.7003,-4.5234,-4.3148,-4.0671,-3.7212,-3.3171,-2.8921,-2.6035,-2.3912,-2.2423,-2.1743,-2.2321,-2.3458,-2.4004,0.0,0.0,0.0,0.0,0.0,0.0,0.0,0.0,0.0,0.0,0.0,0.0,0.0,0.0,0.0,0.0,0.0,0.0,0.0,0.0,0.0,0.0,0.0,0.0,-3.9844,-4.2566,-4.3379,-4.4901,-4.6305,-4.7078,-4.6673,-4.629,-4.6329,-4.4487,-4.3201,-4.3081,-4.0595,-3.9043,-3.8952,-3.6792,-3.5223,-3.4491,-3.3204,-3.2126,-3.1265,-3.0575,-3.0071,-2.9842,-2.9233,-2.8998,-2.9044,-2.7834,-2.7146,0.0,-2.5434,-2.4726,-2.467,-2.4806,-2.4886,0.0,0.0,0.0,0.0,0.0,-2.519,-2.5438,-1.5203,-1.6044,-1.6933,-1.776,-1.8611,-1.9429,-2.016,-2.0834,-2.1462,-2.2086,0.0,0.0,0.0,0.0,0.0,0.0,0.0,0.0,0.0,-2.9225,-3.0823,-3.2178,-3.3482,-3.4575,-3.5342,-3.6762,-3.7982,-3.8978,-4.063,-4.1578,-4.1899,-4.5134,-4.6411,-4.6015,-4.7752,-4.7819,-4.6552,-4.5314,-4.3416,-4.1009,-3.9353,-3.5758,-3.1067,-2.8203,-2.6238,-2.4969,-2.4659,-2.4953,-2.5651,-2.6741,0.0,0.0,0.0,0.0,0.0,0.0,0.0,0.0,0.0,0.0,0.0,0.0,0.0,0.0,0.0,0.0,0.0,0.0,0.0,0.0,0.0,0.0,0.0,0.0,-4.0344,-4.2053,-4.3019,-4.4522,-4.5613,-4.5961,-4.522,-4.4853,-4.5328,-4.366,-4.2619,-4.2911,-4.0944,-3.9698,-3.9698,0.0,0.0,0.0,0.0,-3.3192,-3.268,-3.1508,-3.0803,-3.0574,-2.9391,-2.892,-2.9028,-2.7449,-2.6882,-2.6977,-2.5475,-2.4926,-2.5068,-2.495,-2.4652,-2.4354,-2.5093,-2.4688,-2.3751,-2.4279,-2.5073,0.0,-1.4997,-1.6016,-1.6898,-1.7751,-1.8541,-1.9314,-2.0094,-2.0248,-2.0543,-2.1315,-2.1582,0.0,0.0,0.0,0.0,0.0,0.0,0.0,0.0,0.0,-3.0852,-3.2963,-3.3401,-3.4239,-3.558,-3.6504,-3.7405,-3.8281,-3.9799,-4.0613,-4.0856,-4.3366,-4.4038,-4.3136,-4.5279,-4.5511,-4.4226,-4.3803,-4.2833,-4.1405,-3.9534,-3.6265,-3.2438,-3.1211,-2.965,-2.7988,-2.7451,-2.7802,-2.8606,-2.887,-2.9879,-3.1003,-3.1199,0.0,0.0,0.0,0.0,0.0,0.0,0.0,0.0,0.0,0.0,0.0,0.0,0.0,0.0,0.0,0.0,0.0,0.0,0.0,0.0,-3.84,-4.0802,-4.269,-4.2782,-4.332,-4.4104,-4.513,-4.4781,-4.4732,-4.5345,-4.3623,-4.2688,-4.3097,-4.1009,-3.9698,-3.9698,-3.804,0.0,-3.6036,-3.482,-3.3711,-3.2696,-3.1597,-3.0895,-3.0589,0.0,0.0,-2.8919,-2.7627,-2.6997,-2.6875,-2.5541,-2.4926,-2.4815,-2.4458,-2.3994,-2.3619,-2.3835,-2.3844,-2.3802,-2.4034,-2.4216,-2.4365,-1.439,-1.5023,-1.5745,-1.6988,-1.7534,-1.8183,-1.9319,-1.9464,-1.9869,-2.1058,-2.114,0.0,0.0,0.0,0.0,0.0,0.0,0.0,0.0,-2.9152,-3.0204,-3.2144,-3.2704,-3.3494,-3.4744,-3.5849,-3.6468,-3.6509,-3.7877,-3.8314,-3.7917,-4.0113,-4.0861,-4.0417,-4.2176,-4.2763,-4.2361,-4.2066,-4.1385,-4.0482,-3.9406,-3.7271,-3.4502,-3.2958,-3.1607,-3.0528,-2.9907,-2.9917,-3.0283,-3.0876,-3.1693,-3.2479,-3.2479,-3.2403,-3.2204,0.0,0.0,0.0,0.0,0.0,0.0,0.0,0.0,0.0,0.0,0.0,0.0,0.0,0.0,-3.2139,-3.4037,0.0,-3.88,-3.9117,-4.0779,-4.182,-4.1405,-4.1613,-4.2397,-4.3977,-4.3781,-4.376,-4.4338,-4.3446,-4.2799,-4.2826,-4.1684,-4.0555,-3.9733,-3.8584,-3.7531,-3.6583,-3.5542,-3.4628,-3.3898,-3.2471,-3.1613,-3.1273,-2.9936,-2.9069,-2.8568,-2.7525,-2.6819,-2.6398,-2.5424,-2.4815,-2.4442,-2.3615,-2.3236,-2.3112,-2.2785,-2.2931,-2.339,-2.3614,-2.3692,-2.3737,-1.3263,-1.3623,-1.4348,-1.6159,-1.651,-1.699,-1.833,-1.8731,-1.9315,-2.057,-2.088,-2.1183,-2.1764,-2.1577,-2.1775,0.0,0.0,0.0,0.0,-2.8443,-2.9509,-3.0914,-3.1804,-3.2698,-3.3596,-3.4978,-3.5492,-3.503,-3.5782,-3.5662,-3.4789,-3.6378,-3.7182,-3.7269,-3.8583,-3.9549,-4.0098,-3.9849,-3.9489,-3.9007,-3.8937,-3.7966,-3.6316,-3.4321,-3.3239,-3.2721,-3.2106,-3.1753,-3.1706,-3.2586,-3.3145,-3.3412,-3.3139,-3.2907,-3.2617,-3.1898,-3.0929,0.0,0.0,0.0,0.0,0.0,0.0,0.0,0.0,0.0,-2.6843,-2.9269,-3.1352,-3.347,-3.5712,-3.7708,-3.9139,-3.9828,-4.045,-4.0702,-4.027,-4.0353,-4.1023,-4.2527,-4.2459,-4.2574,-4.3399,-4.3013,-4.2669,-4.2601,-4.2154,-4.1276,-3.9767,-3.8946,-3.8116,-3.7103,-3.6056,-3.5412,-3.5088,-3.3304,-3.2243,-3.2041,-3.006,-2.8812,-2.8271,-2.7295,-2.6556,-2.5961,-2.5179,-2.4535,-2.3955,-2.2945,-2.2588,-2.264,-2.2119,-2.2282,-2.2845,-2.3152,-2.3282,-2.338,-1.1272,-1.2051,-1.3392,-1.5964,-1.6376,-1.6636,-1.7507,-1.8269,-1.8802,-1.903,-1.9687,-2.015,-2.0165,-2.0068,-2.0699,-2.2399,-2.5231,0.0,-2.7654,-2.8486,-2.9343,-3.0091,-3.0976,-3.1933,-3.2977,-3.3862,-3.4679,-3.5442,-3.434,-3.3558,-3.3072,-3.299,-3.2833,-3.2704,-3.4368,-3.5552,-3.6275,-3.695,-3.7353,-3.7654,-3.7701,-3.7467,-3.7034,-3.6301,-3.5404,-3.455,-3.388,-3.3693,-3.3754,-3.3896,-3.3599,-3.3304,-3.3598,-3.3,-3.2161,-3.1943,0.0,-3.0261,-2.8613,-2.6226,-2.4169,-2.3953,-2.3867,-2.4218,0.0,0.0,-2.7693,-2.9757,-3.216,-3.4231,-3.5362,-3.7244,-3.9058,-4.0255,-4.0165,-4.0174,-4.0894,-4.0569,-4.0446,-4.0748,-4.1043,-4.1838,-4.358,-4.2239,-4.1694,-4.2757,-4.1606,-4.0535,-3.975,-3.8843,-3.7906,-3.6922,-3.5891,-3.5245,-3.5088,-3.3212,-3.2196,-3.2164,-2.9681,-2.8407,-2.8164,-2.693,-2.6236,-2.593,-2.4712,-2.3893,-2.3353,-2.2817,-2.2355,-2.2015,-2.2168,-2.2372,-2.2552,-2.2596,-2.2689,-2.2823,-1.069,-1.1508,-1.2546,-1.4494,-1.5224,-1.5997,-1.7291,-1.7394,-1.7849,-1.9354,-1.944,-1.9516,-1.9909,-2.0603,-2.1275,-2.1917,-2.4806,-2.6626,-2.6756,-2.745,-2.8344,-2.9483,-2.9515,-3.0392,-3.2276,-3.3268,-3.3936,-3.4359,-3.3372,-3.2301,-3.1073,-3.0041,-2.9437,-2.932,-2.9763,-3.071,-3.1997,-3.2817,-3.3914,-3.5208,-3.628,-3.6797,-3.7062,-3.7218,-3.6987,-3.6358,-3.5022,-3.4478,0.0,0.0,-3.4166,-3.376,-3.4169,-3.3295,-3.221,-3.2739,-3.207,0.0,-2.8403,-2.694,-2.5716,0.0,-2.408,-2.4756,-2.5919,-2.667,-2.7876,-3.0342,-3.1937,-3.3552,-3.5653,-3.6982,-3.8237,0.0,-3.955,-3.9422,-3.9943,-3.9661,-3.965,-4.0219,-4.0124,-4.0694,-4.2261,-4.1861,-4.1654,-4.1989,-4.1297,-4.0306,-3.9112,-3.8281,-3.7346,-3.6293,-3.5746,-3.5103,-3.4346,-3.306,-3.1941,-3.0957,-2.9432,-2.8184,-2.7179,-2.6768,-2.6253,-2.5591,-2.4223,-2.3545,-2.3365,-2.249,-2.2122,-2.2175,-2.2388,-2.2605,-2.2764,-2.2667,-2.272,-2.2893,-1.0117,-1.1217,-1.2213,-1.3478,-1.4441,-1.5434,-1.6628,-1.6532,-1.6988,-1.8846,-1.8803,-1.8863,-1.9572,-2.1046,-2.1953,-2.1758,-2.4371,-2.6005,-2.5932,-2.6524,-2.7425,-2.873,-2.8514,-2.9349,-3.1483,-3.2484,-3.3121,-3.3386,-3.2324,-3.0991,-2.9365,-2.7469,-2.6242,-2.5649,-2.5238,-2.6028,-2.7668,-2.8893,-3.0774,-3.3057,-3.5044,-3.6358,-3.7268,-3.7793,-3.7802,-3.7348,-3.5841,-3.5302,0.0,0.0,-3.4645,-3.4334,-3.4536,-3.3525,-3.2418,-3.3458,-3.2843,-3.1372,-2.9213,0.0,0.0,-2.497,-2.4764,-2.5295,-2.6358,-2.6983,-2.8023,-3.0287,-3.1512,-3.2876,-3.5199,-3.6187,-3.7233,-3.91,-3.9031,-3.893,-3.9484,-3.9292,-3.9313,-3.9813,-3.9633,-3.9873,-4.0955,-4.123,-4.1432,-4.1443,-4.0808,-3.9898,-3.8663,-3.7799,-3.6867,-3.5834,-3.5442,-3.4801,-3.3852,-3.2821,-3.1555,-3.0162,-2.913,-2.7908,-2.6615,-2.6536,-2.613,-2.5427,-2.4236,-2.3826,-2.3882,-2.2692,-2.2421,-2.2698,-2.2691,-2.2816,-2.302,-2.2851,-2.2928,-2.3095,-0.9194,-1.1031,-1.2666,-1.3546,-1.4466,-1.5097,-1.5091,-1.5835,-1.6426,-1.6493,-1.7273,-1.8066,-1.8669,-2.0852,-2.2219,-2.2098,-2.4251,-2.5597,-2.5523,-2.6128,-2.6872,-2.7702,-2.8402,-2.9333,-3.0522,-3.1328,-3.2213,-3.3097,-3.0876,-2.9241,-2.808,-2.5233,-2.298,-2.1264,-2.1091,-2.1856,-2.3563,-2.5794,-2.8494,-3.1484,-3.4071,-3.6202,-3.7877,-3.8074,-3.7785,-3.7132,-3.6265,0.0,0.0,0.0,-3.4977,-3.4985,-3.4555,-3.3525,0.0,-3.3839,-3.3523,0.0,0.0,0.0,-2.7593,-2.711,-2.6309,-2.5952,-2.6859,-2.7593,-2.8359,-2.9484,-3.1022,-3.2524,-3.3611,-3.4618,-3.6215,-3.8819,-3.865,-3.8756,-4.0264,-4.0098,-3.9729,-3.9386,-3.9441,-3.9677,0.0,-4.0155,-4.0526,-4.1529,-4.0135,-3.9084,-3.8629,-3.7592,-3.6616,-3.5851,-3.4863,-3.4205,-3.3989,-3.2298,-3.1079,-3.0359,-2.8739,-2.7564,-2.6858,-2.608,-2.5717,-2.5652,-2.5043,-2.489,-2.503,-2.3785,-2.3459,-2.3705,-2.3067,-2.2919,-2.3095,-2.3095,-2.3168,-2.3289,-0.8855,-1.1965,-1.4173,-1.3889,-1.5052,-1.5844,-1.5289,-1.5433,-1.6019,-1.7182,-1.8063,0.0,0.0,0.0,0.0,0.0,-2.4601,-2.5944,-2.5844,-2.6073,-2.6516,-2.7214,-2.7043,-2.7877,-2.992,-3.0288,-3.117,-3.2627,-3.049,-2.8946,-2.7941,-2.4303,-2.1645,-1.9852,-1.8614,-1.8734,-1.9959,-2.2628,-2.6255,-3.0454,-3.3815,-3.6423,-3.8425,-3.8758,-3.8616,-3.8194,0.0,0.0,0.0,0.0,-3.5424,-3.5531,-3.5147,0.0,0.0,-3.4384,0.0,-3.4372,-3.2183,0.0,-2.8653,-2.7021,-2.594,-2.5403,-2.6019,-2.6617,-2.7339,-2.8413,-2.9369,-3.0494,-3.2047,-3.317,-3.47,-3.7171,-3.7639,-3.8166,-3.957,-3.964,-3.9537,-3.9571,-3.9848,0.0,0.0,0.0,0.0,-4.0979,-4.0012,-3.9157,-3.8646,-3.7713,-3.6808,-3.5966,-3.505,-3.4162,-3.3389,-3.2264,-3.0775,-2.8996,-2.7383,-2.6652,-2.6607,-2.6112,-2.5961,-2.6068,-2.5375,-2.5196,-2.5329,-2.4649,-2.4179,-2.3936,-2.3911,-2.37,-2.336,-2.336,-2.3453,-2.3567,-0.9118,-1.2656,-1.5226,-1.5277,-1.5988,0.0,0.0,0.0,0.0,0.0,0.0,0.0,0.0,0.0,0.0,0.0,0.0,-2.5543,-2.5749,-2.5793,-2.625,-2.7203,-2.6863,-2.7681,-2.9898,-3.0311,-3.1021,-3.2154,-3.0392,-2.88,-2.7316,-2.3406,-2.0277,-1.7821,-1.6376,-1.6211,-1.7229,-2.0421,-2.4574,-2.9414,-3.3202,-3.6253,-3.8613,-3.8983,-3.8925,0.0,0.0,0.0,0.0,0.0,0.0,0.0,0.0,0.0,0.0,0.0,-3.5792,-3.6078,-3.3582,-3.2042,-3.0591,-2.8198,-2.6732,-2.5985,-2.6253,-2.6353,-2.6724,-2.7877,-2.8486,-2.9429,-3.1199,-3.2323,-3.3819,-3.6295,-3.7109,-3.7894,-3.9124,-3.9495,-3.9674,-3.9713,-4.0087,-4.0285,0.0,0.0,0.0,-4.0246,-3.9477,-3.8777,-3.8249,-3.7344,-3.644,-3.5643,-3.4746,-3.3786,-3.2748,-3.1943,-3.0466,-2.8422,-2.6882,-2.6274,-2.6485,-2.6279,-2.6279,-2.6383,-2.595,-2.5898,-2.609,-2.5355,-2.5042,-2.4989,-2.4399,-2.41,-2.396,-2.3701,-2.3678,-2.3721,-0.9892,-1.3101,-1.5812,0.0,0.0,0.0,0.0,0.0,0.0,0.0,0.0,0.0,0.0,0.0,0.0,0.0,0.0,0.0,-2.5195,-2.5329,0.0,-2.7593,-2.7761,-2.8632,-3.0381,-3.1259,-3.1744,-3.1776,-3.0631,-2.8814,-2.6353,-2.2668,-1.9022,-1.5461,-1.4483,-1.4407,-1.5266,-1.9016,-2.3413,-2.8163,-3.2086,-3.5586,-3.835,-3.855,0.0,0.0,0.0,0.0,0.0,0.0,0.0,0.0,0.0,0.0,0.0,0.0,0.0,-3.7607,-3.5787,-3.4551,-3.3174,-3.0486,-2.8662,-2.7539,-2.744,-2.6768,-2.6521,-2.7812,-2.8447,-2.9242,-3.0936,0.0,-3.3427,-3.6109,-3.7067,-3.7841,-3.8959,-3.9803,-4.0106,0.0,0.0,0.0,0.0,0.0,0.0,-3.9485,0.0,-3.8008,-3.7525,-3.6594,-3.5728,-3.501,-3.4058,-3.3144,-3.2201,-3.1352,-3.0146,-2.8699,-2.7224,-2.652,-2.652,-2.652,-2.6554,-2.664,-2.6758,-2.7036,-2.7213,-2.5906,-2.5975,-2.664,-2.4497,-2.4141,-2.4748,-2.4064,-2.381,-2.3786,0.0,0.0,0.0,0.0,0.0,0.0,0.0,0.0,0.0,0.0,0.0,0.0,0.0,0.0,0.0,0.0,0.0,0.0,-2.4469,-2.5703,0.0,0.0,0.0,-2.8842,-3.0593,-3.154,0.0,0.0,0.0,-3.0863,-2.8079,-2.4706,-2.0965,-1.702,-1.519,-1.427,-1.4304,-1.6995,-2.0772,-2.53,0.0,-3.1766,-3.4821,0.0,0.0,0.0,0.0,0.0,0.0,0.0,0.0,0.0,0.0,0.0,-3.8298,0.0,0.0,-3.7817,-3.6705,-3.5216,-3.3653,-3.2049,-2.9903,-2.8087,-2.7705,-2.712,-2.6778,-2.7117,-2.7674,-2.8433,-2.9383,0.0,0.0,-3.408,-3.5768,0.0,-3.8261,-3.9112,0.0,-3.9952,0.0,-4.072,-4.053,-4.0216,0.0,0.0,-3.8721,-3.8226,-3.7551,-3.718,-3.6629,-3.5908,-3.443,-3.3546,-3.3291,-3.0832,-2.933,-2.8831,-2.7366,-2.6742,-2.694,-2.6909,-2.6925,-2.7053,-2.7198,-2.7355,-2.747,-2.6729,-2.6313,-2.6047,-2.5031,-2.444,-2.4145,-2.4008,-2.3955,-2.3955,0.0,0.0,0.0,0.0,0.0,0.0,0.0,0.0,0.0,0.0,0.0,0.0,0.0,0.0,0.0,0.0,0.0,0.0,0.0,-2.5834,0.0,0.0,0.0,-3.0003,-3.1767,-3.3443,-3.4535,0.0,0.0,0.0,0.0,-2.5548,-2.1443,-1.7624,-1.4986,-1.3588,-1.3329,0.0,0.0,0.0,0.0,0.0,0.0,0.0,0.0,0.0,0.0,0.0,0.0,0.0,0.0,-3.8863,-3.9007,-3.8868,-3.8556,-3.8129,0.0,-3.7905,-3.7207,-3.6236,-3.5008,-3.3211,-3.1341,-2.9669,-2.8771,-2.7865,-2.7254,-2.7428,-2.7653,0.0,-2.9144,-3.0435,0.0,0.0,0.0,0.0,-3.8007,-3.8864,-3.9613,0.0,-4.0358,0.0,-3.9922,-3.9467,-3.8833,0.0,-3.8136,-3.792,-3.7195,-3.7074,-3.6513,-3.537,-3.441,-3.3556,-3.2769,-3.0426,-2.9228,-2.914,-2.7657,-2.7053,-2.7261,-2.7215,-2.7247,-2.7386,0.0,-2.7659,-2.7736,-2.6872,-2.6494,-2.6393,-2.5103,-2.4553,-2.4429,-2.4165,-2.4075,-2.4036,0.0,0.0,0.0,0.0,0.0,0.0,0.0,0.0,0.0,-1.5398,0.0,0.0,0.0,0.0,0.0,0.0,0.0,0.0,0.0,0.0,0.0,0.0,-2.9788,-3.1584,-3.3344,-3.5944,0.0,0.0,0.0,0.0,0.0,0.0,0.0,0.0,0.0,0.0,0.0,0.0,0.0,0.0,0.0,0.0,0.0,0.0,0.0,0.0,0.0,0.0,0.0,0.0,-3.822,-3.9379,-3.8323,-3.8487,-3.8839,-3.7733,-3.7757,-3.8068,-3.7624,-3.7332,-3.659,-3.4311,-3.2891,-3.1655,-3.0199,-2.8778,-2.7856,-2.8177,0.0,-2.8151,-2.944,-3.0075,-3.1235,-3.3732,0.0,-3.5957,-3.7931,-3.8898,-3.9547,-4.0173,-4.0085,-3.9634,-3.877,-3.8268,-3.772,-3.6975,-3.7387,-3.7422,-3.6737,-3.6597,-3.5792,-3.415,-3.4081,-3.3329,-3.1709,-3.023,-2.954,-2.9506,-2.7987,-2.7355,-2.7557,-2.7496,-2.7526,-2.7677,0.0,0.0,-2.802,-2.6781,-2.6634,-2.6971,-2.5017,-2.4586,-2.4983,-2.441,-2.4226,-2.426,0.0,0.0,0.0,0.0,0.0,0.0,0.0,-1.5368,-1.5408,-1.5403,-1.5457,0.0,0.0,0.0,0.0,0.0,0.0,0.0,0.0,0.0,0.0,-2.7981,-3.0366,-3.2524,0.0,0.0,0.0,0.0,0.0,0.0,0.0,0.0,0.0,0.0,0.0,0.0,0.0,0.0,0.0,0.0,0.0,0.0,0.0,0.0,0.0,0.0,0.0,0.0,0.0,-3.4736,-3.6092,-3.7469,-3.8014,-3.8436,-3.8746,-3.8504,-3.8653,-3.8882,-3.859,-3.8003,-3.7101,-3.5805,-3.4329,-3.2769,-3.1139,-2.9583,0.0,0.0,-2.7659,-2.7733,-2.8761,-2.9582,-3.0769,-3.2966,0.0,0.0,0.0,0.0,-3.9163,0.0,0.0,0.0,0.0,0.0,0.0,0.0,0.0,0.0,-3.6702,-3.6173,-3.5165,-3.3574,-3.3487,-3.3014,-3.2108,-3.049,-2.9726,-2.9807,-2.8209,-2.7617,-2.7911,-2.7777,-2.7836,-2.7996,0.0,0.0,-2.8138,-2.7381,-2.6844,-2.6381,-2.546,-2.4811,-2.4372,-2.4245,-2.4612,-2.5071,0.0,0.0,0.0,0.0,0.0,0.0,0.0,-1.5291,-1.5351,-1.54,-1.5331,-1.5862,-1.7387,-1.7543,0.0,0.0,0.0,0.0,0.0,0.0,0.0,0.0,0.0,0.0,0.0,0.0,0.0,0.0,0.0,0.0,0.0,0.0,0.0,0.0,0.0,0.0,0.0,0.0,0.0,0.0,0.0,0.0,0.0,0.0,0.0,0.0,0.0,0.0,0.0,0.0,-3.4639,-3.5383,-3.6857,-3.7644,-3.8018,-3.7905,-3.8131,-3.8469,-3.8632,-3.8437,-3.7849,-3.6457,-3.5318,-3.4018,-3.2088,0.0,0.0,0.0,-2.8716,-2.8451,-2.95,-2.999,0.0,-3.2366,0.0,0.0,0.0,0.0,0.0,0.0,0.0,0.0,0.0,0.0,0.0,0.0,0.0,0.0,-3.7044,-3.5995,-3.4815,-3.3653,-3.323,-3.2825,-3.2371,-3.1196,-3.07,-3.0776,-2.9132,-2.8494,-2.8808,-2.8258,-2.8109,-2.8264,0.0,0.0,-2.8316,-2.7314,-2.6663,-2.6253,-2.5139,-2.4502,-2.4209,-2.4284,-2.4782,-2.5408,0.0,0.0,0.0,0.0,0.0,0.0,0.0,-1.5256,-1.5312,-1.5368,-1.5475,-1.6038,-1.7324,-1.7477,-1.8184,0.0,0.0,0.0,0.0,0.0,0.0,0.0,0.0,0.0,0.0,0.0,0.0,0.0,0.0,0.0,0.0,0.0,0.0,0.0,0.0,0.0,0.0,0.0,0.0,0.0,0.0,0.0,0.0,0.0,0.0,0.0,0.0,0.0,0.0,0.0,-3.3714,-3.3917,-3.5545,-3.6498,-3.6988,-3.6943,-3.7325,-3.7877,-3.824,-3.8566,-3.8379,-3.663,-3.5889,-3.4965,-3.257,-3.1011,0.0,0.0,-2.9465,-2.9085,-3.0059,0.0,-3.0854,0.0,-3.2802,-3.3958,0.0,0.0,0.0,0.0,0.0,0.0,0.0,0.0,0.0,0.0,0.0,0.0,0.0,-3.5865,-3.478,-3.3896,-3.3214,-3.2805,-3.2657,-3.1959,-3.1631,-3.1706,-3.022,-2.9551,-2.9638,-2.8892,-2.8515,-2.8458,0.0,0.0,0.0,-2.7465,-2.6801,-2.6341,-2.5182,-2.4523,-2.4228,-2.4321,-2.4949,-2.5743,0.0,0.0,0.0,0.0,0.0,0.0,0.0,-1.5264,-1.5309,-1.5315,-1.5946,-1.6631,-1.7255,-1.7369,-1.8362,0.0,0.0,0.0,0.0,0.0,0.0,0.0,0.0,0.0,0.0,0.0,0.0,0.0,0.0,0.0,0.0,0.0,0.0,0.0,0.0,0.0,0.0,0.0,0.0,0.0,0.0,0.0,0.0,0.0,0.0,0.0,0.0,0.0,0.0,0.0,0.0,-3.3812,-3.4451,-3.5161,-3.5815,-3.6181,0.0,0.0,-3.7564,-3.8143,-3.8306,-3.6287,-3.5854,-3.5163,-3.2084,0.0,0.0,-2.8664,-2.8391,-2.8545,-2.9208,-2.987,-3.0785,-3.2161,0.0,-3.4092,0.0,0.0,0.0,0.0,0.0,0.0,0.0,0.0,0.0,0.0,0.0,0.0,0.0,-3.579,-3.4983,-3.4211,-3.3436,-3.3135,-3.3232,-3.2325,-3.1941,-3.2123,-3.1247,-3.0486,-2.9875,-2.9777,-2.9341,-2.8669,0.0,0.0,0.0,-2.8759,-2.7912,-2.6554,-2.6491,-2.5594,-2.4284,-2.4247,-2.5225,-2.65,0.0,0.0,0.0,0.0,0.0,0.0,0.0,-1.5254,-1.5292,-1.5241,-1.553,-1.6137,-1.7244,-1.7101,-1.7739,0.0,0.0,0.0,0.0,0.0,0.0,0.0,0.0,0.0,0.0,0.0,0.0,0.0,0.0,0.0,0.0,0.0,0.0,0.0,0.0,0.0,0.0,0.0,0.0,0.0,0.0,0.0,0.0,0.0,0.0,0.0,0.0,0.0,0.0,0.0,0.0,0.0,-3.3766,-3.4023,0.0,0.0,-3.6683,-3.7542,-3.7639,-3.7546,-3.7488,-3.7827,-3.7163,-3.5745,-3.3187,0.0,-2.9845,-2.9998,-2.9636,-2.9532,-3.0144,-3.056,-3.108,-3.1949,-3.2021,-3.2539,-3.4133,0.0,0.0,0.0,0.0,0.0,0.0,0.0,0.0,0.0,0.0,0.0,0.0,-3.6726,-3.5666,-3.4371,-3.4109,-3.3792,-3.3352,-3.302,-3.2915,-3.3029,-3.2238,-3.1754,-3.1561,-3.054,-2.9941,-2.9701,0.0,0.0,0.0,-2.8043,-2.7272,-2.6569,-2.5688,-2.4912,-2.4358,-2.4375,-2.5412,-2.6765,0.0,0.0,0.0,0.0,0.0,0.0,-1.5215,-1.527,-1.5273,-1.5202,-1.5761,-1.6373,-1.6923,-1.7298,-1.7892,-1.8854,0.0,0.0,0.0,0.0,0.0,0.0,0.0,0.0,0.0,0.0,0.0,0.0,0.0,0.0,0.0,0.0,0.0,0.0,0.0,0.0,0.0,0.0,0.0,0.0,0.0,0.0,0.0,0.0,0.0,0.0,0.0,0.0,0.0,0.0,0.0,0.0,0.0,0.0,-3.3737,0.0,-3.5971,-3.6702,-3.698,-3.665,-3.6454,-3.7616,-3.7098,-3.5621,0.0,-3.1379,-3.0267,-3.0313,-3.0123,-3.0141,-3.0783,-3.1114,-3.1505,-3.2057,-3.1794,-3.1968,-3.3194,-3.3759,0.0,0.0,0.0,0.0,0.0,0.0,0.0,0.0,0.0,0.0,0.0,0.0,-3.634,-3.4901,-3.4552,-3.4102,-3.3538,-3.3615,-3.3698,-3.3734,-3.322,-3.2919,-3.2773,-3.1381,-3.0646,0.0,0.0,0.0,0.0,-2.7825,-2.7063,-2.6672,-2.5319,-2.4817,-2.4817,-2.4853,-2.5875,-2.725,0.0,0.0,0.0,0.0,0.0,0.0,0.0,-1.5299,-1.5271,-1.5206,-1.7114,-1.784,-1.6194,-1.8193,-1.9294,-1.8393,0.0,0.0,0.0,0.0,0.0,0.0,0.0,0.0,0.0,0.0,0.0,0.0,0.0,0.0,0.0,0.0,0.0,0.0,0.0,0.0,0.0,0.0,0.0,0.0,0.0,0.0,0.0,0.0,0.0,0.0,0.0,0.0,0.0,0.0,0.0,0.0,0.0,-3.3689,-3.3797,-3.4274,-3.4708,-3.5054,-3.5097,-3.5257,-3.5266,-3.4609,-3.4884,-3.4444,0.0,-3.1074,-3.112,-2.872,-2.9076,-2.9969,-3.0492,-3.1314,-3.2061,-3.2595,-3.2737,-3.3019,-3.3697,-3.4584,0.0,0.0,0.0,0.0,0.0,0.0,0.0,0.0,0.0,0.0,0.0,0.0,-3.6966,-3.5994,-3.4568,-3.3807,-3.3807,-3.3998,-3.4099,-3.4099,-3.4221,-3.3864,-3.3063,-3.2328,0.0,0.0,0.0,0.0,0.0,-2.8614,-2.7774,-2.6915,-2.604,-2.5741,-2.5777,-2.5707,-2.6712,-2.8086,0.0,0.0,0.0,0.0,0.0,0.0,0.0,-1.5348,-1.5542,-1.6035,-1.6588,-1.709,-1.7463,-1.7686,-1.8252,-1.935,0.0,0.0,0.0,0.0,0.0,0.0,0.0,0.0,0.0,0.0,0.0,0.0,0.0,0.0,0.0,0.0,0.0,0.0,0.0,0.0,0.0,0.0,0.0,0.0,0.0,0.0,0.0,0.0,0.0,0.0,0.0,0.0,0.0,0.0,0.0,0.0,0.0,0.0,0.0,-3.3963,-3.4025,-3.4058,-3.4182,-3.4266,-3.431,-3.4266,-3.3664,-3.2836,-3.1831,-3.068,-2.9758,-2.961,-2.9179,-2.9152,-3.0125,-3.122,-3.2017,-3.217,-3.1851,0.0,0.0,0.0,0.0,0.0,0.0,0.0,0.0,0.0,0.0,0.0,0.0,0.0,0.0,0.0,-3.7477,-3.7172,-3.6132,-3.5375,-3.4962,-3.4519,-3.4293,-3.4293,-3.4495,-3.4451,-3.4212,-3.2824,0.0,0.0,0.0,0.0,0.0,-2.8866,-2.7949,-2.7111,-2.6833,-2.635,-2.5851,-2.6376,-2.7213,-2.8025,0.0,0.0,0.0,0.0,0.0,0.0,0.0,-1.5346,-1.5652,-1.6426,-1.6575,-1.6929,-1.7737,-1.7525,-1.7889,-1.9348,0.0,0.0,0.0,0.0,0.0,0.0,0.0,0.0,0.0,0.0,0.0,0.0,0.0,0.0,0.0,0.0,0.0,0.0,0.0,0.0,0.0,0.0,0.0,0.0,0.0,0.0,-2.9843,0.0,0.0,0.0,0.0,0.0,0.0,0.0,0.0,0.0,0.0,0.0,0.0,0.0,-3.3834,-3.3753,-3.3807,-3.3913,-3.4067,-3.4264,-3.3639,-3.2854,-3.2434,-3.1177,-3.0046,-2.9801,-2.9501,-2.9519,-3.0236,-3.0878,-3.1422,-3.1762,-3.118,0.0,0.0,0.0,0.0,0.0,0.0,0.0,0.0,0.0,0.0,0.0,0.0,0.0,0.0,0.0,-3.7113,-3.7456,-3.656,-3.5873,-3.5535,-3.4862,-3.4539,-3.4539,-3.4728,-3.4849,-3.4851,0.0,0.0,0.0,0.0,0.0,0.0,-2.9072,-2.8362,-2.7805,-2.7459,-2.7135,-2.694,-2.7397,-2.8017,-2.8609,0.0,0.0,0.0,0.0,0.0,0.0,0.0,0.0,0.0,0.0,-1.7014,-1.7313,-1.7284,-1.7726,-1.8199,0.0,0.0,0.0,0.0,0.0,0.0,0.0,0.0,0.0,0.0,0.0,0.0,0.0,-3.49,-3.3824,-3.2378,0.0,0.0,0.0,0.0,0.0,0.0,0.0,0.0,0.0,0.0,-3.1777,0.0,0.0,0.0,0.0,0.0,0.0,0.0,0.0,0.0,0.0,0.0,0.0,0.0,0.0,0.0,0.0,0.0,-3.4055,-3.4396,-3.4469,-3.4348,-3.3925,-3.2817,-3.2241,0.0,-2.947,-2.9972,-3.0701,-3.0557,-3.0331,-3.0443,-3.1299,0.0,0.0,0.0,0.0,0.0,0.0,0.0,0.0,0.0,0.0,0.0,0.0,0.0,0.0,0.0,0.0,0.0,-3.7057,-3.6091,-3.5576,-3.5642,-3.5101,-3.4809,-3.4829,-3.4964,-3.5056,-3.5053,0.0,0.0,0.0,0.0,0.0,0.0,-2.9371,-2.8962,-2.8823,-2.8003,-2.8122,-2.8707,-2.8619,-2.9025,-2.9569,0.0,0.0,0.0,0.0,0.0,0.0,0.0,0.0,0.0,0.0,-1.7176,-1.7664,-1.7994,-1.8239,-1.8644,0.0,0.0,0.0,0.0,0.0,0.0,0.0,0.0,0.0,0.0,0.0,0.0,-3.5519,-3.6056,-3.5857,-3.5009,-3.5048,0.0,0.0,0.0,0.0,0.0,0.0,0.0,0.0,-3.5761,-3.6288,0.0,0.0,0.0,0.0,-3.6428,-3.6474,0.0,0.0,0.0,0.0,0.0,0.0,0.0,0.0,-3.377,-3.3239,-3.3124,0.0,-3.4216,-3.4311,-3.3448,-3.2505,0.0,-3.128,-3.0207,-2.9775,-2.9906,-3.0076,-2.9945,-2.9888,-3.0092,-3.0716,0.0,0.0,0.0,0.0,0.0,0.0,0.0,0.0,0.0,0.0,0.0,0.0,0.0,0.0,0.0,0.0,0.0,-3.7088,-3.6349,-3.5937,-3.591,-3.5285,-3.4983,-3.502,-3.5157,-3.5239,-3.5197,0.0,0.0,0.0,0.0,0.0,0.0,-3.0143,-2.9658,-2.909,-2.943,-2.9235,-2.8831,-2.9368,-2.958,-2.9589,0.0,0.0,0.0,0.0,0.0,0.0,0.0,0.0,0.0,0.0,0.0,0.0,0.0,0.0,0.0,0.0,0.0,0.0,0.0,0.0,0.0,0.0,0.0,0.0,0.0,0.0,0.0,0.0,0.0,-3.6472,0.0,0.0,0.0,0.0,0.0,0.0,0.0,0.0,0.0,0.0,-3.8448,0.0,0.0,0.0,0.0,0.0,-3.7717,-3.7386,0.0,-3.6339,-3.6026,-3.5777,0.0,0.0,0.0,0.0,-3.3825,-3.3123,-3.3055,-3.3348,-3.3687,-3.3776,-3.3168,-3.2448,-3.2052,-3.0928,-3.003,-3.0147,-3.0041,-2.9934,-2.9886,-2.9789,-2.9814,0.0,0.0,0.0,0.0,0.0,0.0,0.0,0.0,0.0,0.0,0.0,0.0,0.0,0.0,0.0,0.0,0.0,0.0,0.0,-3.5798,-3.5799,-3.6099,-3.5438,-3.5126,-3.5196,-3.5339,-3.5393,-3.5345,0.0,0.0,0.0,0.0,0.0,-3.0492,-3.0481,-3.022,-2.9823,-3.0186,-3.0002,-2.9577,-2.9904,-2.9927,-2.9767,0.0,0.0,0.0,0.0,0.0,0.0,0.0,0.0,0.0,0.0,0.0,0.0,0.0,0.0,0.0,0.0,0.0,0.0,0.0,0.0,0.0,0.0,0.0,0.0,0.0,0.0,0.0,0.0,0.0,0.0,0.0,0.0,0.0,0.0,0.0,0.0,0.0,0.0,0.0,0.0,0.0,0.0,0.0,0.0,0.0,0.0,0.0,0.0,0.0,-3.7017,-3.63,-3.5386,-3.5209,0.0,0.0,0.0,0.0,0.0,-3.32,-3.3163,-3.3069,-3.3047,-3.3049,-3.2824,-3.1868,-3.092,-3.0279,-3.0458,-3.0126,-2.9875,-3.0099,-2.9791,0.0,0.0,0.0,0.0,0.0,0.0,0.0,0.0,0.0,0.0,0.0,0.0,0.0,0.0,0.0,0.0,0.0,0.0,0.0,0.0,-3.5132,-3.5492,-3.6236,-3.556,-3.5242,-3.5343,-3.546,-3.5509,-3.5483,-3.3997,0.0,0.0,0.0,0.0,-3.0618,-3.0613,-3.0613,-3.0613,-3.0548,-3.0482,-3.0419,-3.029,-3.0157,-3.0022,0.0,0.0,0.0,0.0,0.0,0.0,0.0,0.0,0.0,0.0,0.0,0.0,0.0,0.0,0.0,0.0,0.0,0.0,0.0,0.0,0.0,0.0,0.0,0.0,0.0,0.0,0.0,0.0,0.0,0.0,-3.8965,-4.0098,-4.0101,0.0,0.0,0.0,0.0,0.0,0.0,0.0,0.0,0.0,0.0,0.0,0.0,0.0,0.0,0.0,0.0,-3.7028,-3.6358,-3.5538,-3.5399,0.0,0.0,0.0,0.0,0.0,-3.3129,-3.2996,-3.241,-3.237,-3.2411,-3.2257,-3.1591,-3.0833,-3.0314,-3.0411,-2.961,-2.9182,-3.0098,-2.9582,-2.9231,0.0,0.0,0.0,0.0,0.0,0.0,0.0,0.0,0.0,0.0,0.0,0.0,0.0,0.0,0.0,0.0,0.0,0.0,0.0,0.0,-3.5643,-3.6466,-3.5679,-3.5358,-3.5479,-3.5547,-3.5612,-3.5648,-3.471,-3.3874,0.0,0.0,0.0,-3.0683,-3.068,-3.068,-3.0683,-3.0676,-3.0642,-3.0563,-3.0472,-3.0381,-3.0209,0.0,0.0,0.0,0.0,0.0,0.0,0.0,0.0,0.0,0.0,0.0,0.0,0.0,0.0,0.0,0.0,0.0,0.0,0.0,0.0,0.0,0.0,0.0,0.0,0.0,0.0,0.0,0.0,0.0,-3.8243,-3.9409,-4.0532,-4.0851,-4.0516,0.0,0.0,0.0,0.0,0.0,-4.4351,0.0,0.0,0.0,0.0,0.0,0.0,0.0,0.0,0.0,0.0,-3.7163,-3.6298,-3.5701,0.0,0.0,0.0,0.0,0.0,-3.2218,-3.1993,-3.1578,-3.1124,-3.203,-3.2991,-3.2735,-3.1828,-3.103,-3.1138,-3.0385,0.0,0.0,0.0,-2.9767,0.0,0.0,0.0,0.0,0.0,0.0,0.0,0.0,0.0,0.0,0.0,0.0,0.0,0.0,0.0,0.0,0.0,0.0,0.0,0.0,0.0,-3.591,-3.6032,-3.5916,-3.5495,-3.5558,-3.5646,-3.5669,-3.4863,-3.4051,0.0,0.0,-3.1741,-3.1404,-3.1436,-3.143,-3.1404,-3.1435,-3.1125,-3.0637,-3.0539,-3.0411,-3.0253,0.0,0.0,0.0,0.0,0.0,0.0,0.0,0.0,0.0,0.0,0.0,0.0,0.0,0.0,0.0,0.0,0.0,0.0,0.0,0.0,0.0,0.0,0.0,0.0,0.0,0.0,0.0,-3.5488,-3.6738,-3.8146,-3.963,-4.04,-4.0871,0.0,0.0,0.0,0.0,0.0,0.0,-4.5514,0.0,0.0,0.0,0.0,0.0,0.0,0.0,0.0,0.0,0.0,0.0,0.0,0.0,0.0,0.0,-3.4169,-3.3077,-3.2008,-3.1695,-3.1458,-3.1178,-3.0765,-3.1914,-3.3173,-3.3242,-3.2426,-3.1742,-3.2048,-3.1338,0.0,0.0,-3.0598,0.0,0.0,0.0,0.0,0.0,0.0,0.0,0.0,0.0,0.0,0.0,0.0,0.0,0.0,0.0,0.0,0.0,0.0,0.0,0.0,0.0,0.0,-3.5701,-3.6254,-3.6177,-3.5528,-3.5593,-3.5658,-3.5708,-3.5103,-3.4392,-3.3569,-3.2902,-3.2499,-3.231,-3.2157,-3.2079,-3.2005,-3.1865,-3.1344,-3.0698,-3.0582,-3.0472,-3.0321,0.0,0.0,0.0,0.0,0.0,0.0,0.0,0.0,0.0,0.0,0.0,0.0,0.0,0.0,0.0,0.0,0.0,0.0,0.0,0.0,0.0,0.0,0.0,0.0,0.0,-3.0181,-3.1931,-3.4769,-3.6291,-3.8233,-4.0488,-4.0021,-4.024,-4.1086,0.0,0.0,0.0,0.0,0.0,-4.7318,-4.7245,0.0,0.0,0.0,0.0,0.0,0.0,0.0,0.0,0.0,0.0,0.0,0.0,0.0,-3.3472,-3.4089,-3.2455,-3.0818,-3.2436,-3.2186,-3.1646,-3.2403,-3.2072,-3.1584,-3.1665,-3.173,-3.2046,-3.2916,-3.187,0.0,0.0,0.0,0.0,0.0,0.0,0.0,0.0,0.0,0.0,0.0,0.0,0.0,0.0,0.0,0.0,0.0,0.0,0.0,0.0,0.0,0.0,0.0,0.0,0.0,-3.6589,-3.6002,-3.5651,-3.5591,-3.5665,-3.5728,-3.5794,-3.5791,-3.5321,-3.4503,-3.4444,-3.3983,-3.3239,-3.243,-3.2104,-3.2006,-3.1211,-3.0804,-3.07,-3.0697,-3.0603,-3.0472,0.0,0.0,0.0,0.0,0.0,0.0,0.0,0.0,0.0,0.0,0.0,0.0,0.0,0.0,0.0,0.0,0.0,0.0,0.0,0.0,0.0,0.0,0.0,-2.5812,-2.7555,-2.9201,-3.1471,-3.4328,-3.6205,-3.8023,-3.9721,-3.9626,0.0,0.0,0.0,0.0,0.0,0.0,0.0,-4.669,-4.6621,-4.6597,0.0,0.0,0.0,0.0,0.0,0.0,0.0,0.0,-3.8664,-3.7832,-3.688,-3.5424,-3.3994,-3.3667,-3.2449,-3.1245,-3.137,-3.151,-3.1696,-3.2031,-3.2315,-3.2634,-3.3082,-3.3304,-3.3533,-3.3978,-3.3453,0.0,0.0,0.0,0.0,0.0,0.0,0.0,0.0,0.0,0.0,0.0,0.0,0.0,0.0,0.0,0.0,0.0,0.0,0.0,0.0,0.0,0.0,0.0,0.0,0.0,0.0,-3.6245,-3.6137,-3.5593,-3.5718,-3.5785,-3.5803,-3.5877,-3.5418,-3.4568,-3.4061,-3.3682,-3.3341,-3.2465,-3.2099,-3.2069,-3.1746,-3.1258,-3.0884,-3.1918,-3.1916,-3.1435,0.0,0.0,0.0,0.0,0.0,0.0,0.0,0.0,0.0,0.0,0.0,0.0,0.0,0.0,0.0,0.0,0.0,0.0,0.0,0.0,0.0,0.0,0.0,-2.5012,-2.6333,-2.798,-3.0164,-3.2894,-3.5119,-3.7185,-3.9016,0.0,0.0,0.0,0.0,0.0,0.0,0.0,0.0,0.0,-4.6449,-4.6519,0.0,0.0,0.0,0.0,0.0,0.0,0.0,0.0,-3.9121,-3.8261,-3.7087,-3.5564,-3.3997,-3.3067,-3.2357,-3.1728,-3.1069,-3.1332,-3.1826,-3.2134,-3.2718,-3.3437,-3.4186,-3.4415,-3.4574,-3.4937,-3.4445,-3.3404,-3.16,0.0,0.0,0.0,0.0,0.0,0.0,0.0,0.0,0.0,0.0,0.0,0.0,0.0,0.0,0.0,0.0,0.0,0.0,0.0,0.0,0.0,0.0,0.0,0.0,-3.6195,-3.6375,-3.6075,-3.5882,-3.5793,-3.5793,-3.5877,-3.5574,-3.4958,-3.4144,-3.3785,-3.3692,-3.2552,-3.1932,-3.1699,-3.1691,-3.1328,-3.0977,-3.2406,-3.2493,-3.2054,0.0,0.0,0.0,0.0,0.0,0.0,0.0,0.0,0.0,0.0,0.0,0.0,0.0,0.0,0.0,0.0,0.0,0.0,0.0,0.0,0.0,0.0,0.0,-2.3836,-2.6021,-2.6488,-2.787,-3.0305,-3.2837,-3.5637,-3.8569,-3.8116,0.0,0.0,0.0,0.0,0.0,0.0,0.0,0.0,-4.7111,-4.7416,-4.7077,0.0,0.0,0.0,0.0,0.0,0.0,0.0,-3.9066,-3.8118,-3.6448,-3.4718,-3.3158,-3.2352,-3.206,-3.2007,-3.2,-3.196,-3.2132,-3.307,-3.3316,-3.3565,-3.4503,-3.4671,-3.4852,-3.5728,-3.4574,-3.3142,-3.2262,0.0,0.0,0.0,0.0,0.0,0.0,0.0,0.0,0.0,0.0,0.0,0.0,0.0,0.0,0.0,0.0,0.0,0.0,0.0,0.0,0.0,0.0,0.0,0.0,-3.5659,-3.6164,-3.7084,-3.6209,-3.5799,-3.5818,-3.5864,-3.5892,-3.5846,-3.4968,-3.4583,-3.4467,-3.2796,-3.1592,-3.0802,-3.0813,-3.081,-3.0919,-3.1796,-3.2074,-3.2136,0.0,0.0,0.0,0.0,0.0,0.0,0.0,0.0,0.0,0.0,0.0,0.0,0.0,0.0,0.0,0.0,0.0,0.0,0.0,0.0,0.0,0.0,0.0,0.0,0.0,0.0,-2.8006,-3.1283,-3.2411,-3.4245,0.0,0.0,0.0,-4.0196,0.0,0.0,0.0,0.0,0.0,0.0,-4.4669,-4.4741,-4.4647,0.0,0.0,0.0,0.0,0.0,0.0,0.0,0.0,0.0,-3.7026,-3.5538,-3.4062,-3.326,-3.2533,-3.2131,-3.2752,-3.2894,-3.3102,-3.3983,-3.471,-3.5269,-3.5556,-3.5606,-3.5656,0.0,-3.5096,-3.4043,-3.3183,0.0,0.0,0.0,0.0,0.0,0.0,0.0,0.0,0.0,0.0,0.0,0.0,0.0,0.0,0.0,0.0,0.0,0.0,0.0,0.0,0.0,0.0,0.0,0.0,0.0,-3.5844,-3.6106,-3.5907,-3.6126,-3.6697,-3.6102,-3.5528,-3.4931,-3.4061,-3.3721,-3.3668,-3.2562,-3.1943,-3.1718,-3.1703,-3.1336,-3.1044,-3.3093,-3.3451,-3.3122,0.0,0.0,0.0,0.0,0.0,0.0,0.0,0.0,0.0,0.0,0.0,-1.996,0.0,0.0,0.0,0.0,0.0,0.0,0.0,0.0,0.0,0.0,0.0,0.0,0.0,-2.5029,-2.739,0.0,0.0,0.0,0.0,0.0,0.0,-3.9779,0.0,-4.1791,0.0,0.0,0.0,0.0,-4.3525,-4.3626,-4.3572,0.0,0.0,0.0,0.0,0.0,0.0,0.0,0.0,0.0,-3.7298,-3.6043,-3.4782,-3.3653,-3.2945,-3.2711,-3.3578,-3.3579,-3.3637,-3.4843,-3.5298,-3.5527,-3.5877,0.0,0.0,0.0,0.0,-3.4544,0.0,0.0,0.0,0.0,0.0,0.0,0.0,0.0,0.0,0.0,0.0,0.0,0.0,0.0,0.0,0.0,0.0,0.0,0.0,0.0,0.0,0.0,0.0,0.0,0.0,0.0,0.0,-3.6241,-3.5943,-3.6258,-3.7063,-3.6234,-3.5379,-3.4534,-3.334,-3.2834,-3.2795,-3.2288,-3.206,-3.2065,-3.207,-3.1529,-3.1023,-3.3268,-3.3751,-3.3543,0.0,0.0,-1.4145,-1.5249,0.0,0.0,0.0,0.0,0.0,-1.9713,-1.9811,-1.9936,0.0,0.0,0.0,-2.0406,0.0,0.0,0.0,0.0,0.0,0.0,0.0,0.0,0.0,0.0,0.0,0.0,0.0,0.0,0.0,0.0,-3.8098,-3.9834,0.0,-4.0939,0.0,0.0,0.0,0.0,-4.2891,-4.3244,-4.3167,-4.2364,0.0,0.0,0.0,0.0,0.0,0.0,0.0,0.0,-3.722,-3.619,-3.5262,-3.3662,-3.3246,-3.3486,-3.4351,-3.3994,-3.3802,-3.5562,-3.5332,0.0,-3.5708,-3.5935,-3.5986,-3.5987,0.0,0.0,0.0,0.0,0.0,0.0,0.0,0.0,0.0,0.0,0.0,0.0,0.0,0.0,0.0,0.0,0.0,0.0,0.0,0.0,0.0,0.0,0.0,0.0,0.0,0.0,0.0,0.0,0.0,0.0,-3.6184,-3.6227,-3.6968,-3.6223,-3.5385,-3.4403,-3.2873,-3.218,-3.2123,-3.2123,-3.2123,-3.2104,-3.2026,-3.152,-3.1014,-3.2688,-3.3355,-3.3646,0.0,0.0,-1.4062,-1.489,0.0,0.0,0.0,0.0,-1.9712,-1.9763,-1.9842,-1.9936,-1.9984,-2.0173,0.0,-2.0476,-2.0484,0.0,0.0,0.0,0.0,0.0,0.0,0.0,0.0,0.0,0.0,0.0,0.0,0.0,0.0,0.0,0.0,-3.6972,0.0,-3.9181,0.0,0.0,0.0,-3.9275,-3.9524,-4.0019,-4.0603,-4.0408,-4.0721,0.0,0.0,0.0,0.0,0.0,0.0,0.0,-3.6311,-3.5654,-3.5214,-3.3596,-3.3167,-3.341,-3.4285,-3.3922,-3.3746,-3.5484,-3.5734,-3.5582,-3.5781,-3.582,-3.5864,-3.5903,0.0,0.0,0.0,0.0,0.0,0.0,0.0,0.0,0.0,0.0,0.0,0.0,0.0,0.0,0.0,0.0,0.0,0.0,0.0,0.0,0.0,0.0,0.0,0.0,0.0,0.0,-3.5698,-3.5757,-3.5881,0.0,-3.5947,-3.5976,-3.6151,-3.5923,-3.4996,-3.3569,-3.3192,-3.3031,-3.3012,-3.3018,-3.3018,-3.296,-3.2279,-3.1897,-3.1845,-3.2849,-3.3697,-3.4455,0.0,0.0,0.0,0.0,0.0,0.0,0.0,0.0,-1.8744,-1.8447,-1.8526,-1.865,-1.8736,-1.9273,0.0,0.0,-2.0269,-2.0488,0.0,0.0,0.0,0.0,0.0,0.0,0.0,0.0,0.0,0.0,0.0,0.0,0.0,0.0,0.0,-3.5693,0.0,-3.8035,0.0,0.0,-3.8313,-3.8414,-3.8473,-3.8769,-3.917,-3.9185,-3.9418,-3.9747,-3.9719,0.0,0.0,0.0,0.0,0.0,0.0,0.0,-3.522,-3.395,-3.3054,-3.2776,-3.4091,-3.3838,-3.3614,-3.5295,0.0,-3.5182,-3.5573,-3.533,-3.5166,0.0,0.0,0.0,0.0,0.0,0.0,0.0,0.0,0.0,0.0,0.0,0.0,0.0,0.0,0.0,0.0,0.0,0.0,0.0,0.0,0.0,0.0,0.0,0.0,0.0,0.0,0.0,-3.6948,-3.6173,-3.6006,-3.642,-3.6078,-3.5905,-3.5872,-3.5431,-3.475,-3.3881,-3.3044,-3.3148,-3.3893,-3.3444,-3.3507,-3.3837,-3.3375,-3.2936,-3.2679,-3.3502,-3.3879,-3.4128,0.0,0.0,0.0,0.0,0.0,0.0,0.0,0.0,0.0,-1.6556,-1.6725,-1.6996,-1.7302,-1.8275,-1.8984,0.0,0.0,0.0,-2.0492,0.0,0.0,0.0,0.0,0.0,0.0,0.0,0.0,0.0,0.0,0.0,0.0,0.0,0.0,-3.4958,0.0,0.0,0.0,0.0,-3.7812,-3.7936,-3.8014,-3.8137,-3.8278,-3.8285,-3.8331,-3.8429,-3.8512,-3.8458,-3.8267,-3.8052,0.0,0.0,0.0,0.0,-3.5168,-3.4159,-3.2921,-3.2202,-3.3546,-3.3583,-3.3596,-3.5044,-3.4943,0.0,-3.5271,-3.4886,-3.4578,0.0,0.0,0.0,0.0,0.0,0.0,0.0,0.0,0.0,0.0,0.0,0.0,0.0,0.0,0.0,0.0,0.0,0.0,0.0,0.0,0.0,0.0,0.0,0.0,0.0,0.0,-3.6619,-3.8054,-3.6706,-3.6315,-3.688,-3.6202,-3.5898,-3.5872,-3.5151,-3.4736,-3.4522,-3.309,-3.3271,-3.4535,-3.3743,-3.3843,-3.4503,-3.4496,-3.407,-3.3505,-3.4216,-3.4156,-3.3891,0.0,0.0,0.0,0.0,0.0,0.0,0.0,0.0,0.0,0.0,-1.5284,-1.5956,-1.701,-1.819,-1.8979,-1.9173,-1.9999,-2.0506,0.0,0.0,0.0,0.0,0.0,0.0,0.0,0.0,0.0,0.0,0.0,-2.7036,-2.9374,-3.1045,-3.2493,-3.378,0.0,0.0,0.0,0.0,-3.5871,-3.6075,-3.6197,-3.6703,-3.7381,-3.7438,-3.7887,-3.8546,-3.9,-3.8793,-3.82,-3.7607,-3.7212,0.0,0.0,0.0,0.0,-3.3349,-3.2776,-3.2551,-3.2107,-3.2909,-3.407,0.0,-3.5066,-3.5094,0.0,0.0,0.0,0.0,0.0,0.0,0.0,0.0,0.0,0.0,0.0,0.0,0.0,0.0,0.0,0.0,0.0,0.0,0.0,0.0,0.0,0.0,0.0,0.0,0.0,0.0,-3.6002,-3.6856,-3.685,0.0,-3.7172,-3.7014,-3.662,-3.5959,-3.5924,-3.5891,-3.5908,-3.5774,-3.5301,-3.458,-3.4348,-3.438,-3.4588,-3.44,-3.4387,-3.4503,-3.4496,-3.442,-3.4323,-3.44,-3.4817,-3.5418,0.0,0.0,0.0,0.0,0.0,0.0,0.0,0.0,0.0,0.0,0.0,-1.328,-1.456,-1.6734,-1.8202,-1.841,-1.9686,0.0,0.0,0.0,0.0,0.0,0.0,0.0,0.0,0.0,0.0,0.0,0.0,-2.5409,-2.7784,-2.945,-3.1563,-3.3977,0.0,0.0,0.0,0.0,-3.5445,-3.56,-3.5767,-3.6391,-3.7157,-3.6738,-3.7075,-3.7745,-3.7487,-3.7175,-3.6832,-3.6469,-3.6245,-3.5945,-3.4952,0.0,0.0,0.0,-3.2344,-3.2044,-3.208,-3.3236,-3.4503,0.0,-3.4851,-3.4888,-3.4962,0.0,0.0,0.0,0.0,0.0,0.0,0.0,0.0,0.0,0.0,0.0,0.0,0.0,0.0,0.0,0.0,0.0,0.0,0.0,0.0,0.0,0.0,0.0,0.0,-3.5145,-3.6037,-3.6861,-3.6966,0.0,-3.7724,-3.7316,-3.6686,-3.5859,-3.5897,-3.5894,-3.5899,-3.5894,-3.5694,-3.5293,-3.4815,-3.4879,-3.5295,-3.4734,-3.4777,-3.5175,-3.5136,-3.5136,-3.5156,-3.5093,-3.5027,-3.503,0.0,0.0,0.0,0.0,0.0,0.0,0.0,0.0,0.0,0.0,0.0,-1.0567,-1.2412,0.0,0.0,0.0,-1.9471,0.0,0.0,0.0,0.0,0.0,0.0,0.0,0.0,0.0,0.0,0.0,-2.2361,-2.4425,-2.7036,-2.873,-3.121,-3.4231,-3.4648,-3.488,0.0,0.0,-3.5609,-3.5801,-3.6021,-3.6543,-3.7184,-3.703,-3.72,-3.7383,-3.6294,0.0,0.0,0.0,0.0,0.0,0.0,0.0,0.0,0.0,0.0,-3.1153,-3.1858,0.0,-3.4067,-3.4164,-3.433,-3.4526,0.0,0.0,0.0,0.0,0.0,0.0,0.0,0.0,0.0,0.0,0.0,0.0,0.0,0.0,0.0,0.0,0.0,0.0,0.0,0.0,0.0,0.0,0.0,0.0,-3.4257,-3.516,-3.6052,-3.6895,-3.6996,-3.7444,-3.8326,-3.7528,-3.6708,-3.5897,-3.5894,-3.5909,-3.5914,-3.5909,-3.5904,-3.5855,-3.5204,-3.5307,-3.584,-3.5105,-3.5166,-3.5699,-3.5635,-3.5635,-3.5676,-3.5628,-3.5214,-3.4795,0.0,0.0,0.0,0.0,0.0,0.0,0.0,0.0,0.0,0.0,0.0,-0.8528,-1.1784,-1.455,-1.664,-1.7788,-1.9492,0.0,0.0,0.0,0.0,0.0,0.0,0.0,0.0,0.0,0.0,0.0,-2.3029,-2.5217,-2.7865,-2.945,-3.1521,-3.4081,-3.501,-3.5089,-3.4506,0.0,-3.6243,-3.6562,-3.6823,-3.7034,-3.737,-3.8995,-3.9121,-3.8216,0.0,0.0,0.0,0.0,0.0,0.0,0.0,0.0,0.0,0.0,0.0,0.0,-3.0715,-3.146,0.0,-3.2693,-3.3475,0.0,0.0,0.0,0.0,0.0,0.0,0.0,0.0,0.0,0.0,0.0,0.0,0.0,0.0,0.0,0.0,0.0,0.0,0.0,0.0,0.0,0.0,0.0,0.0,0.0,-3.4241,-3.5129,-3.6024,-3.6975,-3.7055,-3.7508,-3.8382,-3.761,-3.6754,-3.5909,-3.5894,-3.5924,-3.5986,-3.5934,-3.5909,-3.5904,-3.5846,-3.5859,-3.5898,-3.5706,-3.567,-3.5699,-3.5635,-3.5601,-3.5601,-3.5596,-3.5565,-3.5546,0.0,0.0,0.0,0.0,0.0,0.0,0.0,0.0,0.0,0.0,0.0,0.0,0.0,-1.4054,-1.6478,-1.7725,-1.9472,0.0,0.0,0.0,0.0,0.0,0.0,0.0,0.0,0.0,0.0,-2.0356,-2.1408,-2.3011,-2.519,-2.73,-2.8851,-2.9998,-3.2688,-3.4211,-3.4715,-3.4598,0.0,-3.5834,-3.6677,-3.7428,-3.8103,-3.8739,-3.912,-3.9175,0.0,0.0,0.0,0.0,0.0,0.0,-3.4366,-3.4025,-3.362,-3.1648,-3.1203,-3.1224,0.0,0.0,0.0,-3.247,-3.279,-3.312,0.0,0.0,0.0,0.0,0.0,0.0,0.0,0.0,0.0,0.0,0.0,0.0,0.0,0.0,0.0,0.0,0.0,0.0,0.0,0.0,0.0,0.0,0.0,0.0,-3.3487,-3.436,-3.5272,-3.6203,-3.6811,-3.7261,-3.7624,-3.6787,-3.6226,-3.5958,-3.5962,-3.5986,-3.5994,-3.5986,-3.625,-3.6699,-3.6144,-3.5905,-3.5898,-3.5765,-3.5699,-3.5698,-3.5631,-3.5596,-3.5584,-3.5509,-3.5509,-3.5515,0.0,0.0,0.0,-0.2507,0.0,0.1621,0.2207,0.2296,0.1454,0.0,0.0,0.0,0.0,0.0,-1.7023,-1.8571,-1.9805,0.0,0.0,0.0,0.0,0.0,0.0,0.0,0.0,0.0,0.0,0.0,0.0,-2.2032,-2.377,-2.5807,-2.7243,-2.8188,-3.0525,-3.2566,0.0,0.0,0.0,-3.5767,0.0,-3.7844,-3.8564,0.0,-3.998,0.0,0.0,0.0,0.0,0.0,0.0,0.0,0.0,-3.3612,-3.2295,-3.0956,-3.0904,-3.1108,-3.0341,0.0,0.0,0.0,0.0,-3.2081,0.0,0.0,0.0,0.0,0.0,0.0,0.0,0.0,0.0,0.0,0.0,0.0,0.0,0.0,0.0,0.0,0.0,0.0,0.0,0.0,0.0,0.0,0.0,0.0,-3.3023,-3.4196,-3.5282,-3.6218,-3.7106,-3.7449,-3.7205,-3.6626,-3.6231,-3.6001,-3.6001,-3.6004,-3.601,-3.6001,-3.6438,-3.7152,-3.6273,-3.6067,-3.6307,-3.5881,-3.5708,-3.5697,-3.5608,-3.556,-3.5547,-3.5441,-3.5422,-3.5463,-1.1291,-0.9354,-0.7221,-0.4346,-0.1873,-0.0056,0.062,0.0498,-0.0285,-0.1965,0.0,0.0,0.0,0.0,0.0,-2.0359,0.0,0.0,0.0,0.0,0.0,0.0,0.0,0.0,0.0,0.0,0.0,0.0,0.0,0.0,0.0,0.0,-2.6944,-2.8965,-2.8778,-3.027,-3.3032,0.0,-3.6065,-3.6466,0.0,-3.8322,-3.8727,0.0,0.0,0.0,-4.1097,-4.0506,0.0,-3.8723,0.0,0.0,0.0,-3.286,-2.9795,-2.9738,-2.9645,-2.949,0.0,0.0,0.0,0.0,0.0,0.0,0.0,0.0,0.0,0.0,0.0,0.0,0.0,0.0,0.0,0.0,0.0,0.0,0.0,0.0,0.0,0.0,0.0,0.0,0.0,0.0,0.0,0.0,0.0,-3.287,-3.2987,-3.4737,-3.6154,-3.7043,-3.7968,-3.8043,-3.7175,-3.7156,-3.6762,-3.6005,-3.603,-3.601,-3.6003,-3.6035,-3.6469,-3.7191,-3.6309,-3.6436,-3.7163,-3.6115,-3.5707,-3.5678,-3.5546,-3.5496,-3.5502,-3.5422,-3.5412,-3.5379,-1.3573,-1.211,-1.0313,-0.7825,-0.5913,-0.4429,-0.3505,-0.3524,-0.4374,0.0,0.0,0.0,-1.418,-1.7489,-2.0065,0.0,0.0,0.0,0.0,0.0,0.0,0.0,0.0,0.0,0.0,0.0,0.0,0.0,0.0,0.0,0.0,0.0,0.0,-2.5867,-2.7925,-2.9447,-3.0557,-3.1939,0.0,0.0,-3.6289,-3.7654,0.0,0.0,0.0,0.0,0.0,-4.0491,-3.9653,0.0,-3.8199,-3.6556,0.0,0.0,-3.2241,-3.0845,-3.0469,-3.0337,-2.9453,0.0,0.0,0.0,0.0,0.0,0.0,0.0,0.0,0.0,0.0,0.0,0.0,0.0,0.0,0.0,0.0,0.0,0.0,0.0,0.0,0.0,0.0,0.0,0.0,0.0,0.0,0.0,0.0,-3.1607,-3.2929,-3.5359,-3.6553,-3.6242,-3.7088,-3.7156,-3.6336,-3.6325,-3.6216,-3.6009,-3.6632,-3.661,-3.6023,-3.664,-3.739,-3.8088,-3.7225,-3.7313,-3.7941,-3.6347,-3.5658,-3.5623,-3.5589,-3.5528,-3.5488,-3.5427,-3.5412,-3.5379,-1.6466,-1.5537,-1.4218,-1.1816,-1.0256,-0.913,-0.8483,-0.817,-0.8692,0.0,0.0,0.0,-1.8142,-2.0224,-2.1729,0.0,0.0,0.0,0.0,0.0,0.0,-2.1821,-2.1809,-2.1356,0.0,0.0,0.0,0.0,0.0,0.0,0.0,0.0,0.0,0.0,-2.6367,-2.7901,-2.9138,-2.9883,0.0,0.0,-3.6319,0.0,0.0,-4.0054,-4.0663,0.0,0.0,0.0,-4.0244,-4.0205,-3.8791,0.0,0.0,-3.3707,-3.3053,-3.0922,-3.0808,-3.1162,-3.0049,-3.0226,0.0,0.0,0.0,0.0,0.0,0.0,0.0,0.0,0.0,0.0,0.0,0.0,0.0,0.0,0.0,0.0,0.0,0.0,0.0,0.0,0.0,0.0,0.0,0.0,0.0,0.0,-2.9302,-3.1849,-3.4042,-3.6384,-3.7272,-3.647,-3.7297,-3.7354,-3.6548,-3.6184,-3.5994,-3.6015,-3.6502,-3.6482,-3.6011,-3.6534,-3.7207,-3.7964,-3.7435,-3.7442,-3.7785,-3.6723,-3.6028,-3.5635,-3.562,-3.556,-3.5482,-3.5393,-3.5364,-3.535,0.0,-1.9182,-1.8345,-1.6113,-1.4878,-1.4145,-1.4041,-1.3439,-1.353,0.0,0.0,0.0,0.0,0.0,0.0,0.0,0.0,0.0,0.0,0.0,0.0,-2.1977,-2.1947,-2.1482,-2.0527,0.0,0.0,0.0,0.0,0.0,0.0,0.0,0.0,0.0,-2.4631,-2.6108,-2.8263,0.0,0.0,-3.4089,-3.6803,-3.815,0.0,0.0,-4.1015,0.0,-4.1097,-4.1061,-4.0986,-4.0871,-3.9354,0.0,0.0,-3.402,-3.3201,-3.0921,-3.1185,0.0,-3.0946,-3.114,0.0,0.0,0.0,0.0,-2.9636,-2.9045,0.0,0.0,0.0,0.0,0.0,0.0,0.0,0.0,0.0,0.0,0.0,0.0,0.0,0.0,0.0,0.0,0.0,0.0,0.0,-2.5168,-2.9378,-3.3006,-3.5655,-3.7362,-3.7891,-3.7082,-3.7906,-3.7979,-3.7164,-3.6387,-3.5995,-3.5994,-3.6093,-3.6094,-3.5996,-3.6093,-3.6576,-3.7304,-3.732,-3.7264,-3.7111,-3.7203,-3.6638,-3.5678,-3.562,-3.556,-3.5489,-3.536,-3.5373,-3.5419,-2.2768,-2.1872,-2.101,-2.0416,-1.9991,-1.9777,-1.9846,-1.9863,-2.0267,-2.1369,0.0,0.0,-2.6746,0.0,0.0,0.0,0.0,0.0,0.0,0.0,-2.3769,-2.2873,-2.2849,-2.2148,-2.0605,-2.0971,0.0,0.0,0.0,0.0,0.0,0.0,0.0,0.0,-2.4592,-2.5634,-2.665,0.0,0.0,-3.2501,-3.4508,0.0,-3.957,-3.9974,-4.0546,-4.1107,-4.1094,-4.105,-4.0875,0.0,-3.941,-3.8604,0.0,0.0,0.0,-3.411,0.0,-3.2987,-3.1849,-3.2085,-3.2189,-3.0394,0.0,0.0,0.0,-2.823,0.0,0.0,0.0,0.0,0.0,0.0,0.0,0.0,0.0,0.0,0.0,0.0,0.0,0.0,0.0,0.0,0.0,0.0,-2.125,-2.5096,-3.0016,-3.3701,-3.5696,-3.6839,-3.7064,-3.6257,-3.7028,-3.707,-3.6268,-3.6085,-3.6003,-3.6007,-3.6712,-3.6675,-3.6015,-3.6738,-3.7147,-3.7335,-3.7978,-3.783,-3.7221,-3.787,-3.715,-3.5618,-3.5615,-3.5565,-3.5488,-3.5474,-3.5806,-3.6265,-2.5271,-2.532,-2.5271,-2.4688,-2.4837,-2.4926,-2.4549,-2.4293,-2.4506,-2.5473,0.0,0.0,0.0,0.0,0.0,0.0,0.0,0.0,0.0,0.0,-2.5113,-2.3808,-2.3336,-2.2694,-2.1826,-2.1243,0.0,0.0,0.0,0.0,0.0,0.0,0.0,0.0,0.0,-2.5837,-2.7349,0.0,-3.0497,-3.205,-3.4322,0.0,-3.922,-3.9719,-4.039,-4.1101,-4.11,-4.1039,-4.079,-3.9827,-3.9148,0.0,0.0,-3.6597,-3.6099,0.0,-3.4489,-3.4484,0.0,-3.3059,-3.321,-3.1558,0.0,0.0,0.0,0.0,0.0,0.0,0.0,0.0,0.0,0.0,0.0,0.0,0.0,0.0,0.0,0.0,0.0,0.0,0.0,0.0,0.0,0.0,-2.1346,-2.6882,-3.0537,-3.348,-3.5735,-3.6679,-3.6797,-3.6015,-3.6772,-3.6804,-3.5955,-3.5942,-3.5958,-3.5968,-3.6423,-3.6428,-3.6007,-3.6442,-3.664,-3.6716,-3.7992,-3.7792,-3.6645,-3.7929,-3.7354,-3.5679,-3.5629,-3.555,-3.5489,-3.5455,-3.5902,-3.6498,-2.7698,-2.8531,-2.9195,-2.8529,-2.8967,-2.9221,-2.8656,-2.8126,-2.8058,0.0,0.0,0.0,0.0,0.0,0.0,0.0,0.0,0.0,0.0,0.0,0.0,-2.4976,-2.3901,-2.3338,-2.3269,-2.1562,0.0,0.0,0.0,0.0,0.0,0.0,0.0,0.0,0.0,0.0,0.0,0.0,0.0,-3.2031,0.0,-3.645,-3.8166,-3.9426,-4.0292,-4.087,-4.1028,-4.1003,-4.0751,-3.982,0.0,-3.8141,-3.703,-3.6706,0.0,0.0,0.0,0.0,0.0,0.0,0.0,0.0,0.0,-3.0586,0.0,0.0,0.0,-2.652,0.0,0.0,0.0,0.0,0.0,0.0,0.0,0.0,0.0,0.0,0.0,0.0,0.0,0.0,0.0,0.0,-2.1979,-2.8103,-3.0467,-3.2809,-3.5513,-3.6428,-3.6601,-3.5996,-3.6598,-3.6582,-3.589,-3.588,-3.588,-3.5899,-3.5947,-3.5997,-3.6007,-3.6001,-3.5992,-3.6093,-3.7826,-3.7575,-3.6048,-3.7795,-3.7436,-3.5799,-3.5669,-3.5566,-3.5502,-3.5641,-3.6117,-3.6766,-3.0664,-3.0433,-3.0716,-3.1312,-3.1487,-3.1747,-3.2377,-3.2397,-3.2423,0.0,0.0,0.0,0.0,0.0,0.0,0.0,0.0,0.0,-2.9279,0.0,0.0,-2.6737,-2.5128,-2.4258,-2.4231,-2.2536,-2.1411,0.0,0.0,0.0,0.0,0.0,-2.1912,-2.2522,-2.4384,0.0,0.0,0.0,-3.0064,0.0,-3.3131,-3.4671,0.0,-3.8984,-3.9916,-4.0047,-4.0753,-4.0954,-4.0751,0.0,-3.9354,-3.8898,0.0,-3.7226,0.0,0.0,0.0,0.0,0.0,0.0,0.0,0.0,-3.1601,0.0,0.0,0.0,-2.764,-2.6201,0.0,0.0,0.0,0.0,0.0,0.0,0.0,0.0,0.0,0.0,0.0,0.0,0.0,0.0,0.0,0.0,0.0,-2.5978,-2.9004,-3.1852,-3.4601,-3.5566,-3.6001,-3.5904,-3.593,-3.5905,-3.5813,-3.5806,-3.584,-3.5897,-3.5917,-3.5938,-3.6009,-3.6001,-3.5994,-3.6087,-3.7772,-3.7543,-3.6124,-3.7805,-3.7469,-3.5884,-3.5736,-3.5618,-3.5591,-3.6369,-3.7064,-3.7761,-3.2641,-3.2684,-3.3271,-3.4087,-3.423,-3.451,-3.5344,-3.5918,-3.5889,0.0,0.0,0.0,0.0,0.0,0.0,0.0,0.0,-3.2254,0.0,0.0,0.0,-2.7815,-2.6574,-2.5898,-2.5842,-2.4174,-2.3101,0.0,-2.176,0.0,0.0,0.0,-2.2511,-2.334,-2.5333,0.0,-2.7569,0.0,0.0,0.0,0.0,0.0,0.0,-3.7907,-3.9676,-4.0539,-4.0824,-4.0898,-4.069,0.0,-3.9039,0.0,0.0,0.0,0.0,0.0,0.0,0.0,0.0,0.0,0.0,0.0,0.0,0.0,0.0,0.0,-2.6806,0.0,0.0,0.0,0.0,0.0,0.0,0.0,0.0,0.0,0.0,0.0,0.0,0.0,0.0,0.0,0.0,0.0,0.0,0.0,0.0,-3.0325,-3.3672,-3.4632,-3.53,-3.5779,-3.5726,-3.567,-3.5679,-3.5727,-3.5765,-3.5779,-3.5818,-3.5879,-3.5933,-3.5942,-3.5965,-3.6064,-3.7285,-3.7123,-3.6096,-3.7262,-3.7016,-3.5885,-3.5803,-3.5999,-3.6354,-3.6678,-3.7565,-3.8649,-3.5385,-3.5498,-3.596,-3.6534,-3.6637,-3.6855,-3.7469,-3.8085,-3.804,0.0,0.0,0.0,-3.8082,-3.7429,0.0,0.0,-3.6281,-3.4752,0.0,0.0,-3.0972,-2.975,-2.8196,0.0,0.0,-2.5735,-2.4492,-2.3976,-2.281,0.0,0.0,0.0,0.0,-2.3897,0.0,-2.7476,-2.8426,0.0,0.0,-3.1443,-3.3044,-3.4039,-3.4859,-3.7348,-3.9253,-4.0668,-4.0839,-4.0859,-4.066,-3.9714,-3.8948,0.0,-3.88,0.0,0.0,0.0,0.0,0.0,-3.4977,0.0,0.0,0.0,0.0,0.0,0.0,0.0,0.0,0.0,0.0,0.0,0.0,0.0,0.0,0.0,0.0,0.0,0.0,0.0,0.0,0.0,0.0,0.0,0.0,0.0,0.0,0.0,0.0,0.0,-3.2374,-3.376,-3.47,-3.5311,-3.5446,-3.5546,-3.5574,-3.5615,-3.5648,-3.5669,-3.5735,-3.5803,-3.5866,-3.5869,-3.5908,-3.6018,-3.6911,-3.6816,-3.6066,-3.6891,-3.6692,-3.5889,-3.5846,-3.6295,-3.6936,-3.6856,-3.7679,-3.89,-3.9548,-3.904,0.0,0.0,0.0,-3.8502,-3.8453,-3.8473,-3.8498,0.0,0.0,0.0,0.0,0.0,0.0,0.0,0.0,-3.7728,-3.5946,0.0,-3.3297,-3.3244,-3.0034,-2.8613,0.0,0.0,-2.5174,-2.4186,-2.3111,0.0,0.0,0.0,0.0,0.0,-2.6045,-2.7357,-2.7797,-3.0497,-3.2227,-3.3218,-3.4231,-3.582,-3.7572,0.0,-3.855,-3.984,-4.0615,0.0,0.0,-3.9727,-3.9328,0.0,0.0,0.0,0.0,0.0,0.0,0.0,0.0,0.0,0.0,-3.1776,0.0,0.0,0.0,0.0,-2.7605,0.0,0.0,0.0,0.0,0.0,0.0,-2.3323,0.0,0.0,0.0,0.0,0.0,0.0,0.0,0.0,0.0,0.0,0.0,0.0,0.0,0.0,-3.0528,-3.2996,-3.432,-3.433,-3.4979,-3.5374,-3.5496,-3.5502,-3.5531,-3.5588,-3.5669,-3.5736,-3.5799,-3.5806,-3.5839,-3.597,-3.6882,-3.6816,-3.6072,-3.6938,-3.6739,-3.5904,-3.5897,-3.6397,-3.7083,-3.6936,-3.7379,-3.8161,0.0,0.0,0.0,0.0,0.0,-3.8977,-4.0049,-4.1206,0.0,0.0,0.0,0.0,0.0,0.0,-4.0662,0.0,0.0,-3.8475,-3.6157,-3.5447,0.0,0.0,0.0,-3.1269,0.0,0.0,-2.806,-2.5995,-2.496,0.0,0.0,0.0,0.0,0.0,0.0,-2.7428,0.0,0.0,0.0,0.0,0.0,-3.5425,-3.6587,0.0,0.0,-3.9031,-4.0401,-4.0859,0.0,-4.0435,-4.0301,-4.0127,-3.9138,-3.7958,-3.6881,-3.6547,-3.593,0.0,0.0,0.0,-3.4055,-3.2619,0.0,0.0,0.0,0.0,0.0,0.0,0.0,0.0,0.0,0.0,0.0,-2.2771,0.0,0.0,0.0,0.0,0.0,0.0,0.0,0.0,0.0,0.0,0.0,0.0,0.0,0.0,0.0,-3.1923,-3.3493,-3.4026,-3.4779,-3.5203,-3.53,-3.535,-3.5422,-3.5534,-3.5612,-3.5669,-3.5736,-3.5772,-3.5839,-3.5927,-3.6284,-3.6264,-3.6015,-3.6323,-3.625,-3.5966,-3.5928,-3.6034,-3.6293,-3.6793,-3.7808,-3.9031,-4.1964,0.0,0.0,0.0,0.0,0.0,0.0,0.0,0.0,0.0,-4.32,0.0,-4.4071,0.0,-4.1699,0.0,-4.0977,-3.9476,-3.7477,-3.6784,0.0,-3.484,-3.3905,0.0,0.0,0.0,-2.9677,-2.7363,0.0,-2.5461,0.0,0.0,0.0,0.0,0.0,-2.7716,-2.8892,0.0,-3.2233,0.0,0.0,-3.5412,0.0,0.0,-3.7435,0.0,0.0,-4.0869,-4.0712,-3.9879,-3.983,-3.9998,-3.9152,-3.779,-3.6534,-3.6537,-3.5774,-3.4927,-3.487,-3.4691,0.0,0.0,-3.155,0.0,0.0,0.0,0.0,0.0,0.0,0.0,0.0,0.0,0.0,0.0,0.0,0.0,0.0,0.0,0.0,0.0,0.0,0.0,0.0,0.0,-1.9347,-2.191,0.0,0.0,0.0,0.0,-3.2501,-3.3369,-3.4464,-3.5054,-3.516,-3.5209,-3.5308,-3.5427,-3.5547,-3.5623,-3.5659,-3.5752,-3.5833,-3.5909,-3.5955,-3.5982,-3.6015,-3.6327,-3.6452,-3.6446,-3.6723,-3.6599,-3.6316,-3.6474,-3.756,-3.9077,0.0,0.0,0.0,0.0,-4.3729,0.0,0.0,0.0,-4.3729,0.0,-4.3786,-4.4095,-4.4974,-4.3505,-4.2795,-4.3629,-4.2112,0.0,-3.9857,-3.8275,0.0,0.0,-3.4883,-3.3513,-3.3467,0.0,0.0,0.0,0.0,0.0,0.0,0.0,0.0,0.0,-2.7278,0.0,-2.8481,-3.1783,-3.3254,-3.3515,-3.5212,-3.5866,-3.5799,-3.5807,0.0,-3.7683,-3.9869,-4.0743,-4.0539,-3.8117,-3.7989,-3.8737,-3.8209,-3.7368,-3.66,-3.6543,-3.5823,-3.5001,-3.5001,-3.4849,-3.4207,-3.2191,0.0,0.0,0.0,0.0,-2.8535,0.0,0.0,0.0,0.0,0.0,0.0,0.0,0.0,0.0,0.0,0.0,0.0,0.0,0.0,0.0,0.0,-1.9403,-1.9876,-2.2309,-2.2519,0.0,0.0,0.0,0.0,-3.2439,-3.4037,-3.4965,-3.5075,-3.5089,-3.5155,-3.53,-3.5509,-3.5589,-3.5607,-3.5747,-3.5834,-3.5911,-3.589,-3.5949,-3.607,-3.6933,-3.7255,-3.7285,-3.8161,-3.7993,-3.7136,-3.6172,-3.6748,-3.8265,-4.3788,-4.4384,-4.4898,0.0,-4.4121,-4.3926,0.0,0.0,0.0,0.0,-4.5076,-4.4997,-4.5876,-4.4409,-4.3466,-4.3681,-4.2101,0.0,0.0,0.0,0.0,-3.7323,-3.6035,-3.5036,-3.4383,-3.3297,0.0,-2.9162,0.0,0.0,-2.5658,0.0,0.0,0.0,0.0,0.0,-2.9269,-3.0781,-3.253,-3.4363,-3.5392,-3.5823,0.0,0.0,-3.5902,-3.6232,-3.6832,-3.8681,-4.0343,-3.7139,-3.6253,-3.6537,-3.6939,-3.6877,-3.6522,-3.5787,-3.5329,-3.5053,-3.5001,-3.4849,-3.44,-3.316,-3.2019,-3.0786,0.0,0.0,0.0,0.0,0.0,0.0,0.0,0.0,0.0,0.0,0.0,0.0,0.0,0.0,0.0,0.0,0.0,0.0,0.0,-1.9804,-2.0253,-2.1999,-2.2903,0.0,0.0,0.0,0.0,-3.2107,-3.3882,-3.4809,-3.479,-3.4945,-3.5089,-3.5223,-3.5379,-3.5502,-3.5593,-3.5679,-3.5752,-3.5833,-3.588,-3.5939,-3.6066,-3.6933,-3.7299,-3.7354,-3.8174,-3.8324,-3.8054,-3.7696,-3.7406,-3.7527,-4.3791,0.0,0.0,-4.4648,0.0,0.0,-4.5449,0.0,0.0,-4.5605,-4.5292,0.0,-4.5683,-4.451,-4.3708,-4.3708,-4.2106,0.0,0.0,0.0,0.0,-3.7891,-3.6679,-3.5777,-3.5284,-3.4039,0.0,-3.0638,0.0,0.0,-2.6229,0.0,0.0,0.0,0.0,-2.8007,0.0,-3.1022,-3.3112,-3.5152,-3.5593,0.0,0.0,-3.5688,-3.5657,-3.5646,-3.5612,-3.6844,-3.817,-3.6228,-3.5566,-3.5637,-3.6045,-3.6152,-3.6003,-3.5426,-3.5209,-3.5141,-3.511,-3.4946,-3.4508,-3.32,-3.2198,-3.1136,-2.9625,-2.9137,-2.8802,0.0,0.0,0.0,0.0,0.0,0.0,0.0,0.0,0.0,0.0,0.0,0.0,0.0,0.0,0.0,0.0,-1.995,-2.0333,-2.1517,-2.2228,0.0,0.0,0.0,0.0,0.0,-3.3381,-3.4308,-3.4666,-3.483,-3.4983,-3.516,-3.5289,-3.543,-3.557,-3.5658,-3.5745,-3.5794,-3.5864,-3.5947,-3.6094,-3.7341,-3.785,-3.7912,-3.874,-3.9039,-3.8949,-3.885,-3.8476,-3.8279,-4.4032,0.0,0.0,0.0,0.0,0.0,0.0,-4.5566,0.0,-4.5156,0.0,-4.5176,-4.5176,-4.4297,-4.3691,-4.3691,0.0,-4.1094,-4.1108,-3.9647,-3.871,-3.8591,-3.7046,-3.6127,-3.5991,-3.439,0.0,0.0,0.0,0.0,-2.6732,0.0,0.0,0.0,0.0,0.0,0.0,-3.191,-3.4117,0.0,-3.566,-3.5688,-3.5679,-3.5623,-3.5589,-3.5596,-3.5509,-3.5495,-3.5474,-3.5457,-3.5482,-3.5493,-3.5493,-3.5446,-3.5398,-3.5324,-3.5258,-3.519,-3.5081,-3.4939,-3.4432,-3.2637,-3.2072,-3.1465,-2.9524,-2.9034,-2.8887,-2.8551,-2.8201,0.0,0.0,0.0,0.0,0.0,0.0,0.0,0.0,0.0,0.0,0.0,0.0,0.0,0.0,0.0,-2.0459,-2.1113,0.0,0.0,0.0,0.0,0.0,0.0,-3.2761,0.0,-3.4561,0.0,-3.4888,-3.5075,-3.5207,-3.5355,-3.5483,-3.5615,-3.5718,-3.5791,-3.5866,-3.5948,-3.6141,-3.7885,-3.8691,-3.8895,-3.9555,-3.9838,-3.9855,-3.9671,-3.9636,-3.9758,0.0,0.0,0.0,0.0,0.0,-4.5293,-4.6172,-4.5565,-4.5251,-4.5976,-4.6072,0.0,-4.6072,-4.4647,-4.3709,-4.3706,-4.2107,0.0,0.0,0.0,0.0,-3.8627,-3.7611,-3.6731,-3.6025,-3.5005,-3.3341,0.0,-2.9854,-2.8112,-2.5912,0.0,0.0,0.0,0.0,0.0,-3.134,-3.2589,0.0,-3.4632,-3.5325,-3.5631,-3.5628,-3.5596,-3.5604,-3.5591,-3.5528,-3.5427,-3.535,-3.5335,-3.5369,-3.5417,-3.535,-3.5412,-3.546,-3.5335,-3.53,-3.5132,-3.4416,-3.4143,-3.3675,-3.1917,-3.1414,-3.1065,-2.9851,-2.9474,-2.9312,-2.9038,-2.879,-2.8124,-2.6471,0.0,0.0,0.0,0.0,0.0,0.0,0.0,0.0,0.0,0.0,0.0,0.0,0.0,0.0,0.0,0.0,0.0,0.0,0.0,0.0,0.0,0.0,0.0,0.0,0.0,0.0,-3.4851,-3.5053,-3.5219,-3.5422,-3.5489,-3.5599,-3.5724,-3.584,-3.5943,-3.6141,-3.7885,-3.9413,-4.0591,-4.0024,-4.0233,-4.0766,-3.9967,-4.0107,-4.0655,0.0,0.0,0.0,0.0,0.0,0.0,0.0,-4.5642,0.0,-4.5625,-4.5232,-4.511,-4.5582,-4.4078,-4.3216,-4.3657,-4.2101,-4.1107,-4.1099,-3.991,-3.9012,-3.8561,-3.7311,0.0,-3.6018,-3.5152,-3.3854,-3.2143,-3.0825,-2.9308,0.0,-2.7162,-2.6933,-2.6947,0.0,-3.0064,0.0,0.0,0.0,-3.4904,-3.5379,-3.554,-3.5502,-3.5522,-3.5528,-3.5482,-3.5427,-3.535,-3.5304,-3.5335,-3.5383,-3.5398,-3.5364,-3.5412,-3.546,-3.533,-3.5023,-3.463,-3.4184,-3.3729,-3.3063,-3.1776,-3.1408,-3.11,-3.0136,-2.9801,-2.9644,-2.9418,-2.8883,-2.7877,-2.599,-2.441,0.0,0.0,0.0,0.0,0.0,0.0,0.0,0.0,0.0,0.0,0.0,0.0,0.0,0.0,0.0,0.0,0.0,0.0,0.0,0.0,0.0,0.0,0.0,0.0,0.0,-3.4793,-3.4963,-3.5171,-3.5402,-3.5477,-3.5588,-3.5763,-3.5859,-3.5914,-3.6087,-3.7823,-3.9551,-4.1066,-4.0642,-4.0738,-4.1042,-4.0545,-4.0614,-4.0935,0.0,-4.5876,0.0,0.0,-4.5683,0.0,0.0,-4.5855,-4.6051,-4.5371,-4.4684,-4.4503,-4.5208,-4.372,-4.2951,-4.3645,-4.2112,-4.1097,-4.1104,-3.9683,-3.8746,-3.8505,-3.7061,-3.6163,-3.5985,-3.5311,-3.4367,0.0,0.0,0.0,0.0,-2.8405,-2.8267,-2.8609,0.0,0.0,0.0,0.0,-3.4045,-3.5378,-3.5443,-3.5443,-3.5378,-3.5441,-3.5412,-3.5364,-3.5315,-3.5289,-3.5312,-3.5354,-3.5383,-3.5379,-3.5412,-3.546,-3.5474,-3.5393,-3.496,-3.4462,-3.4205,-3.3564,-3.2743,-3.1884,-3.1475,-3.1092,-3.0356,-3.008,-2.9889,-2.9517,-2.8499,-2.7214,-2.5614,-2.437,0.0,0.0,0.0,0.0,0.0,0.0,0.0,0.0,0.0,0.0,0.0,0.0,0.0,0.0,0.0,0.0,0.0,0.0,0.0,0.0,0.0,0.0,-3.2966,0.0,-3.4564,0.0,-3.4927,-3.5122,-3.5378,-3.5445,-3.5596,-3.5782,-3.5852,-3.6098,-3.6571,-3.8129,-3.9686,-4.1073,-4.0908,-4.0952,-4.1066,-4.0827,-4.0857,-4.0991,0.0,0.0,0.0,0.0,0.0,0.0,0.0,-4.6249,-4.6264,-4.619,-4.6106,-4.608,-4.6165,-4.4628,-4.3615,-4.3693,-4.21,-4.11,-4.1096,-4.0203,-3.9321,-3.8532,-3.7593,-3.6715,-3.5934,-3.5892,-3.4683,0.0,0.0,0.0,0.0,0.0,-2.8782,-3.0186,0.0,0.0,0.0,-3.3935,-3.4457,-3.5296,-3.533,-3.5311,-3.5296,-3.5315,-3.5315,-3.5315,-3.5308,-3.5293,-3.5312,-3.5312,-3.5304,-3.533,-3.546,-3.5493,-3.5507,-3.5554,-3.5521,-3.5302,-3.4496,-3.3688,-3.2879,-3.2077,-3.1236,-3.0569,-3.0481,-3.0367,-2.9992,-2.9082,-2.7533,-2.625,-2.5818,-2.452,-2.3435,0.0,0.0,0.0,0.0,0.0,0.0,0.0,0.0,0.0,0.0,0.0,0.0,0.0,0.0,0.0,0.0,0.0,0.0,0.0,0.0,-3.1726,-3.281,-3.3883,0.0,-3.4708,-3.4908,-3.5107,-3.5311,-3.5378,-3.5519,-3.5718,-3.5776,-3.6746,-3.8333,-3.9292,-4.0246,-4.1035,-4.0293,-4.0465,-4.0996,-4.0207,-4.0407,-4.1081,0.0,0.0,0.0,0.0,0.0,0.0,0.0,-4.63,-4.6117,-4.5592,-4.5514,-4.5528,-4.5522,-4.3957,-4.2912,-4.2919,-4.1793,-4.11,-4.11,-4.0257,-3.9343,-3.8488,-3.7634,-3.6776,-3.5852,-3.5914,-3.492,0.0,0.0,0.0,0.0,0.0,0.0,0.0,0.0,-3.2608,-3.3976,-3.3995,-3.4477,-3.5245,-3.5273,-3.5273,-3.5239,-3.5239,-3.5239,-3.5239,-3.5242,-3.5226,-3.5261,-3.5289,-3.53,-3.5315,-3.5412,-3.5468,-3.5509,-3.5579,-3.5253,-3.4698,-3.3867,-3.3044,-3.2241,-3.1382,-3.0897,-3.0625,-3.062,-3.0548,-3.0229,-2.9294,-2.7678,-2.609,-2.4927,-2.411,-2.3622,0.0,0.0,0.0,0.0,0.0,0.0,0.0,0.0,0.0,0.0,0.0,0.0,0.0,0.0,-2.1966,-2.2582,0.0,0.0,-2.8134,0.0,-3.1151,-3.2136,-3.3202,-3.4095,-3.4752,-3.4908,-3.5141,-3.535,-3.5432,-3.5878,-3.6592,-3.6625,-3.7356,-3.8569,-3.9445,-4.0006,-4.0348,-4.0546,-4.0819,-4.1068,-4.0704,-4.0792,-4.1094,-4.4101,0.0,-4.4882,0.0,-4.5917,-4.5916,-4.5915,-4.5709,-4.5304,-4.4696,-4.4598,-4.4696,-4.4961,-4.3435,-4.2494,-4.2724,-4.1713,-4.1058,-4.1078,-4.0221,-3.9298,-3.8432,-3.7598,0.0,-3.5791,-3.5826,-3.5106,-3.3619,-3.3627,0.0,0.0,0.0,0.0,0.0,-3.3144,-3.3528,-3.4247,-3.4315,-3.4661,-3.5164,-3.5231,-3.5212,-3.5124,-3.516,-3.516,-3.516,-3.5196,-3.5212,-3.5212,-3.5254,-3.5285,-3.5315,-3.5412,-3.5482,-3.5528,-3.5608,-3.5057,-3.4303,-3.3757,-3.2822,-3.1857,-3.1256,-3.0911,-3.0726,-3.0728,-3.0687,-3.03,-2.9187,-2.7523,-2.5828,-2.4331,-2.3732,-2.3423,0.0,0.0,0.0,0.0,0.0,0.0,0.0,0.0,-2.2025,0.0,0.0,0.0,0.0,0.0,-2.2779,-2.2652,0.0,0.0,0.0,0.0,0.0,0.0,0.0,-3.384,-3.4851,-3.5001,-3.5187,-3.5438,-3.577,-3.6387,-3.7202,-3.7702,-3.8291,-3.8956,-3.9825,-4.0174,-4.0242,-4.0857,-4.1113,-4.1131,-4.1103,-4.1097,-4.1091,-4.2422,-4.3125,-4.3984,-4.4861,-4.5019,-4.5018,-4.5019,-4.4288,-4.372,-4.3712,-4.3651,-4.3977,-4.4899,-4.3436,-4.2727,-4.3513,-4.1993,-4.0999,-4.0996,-4.0174,-3.9313,0.0,0.0,-3.6656,-3.5728,-3.5688,-3.5272,-3.4381,0.0,0.0,-3.2976,-3.2774,-3.3153,-3.3968,-3.3849,-3.427,-3.5105,-3.5091,-3.5092,-3.5092,-3.5092,-3.5075,-3.5001,-3.5075,-3.5057,-3.502,-3.5147,-3.52,-3.52,-3.5193,-3.5239,-3.5315,-3.546,-3.5541,-3.5616,-3.5687,-3.5137,-3.4512,-3.4574,-3.3329,-3.2016,-3.2065,-3.1438,-3.0801,-3.0808,-3.0751,-3.022,-2.8463,-2.672,-2.5234,-2.437,-2.3485,-2.2623,-2.1778,0.0,0.0,0.0,0.0,0.0,0.0,-2.165,-2.1887,-2.2092,0.0,0.0,0.0,0.0,0.0,0.0,0.0,0.0,-2.8814,-2.9803,0.0,-3.1893,-3.291,-3.394,-3.5001,-3.5124,-3.53,-3.5534,-3.6531,-3.7033,-3.7199,-3.8909,-3.9701,-3.9853,-4.0721,-4.1074,-4.1099,-4.1105,-4.113,-4.1191,-4.1112,-4.111,-4.1105,-4.3066,-4.3027,-4.3281,-4.4746,-4.4511,-4.4116,-4.4117,-4.3883,-4.368,-4.3646,-4.3091,-4.3052,-4.3948,-4.3013,-4.2422,0.0,-4.1618,-4.0943,0.0,-4.0636,-4.0072,-3.9196,-3.8315,-3.7411,-3.647,-3.5905,-3.5179,-3.426,0.0,0.0,0.0,-3.3528,-3.3903,-3.4759,-3.4674,-3.4754,-3.4963,-3.4908,-3.4908,-3.4908,-3.4945,-3.4983,-3.5001,-3.502,-3.5057,-3.5075,-3.5075,-3.5129,-3.52,-3.5193,-3.5239,-3.5315,-3.546,-3.5554,-3.5504,-3.4972,-3.4697,-3.4321,-3.3204,-3.2487,-3.1928,-3.1356,-3.1014,-3.0644,-3.0055,-2.8937,-2.7883,-2.7324,-2.6348,-2.5293,-2.4434,-2.396,-2.3612,-2.329,0.0,0.0,0.0,0.0,0.0,0.0,0.0,-2.2447,0.0,-2.3529,0.0,0.0,0.0,0.0,0.0,0.0,0.0,0.0,-2.9619,0.0,-3.2144,-3.311,-3.4127,-3.5155,-3.527,-3.5443,-3.5667,-3.6629,-3.7106,-3.7274,-3.9013,-3.9441,-3.9034,-4.0496,-4.075,-4.0262,-4.0871,-4.113,-4.1191,-4.1111,-4.1108,-4.1105,-4.2519,-4.2558,-4.2734,-4.3828,-4.3572,-4.3216,-4.3212,-4.2932,-4.2705,-4.2629,-4.2142,-4.2132,-4.3019,-4.2311,0.0,-4.2241,-4.1421,0.0,-4.0859,-4.0807,-4.0227,-3.9018,-3.8438,-3.7539,-3.6298,0.0,0.0,-3.4601,-3.4506,-3.445,-3.441,-3.4257,-3.447,-3.4981,-3.4908,-3.485,-3.4811,-3.4791,-3.4752,-3.4732,-3.4811,-3.4831,-3.4869,-3.4908,-3.4946,-3.4946,-3.4964,-3.502,-3.5127,-3.5176,-3.5044,-3.4865,-3.5007,-3.489,-3.4661,-3.4487,-3.4066,-3.3418,-3.2374,-3.1856,-3.1482,-3.0937,-3.0774,-3.0521,-2.96,-2.8014,-2.6719,-2.6695,-2.6037,-2.5176,-2.4311,-2.4022,-2.3785,-2.3392,0.0,0.0,0.0,0.0,0.0,0.0,0.0,0.0,0.0,-2.407,0.0,0.0,0.0,0.0,0.0,0.0,0.0,-2.7455,-2.9864,0.0,-3.2441,-3.3375,-3.4343,-3.5307,-3.5443,-3.5755,-3.6212,-3.682,-3.7323,-3.778,-3.9187,-3.9491,-3.9092,-4.0524,-4.0776,-4.034,-4.0892,-4.1131,-4.1191,-4.1151,-4.1129,-4.1105,-4.119,-4.1796,0.0,0.0,-4.2343,0.0,-4.231,-4.1616,-4.1109,-4.1091,-4.1023,-4.1321,-4.2194,-4.1451,-4.1218,-4.2024,0.0,0.0,0.0,-4.073,-3.9946,-3.8247,-3.8067,0.0,-3.5513,-3.5417,-3.5335,-3.5261,-3.5141,-3.5072,-3.5075,-3.4889,-3.4792,-3.4773,-3.4728,-3.4687,-3.4687,-3.4687,-3.4645,-3.4583,-3.4666,-3.4645,-3.4623,-3.4747,-3.4747,-3.4728,-3.485,-3.4927,-3.502,-3.5141,-3.4753,-3.4203,-3.4282,-3.3798,-3.3352,-3.4093,-3.3278,-3.2097,-3.2034,-3.1423,-3.08,-3.0784,-3.0693,-3.0325,-2.9311,-2.7782,-2.653,-2.6458,-2.5763,-2.4925,-2.4178,-2.3809,-2.3358,-2.2457,-2.2149,-2.1749,-2.0928,0.0,0.0,0.0,0.0,0.0,0.0,-2.4167,-2.4531,0.0,0.0,0.0,0.0,0.0,0.0,-2.8525,-3.0399,-3.1828,-3.2718,-3.3709,-3.4635,-3.5509,-3.5657,-3.6135,-3.6919,-3.7106,-3.761,-3.8384,-3.9447,-3.9814,-3.978,-4.0727,-4.1094,-4.1101,-4.111,-4.1132,-4.1191,-4.1191,-4.1151,-4.1107,0.0,0.0,-4.168,-4.2285,-4.1853,-4.1418,-4.1406,-4.1222,-4.1318,-4.1909,-4.1369,-4.1266,-4.2121,-4.1382,-4.0884,-4.1033,-4.092,-4.0792,-4.0718,-4.072,-4.0191,-3.9085,-3.8315,-3.7394,-3.6252,-3.5551,-3.5105,-3.5001,-3.4908,-3.4831,-3.479,-3.4689,-3.4647,-3.4647,-3.4583,-3.4539,-3.4539,-3.4495,-3.4473,-3.445,-3.4517,-3.4561,-3.4583,-3.4645,-3.4687,-3.4788,-3.4809,-3.4888,-3.502,-3.5141,-3.5155,-3.5004,-3.448,-3.38,-3.3122,-3.2714,-3.2362,-3.1942,-3.1285,-3.0956,-3.0784,-3.0735,-3.0089,-2.9226,-2.8206,-2.7082,-2.6174,-2.607,-2.5359,-2.4864,-2.5277,-2.461,-2.3864,-2.3546,-2.3326,-2.2936,-2.2117,0.0,0.0,0.0,-2.2593,-2.3346,-2.3947,-2.4684,-2.4934,0.0,0.0,0.0,0.0,0.0,-2.7243,-2.7892,-3.0286,-3.1969,-3.2833,-3.4434,-3.5383,-3.565,-3.5732,-3.5916,-3.6216,-3.7546,-3.759,-3.6752,-3.9565,-4.0047,-3.8935,-4.0464,-4.1099,-4.111,-4.1091,-4.1132,-4.1191,-4.1132,-4.1112,-4.109,-4.1717,-4.1484,-4.1328,-4.1738,-4.1405,-4.1103,-4.1091,-4.11,-4.1259,-4.1661,-4.1235,-4.1073,-4.1548,-4.1086,-4.073,-4.0694,-4.0725,-4.0732,-4.0668,-4.0626,-4.0015,-3.8677,-3.8095,-3.7206,-3.5885,-3.5337,-3.4982,-3.4849,-3.4771,-3.467,-3.4623,-3.4517,-3.4473,-3.4473,-3.4386,-3.4363,-3.4363,-3.4316,-3.4316,-3.4316,-3.434,-3.4386,-3.4473,-3.4495,-3.4583,-3.4727,-3.4768,-3.4907,-3.5056,-3.5176,-3.5036,-3.4718,-3.3975,-3.3248,-3.2499,-3.169,-3.1484,-3.1397,-3.0937,-3.0784,-3.0715,-3.0547,-2.9467,-2.8245,-2.7584,-2.634,-2.5255,-2.5069,-2.4558,-2.4265,-2.4635,-2.4052,-2.3455,-2.3294,-2.3124,-2.2729,-2.1914,-2.2056,0.0,-2.2236,-2.288,-2.3607,-2.4341,-2.4923,-2.5116,-2.4767,0.0,0.0,-2.4918,-2.5763,-2.6744,-2.7845,-3.0028,-3.1584,-3.2426,-3.4244,-3.5363,-3.5799,-3.5833,-3.6066,-3.6512,-3.7069,-3.7021,-3.6649,-3.8545,-3.9045,-3.8651,-4.0003,-4.0775,-4.1093,-4.1132,-4.1152,-4.121,-4.1562,-4.1697,-4.1751,-4.111,-4.1151,-4.1171,-4.1107,-4.1094,-4.1103,-4.1108,-4.11,-4.1078,-4.1003,-4.0935,-4.0888,-4.0877,-4.0761,-4.07,-4.0681,-4.0668,-4.0648,-4.0588,-4.0539,-3.9749,-3.8065,-3.7823,-3.6934,-3.5303,-3.5077,-3.4908,-3.4768,-3.4645,-3.4539,-3.445,-3.4316,-3.4269,-3.4245,-3.4197,-3.4173,-3.4148,-3.4173,-3.4173,-3.4173,-3.4173,-3.4221,-3.4293,-3.434,-3.4473,-3.4602,-3.4747,-3.4907,-3.5092,-3.5176,-3.4774,-3.407,-3.3332,-3.2604,-3.1845,-3.104,-3.0808,-3.0801,-3.0792,-3.0728,-3.0593,-3.0321,-2.9066,-2.7785,-2.7382,-2.6021,-2.4727,-2.4326,-2.4003,-2.3786,-2.3613,-2.3277,-2.2894,-2.2579,-2.2422,-2.2062,-2.1248,0.0,0.0,-2.2455,-2.2922,-2.3611,-2.4652,-2.4903,-2.51,-2.5318,-2.5401,0.0,0.0,-2.5699,-2.6495,-2.8067,-2.9685,-3.1093,-3.2292,-3.3835,-3.5051,-3.5919,-3.5919,-3.6299,-3.6991,-3.6387,-3.643,-3.7047,-3.7351,-3.7926,-3.8676,-3.9543,-4.0369,-4.1113,-4.1152,-4.1151,-4.1206,-4.2089,-4.2322,-4.2351,-4.1171,-4.1191,-4.1172,-4.1112,-4.109,-4.1101,-4.1097,-4.1091,-4.1078,-4.1003,-4.0936,-4.0877,-4.0818,-4.0745,-4.0681,-4.0615,-4.0545,-4.0554,-4.0607,-4.0539,-4.0018,-3.8946,-3.8132,-3.7185,-3.6065,-3.5247,-3.4768,-3.4645,-3.4539,-3.4409,-3.4245,-3.4173,-3.4074,-3.3972,-3.3998,-3.3998,-3.3947,-3.3998,-3.4023,-3.4023,-3.4023,-3.4099,-3.4221,-3.4221,-3.434,-3.4539,-3.4666,-3.481,-3.4964,-3.5193,-3.4808,-3.407,-3.3393,-3.2637,-3.1835,-3.1038,-3.0799,-3.0792,-3.0791,-3.0633,-3.0381,-3.0112,-2.9671,-2.9007,-2.7953,-2.727,-2.6548,-2.5558,-2.5042,-2.4711,-2.4538,-2.4228,-2.3698,-2.2754,-2.258,-2.2256,0.0,0.0,-2.2682,-2.2582,-2.3477,-2.41,-2.4044,-2.4377,-2.47,-2.4958,-2.5138,-2.5294,-2.5424,-2.6174,-2.7101,-2.8143,-2.9164,-3.1133,-3.414,-3.4514,-3.5123,-3.5985,-3.5985,-3.6069,-3.6213,-3.6811,-3.6758,-3.6261,-3.7745,-3.8471,-3.8669,-3.9548,-4.0371,-4.1092,-4.1112,-4.1112,-4.1208,-4.2085,-4.1929,-4.1539,-4.1149,-4.1171,-4.1172,-4.1111,-4.1093,-4.1101,-4.1109,-4.1111,-4.1084,-4.1003,-4.0935,-4.0869,-4.0818,-4.0745,-4.0494,-4.0003,-4.0288,-4.0303,-3.9858,-4.0194,-3.9976,-3.903,-3.8555,-3.7794,-3.6755,-3.5388,-3.4827,-3.5096,-3.4563,-3.4245,-3.4099,-3.4074,-3.3998,-3.3895,-3.3895,-3.3868,-3.386,-3.3868,-3.3921,-3.3947,-3.3998,-3.4074,-3.4148,-3.4221,-3.434,-3.4517,-3.4687,-3.4547,-3.4334,-3.4489,-3.4103,-3.3427,-3.2677,-3.2237,-3.184,-3.1042,-3.0761,-3.0724,-3.0659,-3.0463,-3.0222,-2.9912,-2.9268,-2.8476,-2.7661,-2.6844,-2.6046,-2.5181,-2.4697,-2.4284,-2.3965,-2.3654,-2.3234,-2.2569,-2.2518,0.0,0.0,-2.2485,-2.2981,-2.312,-2.383,-2.4365,-2.4575,-2.4647,-2.4801,-2.5148,-2.5456,-2.5707,-2.589,-2.6809,-2.7782,-2.8718,-3.0147,-3.1874,-3.3925,-3.4452,-3.5135,-3.5993,-3.601,-3.6009,-3.6011,-3.6417,-3.6378,-3.6049,-3.685,-3.7731,-3.8632,-3.9023,-3.9941,-4.111,-4.111,-4.1107,-4.1201,-4.2085,-4.2436,-4.2689,-4.1045,-4.115,-4.1171,-4.1105,-4.0879,-4.0709,-4.071,-4.0599,-4.0538,-4.0673,-4.0641,-4.0655,-4.0798,-4.0571,-4.0127,-3.945,-3.9665,-3.9663,-3.9202,-3.9674,-3.9737,-3.9204,-3.8898,-3.8241,-3.7186,-3.5841,-3.5231,-3.5435,-3.4785,-3.4284,-3.3947,-3.3947,-3.3895,-3.3834,-3.378,-3.3753,-3.3726,-3.378,-3.3807,-3.3842,-3.3921,-3.3998,-3.4099,-3.4221,-3.4228,-3.4252,-3.463,-3.4226,-3.3515,-3.3821,-3.3388,-3.2601,-3.2019,-3.1773,-3.1592,-3.0977,-3.0728,-3.0626,-3.0492,-3.0297,-3.0056,-2.968,-2.8834,-2.7952,-2.7457,-2.6543,-2.5588,-2.4774,-2.4414,-2.4076,-2.3407,-2.3191,-2.2954,-2.244,0.0,0.0,0.0,-2.2611,-2.3084,-2.3349,-2.3918,-2.4461,-2.4951,-2.4913,-2.5046,-2.5472,-2.5891,-2.6227,-2.6474,-2.745,-2.8462,-2.9457,-3.0988,-3.2309,-3.3378,-3.4054,-3.4937,-3.5992,-3.5996,-3.5996,-3.5996,-3.5995,-3.5994,-3.6014,-3.6209,-3.7186,-3.8613,-3.8828,-3.9764,-4.1107,-4.1105,-4.1101,-4.1211,-4.2082,-4.2824,-4.3544,-4.0894,-4.1151,-4.1172,-4.1111,-4.0228,-3.9532,-3.9531,-3.9053,-3.8959,-3.97,-3.973,-3.9976,-4.0721,-4.0029,-3.9438,-3.9326,-3.8508,-3.8314,-3.9061,-3.9049,-3.9338,-4.0062,-3.9077,-3.8064,-3.7136,-3.6868,-3.6273,-3.5303,-3.5266,-3.4737,-3.3815,-3.3815,-3.3753,-3.3615,-3.3633,-3.3577,-3.352,-3.3643,-3.3698,-3.3726,-3.3807,-3.3895,-3.4023,-3.4099,-3.3757,-3.3418,-3.4381,-3.3752,-3.265,-3.3662,-3.3019,-3.1806,-3.1867,-3.1421,-3.0875,-3.082,-3.0661,-3.049,-3.0353,-3.0125,-2.9836,-2.9416,-2.8938,-2.8413,-2.7875,-2.7395,-2.6676,-2.5247,-2.5176,-2.4997,-2.3693,-2.3894,-2.3825,-2.2667,0.0,0.0,-2.159,-2.2305,-2.2854,-2.2676,-2.3647,-2.4325,-2.4363,-2.4793,-2.5297,-2.5823,-2.6292,-2.6693,-2.7013,-2.8066,-2.9148,-3.0286,-3.0691,-3.1664,-3.3286,-3.3428,-3.4334,-3.5994,-3.6007,-3.5991,-3.6007,-3.5994,-3.5995,-3.6032,-3.6854,-3.7733,-3.8651,-3.9471,-4.0328,-4.1107,-4.1101,-4.1099,-4.1214,-4.2087,-4.2446,-4.2747,-3.9957,-3.9805,-3.9918,-4.0923,-4.0745,-4.0226,-3.9511,-3.916,-3.8967,-3.8902,-3.8871,-3.8965,-3.9228,-3.886,-3.8382,-3.7789,-3.7832,-3.7986,-3.8259,-3.8668,-3.9261,-4.0039,-3.9072,-3.8512,-3.8527,-3.6901,-3.6036,-3.6046,-3.4924,-3.4154,-3.3726,-3.3698,-3.3643,-3.3605,-3.3605,-3.3577,-3.3577,-3.3643,-3.3698,-3.3726,-3.3868,-3.3947,-3.3968,-3.3616,-3.3361,-3.3212,-3.3158,-3.2506,-3.1739,-3.2271,-3.1764,-3.0925,-3.1099,-3.0959,-3.0743,-3.0745,-3.0613,-3.0434,-3.0183,-2.992,-2.9606,-2.9153,-2.87,-2.8192,-2.7619,-2.7178,-2.659,-2.5491,-2.5137,-2.4784,-2.3866,-2.3701,-2.3492,-2.2936,0.0,-2.2702,-2.251,-2.2859,-2.3173,-2.3346,-2.4021,-2.4595,-2.4961,-2.5144,-2.545,-2.6043,-2.6552,-2.7027,-2.7448,-2.8738,-2.9684,-3.0209,-3.0965,-3.1977,-3.3297,-3.3852,-3.4754,-3.5938,-3.5939,-3.5968,-3.5991,-3.6005,-3.6009,-3.6046,-3.6928,-3.7788,-3.8667,-3.9543,-4.0361,-4.1101,-4.1097,-4.1094,-4.1133,-4.1465,-4.2271,-4.329,-3.9252,-3.8535,-3.8254,-3.9769,-4.0037,-3.9735,-3.8829,-3.8658,-3.8486,-3.8079,-3.7999,-3.8077,-3.8287,-3.7973,-3.7498,-3.6845,-3.6983,-3.7162,-3.7381,-3.8289,-3.9163,-3.9916,-3.8943,-3.8587,-3.8957,-3.7173,-3.6155,-3.6049,-3.4752,-3.3964,-3.3671,-3.3633,-3.3605,-3.3577,-3.3605,-3.3577,-3.3577,-3.3671,-3.3726,-3.3753,-3.3895,-3.3998,-3.3993,-3.3584,-3.3175,-3.2798,-3.2611,-3.1807,-3.0883,-3.1355,-3.1015,-3.0462,-3.063,-3.07,-3.0702,-3.0696,-3.0587,-3.04,-3.0023,-2.9744,-2.94,-2.8938,-2.8453,-2.7908,-2.7317,-2.6824,-2.6245,-2.5406,-2.5052,-2.4678,-2.4055,-2.3822,-2.3697,-2.3499,-2.336,-2.336,-2.3453,-2.3545,-2.3789,-2.4149,-2.4602,-2.5046,-2.5393,-2.5595,-2.5866,-2.6261,-2.688,-2.7471,-2.8058,-2.9158,-2.9964,-3.0403,-3.1187,-3.2235,-3.3567,-3.4233,-3.5003,-3.5872,-3.5899,-3.5919,-3.5966,-3.5965,-3.613,-3.6404,-3.7038,-3.7938,-3.9029,-3.9635,-4.0374,-4.1097,-4.1091,-4.1108,-4.1091,-4.1097,-4.2039,-4.3329,-3.8934,-3.7558,-3.6362,-3.7509,-3.7697,-3.7572,-3.7258,-3.7219,-3.721,-3.72,-3.7144,-3.7405,-3.819,-3.7531,-3.6942,-3.68,-3.5888,-3.5634,-3.6451,-3.787,-3.8999,-3.9747,-3.8761,-3.8134,-3.7988,-3.7848,-3.6906,-3.5101,-3.4962,-3.4457,-3.3605,-3.3605,-3.3549,-3.3491,-3.3577,-3.3549,-3.3491,-3.3643,-3.3753,-3.3807,-3.3868,-3.3972,-3.4099,-3.4099,-3.3217,-3.211,-3.2983,-3.1883,-3.0152,-3.1159,-3.1037,-3.0524,-3.0659,-3.0694,-3.0708,-3.0704,-3.0568,-3.0311,-2.9905,-2.955,-2.9198,-2.88,-2.8246,-2.7654,-2.7034,-2.6437,-2.5795,-2.5075,-2.502,-2.4894,-2.4325,-2.4542,-2.4687,-2.4276,-2.4212,-2.4212,-2.4212,-2.4326,-2.4525,-2.4946,-2.5301,-2.5515,-2.549,-2.6182,-2.659,-2.6538,-2.7272,-2.8047,-2.886,-2.9297,-3.0001,-3.1063,-3.1318,-3.2316,-3.418,-3.441,-3.4933,-3.5799,-3.5872,-3.5897,-3.5908,-3.5904,-3.6363,-3.7195,-3.7273,-3.8255,-3.9809,-3.9864,-4.0374,-4.1108,-4.1108,-4.1108,-4.1091,-4.1097,-4.167,-4.2534,-3.6886,-3.6465,-3.6304,-3.7258,-3.7426,-3.7396,-3.7289,-3.7749,-3.7888,-3.7278,-3.7663,-3.7852,-3.7423,-3.7121,-3.6651,-3.5939,-3.5542,-3.5599,-3.6307,-3.6652,-3.7171,-3.7954,-3.8064,-3.7823,-3.7161,-3.6396,-3.5725,-3.5237,-3.4468,-3.3936,-3.3671,-3.3615,-3.3605,-3.3577,-3.3643,-3.3643,-3.3661,-3.3726,-3.386,-3.3947,-3.4023,-3.4148,-3.426,-3.3747,-3.2978,-3.2164,-3.192,-3.1078,-3.0132,-3.0567,-3.0621,-3.0535,-3.0708,-3.0742,-3.0685,-3.0632,-3.0482,-3.0235,-2.9829,-2.9438,-2.9045,-2.8535,-2.8102,-2.7735,-2.7572,-2.7188,-2.6749,-2.6319,-2.5973,-2.5637,-2.5006,-2.4704,-2.4568,-2.4405,-2.4255,-2.414,-2.4162,-2.4341,-2.4603,-2.4946,-2.5316,-2.5742,-2.6174,-2.6714,-2.7315,-2.7794,-2.8313,-2.8827,-2.9347,-2.9863,-3.0365,-3.0885,-3.2257,-3.3337,-3.3983,-3.4241,-3.4827,-3.5726,-3.5807,-3.5838,-3.582,-3.5878,-3.6036,-3.6314,-3.6961,-3.7866,-3.8939,-3.9575,-4.032,-4.1097,-4.1108,-4.1091,-4.1097,-4.1097,-4.2041,-4.3353,-3.6007,-3.5995,-3.6171,-3.6695,-3.7077,-3.7184,-3.6843,-3.7753,-3.819,-3.7313,-3.7897,-3.8179,-3.7577,-3.7491,-3.7061,-3.6093,-3.5537,-3.5518,-3.6198,-3.6099,-3.6179,-3.6637,-3.6919,-3.6807,-3.6247,-3.5557,-3.5045,-3.4694,-3.4018,-3.3698,-3.3698,-3.3633,-3.3605,-3.3605,-3.3671,-3.3726,-3.3753,-3.3807,-3.3921,-3.4074,-3.4124,-3.4245,-3.4353,-3.393,-3.3325,-3.2656,-3.1936,-3.1236,-3.0638,-3.0463,-3.0501,-3.0646,-3.0753,-3.0751,-3.0682,-3.0587,-3.0411,-3.015,-2.9782,-2.9418,-2.8975,-2.8376,-2.7954,-2.7701,-2.7691,-2.7288,-2.6916,-2.6835,-2.6534,-2.6163,-2.5686,-2.5415,-2.532,-2.5488,-2.536,-2.5339,-2.5579,-2.5781,-2.5993,-2.6255,-2.6432,-2.6718,-2.725,-2.7465,-2.7865,-2.8628,-2.904,-2.9465,-2.9883,-3.0432,-3.0993,-3.1613,-3.2899,-3.3809,-3.4325,-3.4558,-3.4981,-3.5658,-3.5728,-3.5782,-3.5803,-3.584,-3.606,-3.6448,-3.6962,-3.7888,-3.9053,-3.9583,-4.0309,-4.1109,-4.1108,-4.1097,-4.1099,-4.1103,-4.1986,-4.3238,-3.5984,-3.5992,-3.5996,-3.5993,-3.6651,-3.6916,-3.6121,-3.7367,-3.8101,-3.7347,-3.7921,-3.8396,-3.8372,-3.8258,-3.7757,-3.6781,-3.571,-3.5378,-3.6045,-3.5943,-3.5816,-3.5679,-3.5466,-3.5317,-3.5266,-3.5135,-3.4659,-3.3807,-3.3753,-3.3698,-3.3698,-3.3661,-3.3633,-3.3633,-3.3698,-3.3753,-3.3815,-3.3895,-3.4023,-3.4221,-3.4221,-3.4293,-3.445,-3.4517,-3.4078,-3.3353,-3.2674,-3.2026,-3.1391,-3.067,-3.0586,-3.0791,-3.0801,-3.0749,-3.0664,-3.0527,-3.0314,-3.0037,-2.975,-2.9414,-2.9021,-2.8353,-2.7959,-2.7673,-2.767,-2.713,-2.6696,-2.704,-2.6919,-2.6658,-2.6421,-2.6535,-2.6705,-2.7073,-2.7116,-2.7272,-2.775,-2.7923,-2.8082,-2.8197,-2.8129,-2.8213,-2.8622,-2.8434,-2.8585,-2.9259,-2.9592,-2.9977,-3.0455,-3.0966,-3.1744,-3.2852,-3.3272,-3.3958,-3.4964,-3.5126,-3.5315,-3.5589,-3.5657,-3.5718,-3.5782,-3.5795,-3.6273,-3.7073,-3.7161,-3.8141,-3.9688,-3.977,-4.0305,-4.1096,-4.1111,-4.1099,-4.1101,-4.111,-4.1698,-4.2655,-3.587,-3.5993,-3.5996,-3.5993,-3.6159,-3.6228,-3.603,-3.684,-3.7507,-3.7571,-3.8071,-3.8551,-3.8965,-3.7938,-3.6814,-3.5862,-3.5369,-3.5114,-3.5173,-3.4953,-3.478,-3.4708,-3.4451,-3.4301,-3.4223,-3.4163,-3.4044,-3.3868,-3.3807,-3.378,-3.378,-3.378,-3.378,-3.386,-3.3842,-3.3895,-3.3947,-3.4023,-3.4148,-3.4269,-3.434,-3.4495,-3.4708,-3.4732,-3.4301,-3.3633,-3.2893,-3.2187,-3.148,-3.0851,-3.0711,-3.0799,-3.08,-3.0758,-3.0665,-3.0482,-3.0266,-3.0011,-2.9588,-2.9617,-2.9667,-2.9122,-2.9053,-2.9023,-2.8508,-2.7998,-2.7745,-2.8349,-2.8137,-2.7864,-2.7869,-2.7642,-2.753,-2.7897,-2.7826,-2.7811,-2.7952,-2.8082,-2.8254,-2.8553,-2.8855,-2.9188,-2.9705,-3.0133,-3.0593,-3.1083,-3.0564,-3.0474,-3.1009,-3.1488,-3.2038,-3.2723,-3.3626,-3.4352,-3.4849,-3.5039,-3.5226,-3.5435,-3.5565,-3.5626,-3.5649,-3.5745,-3.592,-3.6144,-3.6878,-3.7792,-3.8831,-3.9526,-4.0316,-4.1096,-4.1111,-4.1101,-4.1107,-4.109,-4.2089,-4.3633,-3.5286,-3.5718,-3.5995,-3.5993,-3.6007,-3.6001,-3.5994,-3.6703,-3.7355,-3.7663,-3.8116,-3.8396,-3.8399,-3.786,-3.7131,-3.6103,-3.5455,-3.502,-3.487,-3.4689,-3.4517,-3.4363,-3.4148,-3.3998,-3.3895,-3.3815,-3.3834,-3.3842,-3.3842,-3.386,-3.386,-3.386,-3.3868,-3.3947,-3.3921,-3.3972,-3.4099,-3.4099,-3.4197,-3.434,-3.4404,-3.4517,-3.4708,-3.4772,-3.4642,-3.4329,-3.3566,-3.2641,-3.1642,-3.0931,-3.0732,-3.0793,-3.0795,-3.0724,-3.0613,-3.0443,-3.0235,-2.9969,-2.957,-2.9724,-2.9872,-2.9372,-2.9421,-2.9524,-2.9177,-2.8718,-2.8498,-2.893,-2.8757,-2.8551,-2.8539,-2.8361,-2.8402,-2.8785,-2.877,-2.8754,-2.895,-2.9097,-2.9274,-2.9581,-2.9648,-2.9864,-3.0366,-3.1195,-3.1713,-3.1689,-3.1472,-3.1605,-3.2144,-3.2645,-3.316,-3.3579,-3.44,-3.4797,-3.4706,-3.487,-3.5054,-3.5254,-3.5457,-3.557,-3.5588,-3.5747,-3.6032,-3.646,-3.741,-3.8318,-3.9193,-4.0053,-4.0686,-4.1105,-4.1097,-4.1359,-4.1714,-4.1717,-4.2812,-4.451,-3.4679,-3.5405,-3.5995,-3.5993,-3.5991,-3.6007,-3.5994,-3.6606,-3.7145,-3.7379,-3.7751,-3.778,-3.7261,-3.7531,-3.7365,-3.6458,-3.5577,-3.5001,-3.4793,-3.4689,-3.4517,-3.4293,-3.4148,-3.3998,-3.3895,-3.3842,-3.3815,-3.3807,-3.3868,-3.3895,-3.3895,-3.3921,-3.3947,-3.4023,-3.3947,-3.4023,-3.4197,-3.4173,-3.4269,-3.4427,-3.4454,-3.4542,-3.4668,-3.4792,-3.4964,-3.4994,-3.4133,-3.289,-3.1584,-3.0945,-3.0755,-3.08,-3.0804,-3.0716,-3.0564,-3.0422,-3.0202,-2.9943,-2.972,-2.9924,-3.0083,-2.9758,-2.9839,-2.9971,-2.9905,-2.9378,-2.8957,-2.9213,-2.9113,-2.9021,-2.9124,-2.9124,-2.9256,-2.9682,-2.9753,-2.9894,-3.0258,-3.0477,-3.0675,-3.0802,-3.0602,-3.0588,-3.1047,-3.1953,-3.2385,-3.2034,-3.2345,-3.2764,-3.3303,-3.3916,-3.4343,-3.4576,-3.5091,-3.5107,-3.458,-3.4732,-3.4965,-3.5297,-3.5571,-3.5644,-3.5585,-3.5718,-3.6248,-3.7152,-3.8091,-3.8981,-3.9872,-4.074,-4.1105,-4.1097,-4.1101,-4.1636,-4.2438,-4.2734,-4.3768,-4.513,-3.4544,-3.5405,-3.5995,-3.5993,-3.6009,-3.6001,-3.6004,-3.6044,-3.6124,-3.6211,-3.6234,-3.6177,-3.606,-3.5927,-3.5765,-3.5515,-3.5202,-3.4945,-3.4812,-3.452,-3.4316,-3.4221,-3.4023,-3.3895,-3.3834,-3.3921,-3.3921,-3.3807,-3.3868,-3.3895,-3.3895,-3.3947,-3.4023,-3.4099,-3.4074,-3.4124,-3.4221,-3.4381,-3.4473,-3.4495,-3.4691,-3.4792,-3.4889,-3.5001,-3.5108,-3.4999,-3.3556,-3.2111,-3.084,-3.0794,-3.0792,-3.08,-3.0807,-3.0714,-3.0552,-3.0367,-3.0161,-3.0042,-3.0232,-3.0625,-3.0984,-3.108,-3.1355,-3.1418,-3.078,-2.9725,-2.9087,-2.9816,-2.957,-2.9516,-3.0316,-3.0272,-3.0159,-3.0395,-3.0901,-3.1185,-3.1161,-3.1651,-3.1907,-3.1652,-3.1677,-3.1967,-3.2469,-3.2554,-3.2756,-3.3154,-3.3134,-3.3345,-3.3852,-3.4386,-3.4654,-3.4503,-3.4916,-3.4907,-3.4427,-3.4691,-3.5249,-3.6139,-3.6345,-3.6113,-3.5509,-3.5658,-3.6221,-3.7148,-3.8031,-3.8936,-3.9872,-4.074,-4.1109,-4.1108,-4.1103,-4.1636,-4.2576,-4.4082,-4.4804,-4.513,-3.4539,-3.5013,-3.5271,-3.527,-3.4876,-3.4715,-3.5204,-3.5252,-3.5396,-3.5875,-3.5928,-3.5872,-3.5818,-3.5618,-3.5443,-3.5311,-3.5141,-3.502,-3.4927,-3.4628,-3.4427,-3.4316,-3.4074,-3.3947,-3.3921,-3.3921,-3.3921,-3.3921,-3.3972,-3.4023,-3.4023,-3.4074,-3.4124,-3.4148,-3.4197,-3.4245,-3.4316,-3.4404,-3.4495,-3.4561,-3.4668,-3.4752,-3.4794,-3.4488,-3.4437,-3.4332,-3.2863,-3.1951,-3.1365,-3.0938,-3.0797,-3.0797,-3.0755,-3.0639,-3.0519,-3.0344,-3.0424,-3.0541,-3.0514,-3.1109,-3.1692,-3.1564,-3.1756,-3.1765,-3.1123,-3.0543,-3.0145,-3.0132,-3.0354,-3.0637,-3.0819,-3.1264,-3.15,-3.1379,-3.1842,-3.2155,-3.1965,-3.2338,-3.247,-3.2226,-3.2477,-3.266,-3.2687,-3.2924,-3.3171,-3.3258,-3.3537,-3.3955,-3.4541,-3.5133,-3.551,-3.5616,-3.6121,-3.615,-3.5628,-3.5976,-3.6419,-3.6977,-3.7175,-3.7145,-3.6889,-3.7035,-3.7607,-3.852,-3.8933,-3.9636,-4.0499,-4.093,-4.1094,-4.1097,-4.1105,-4.1931,-4.334,-4.5077,-4.5737,-4.5787]},{"header":{"parameterUnit":"m.s-1","parameterCategory":1,"la1":30.6,"la2":28.766,"lo1":-90.7593,"lo2":-88.6598,"dy":0.0162,"dx":0.0183,"nx":116,"ny":114,"refTime":"2024-07-03T00:00:00:Z","depth":0,"parameterNumber":3,"parameterNumberName":"V-component_of_WINDS"},"data":[0.0,0.0,0.0,0.0,0.0,0.0,0.0,0.0,0.0,0.0,0.0,0.0,0.0,0.0,0.0,0.0,0.0,0.0,0.0,0.0,0.0,0.0,0.0,0.0,0.0,0.0,0.0,0.0,0.0,0.0,0.0,0.0,0.0,0.0,0.0,0.0,0.0,0.0,0.0,0.0,0.0,0.0,0.0,0.0,0.0,0.0,0.0,0.0,0.0,0.0,0.0,0.0,0.0,0.0,0.0,0.0,0.0,0.0,0.0,0.0,0.0,0.0,0.0,0.0,0.0,0.0,0.0,0.0,0.0,0.0,0.0,0.0,0.0,0.0,0.0,0.0,0.0,0.0,0.0,0.0,0.0,0.0,0.0,0.0,0.0,0.0,0.0,0.0,0.0,0.0,0.0,0.0,0.0,0.0,0.0,0.0,0.0,0.0,0.0,0.0,0.0,0.0,0.0,0.0,0.0,0.0,0.0,0.0,0.0,0.0,0.0,0.0,0.0,0.0,0.0,0.0,0.0,0.0,0.0,0.0,0.0,0.0,0.0,0.0,0.0,0.0,0.0,0.0,0.0,0.0,0.0,0.0,0.0,0.0,0.0,0.0,0.0,0.0,0.0,0.0,0.0,0.0,0.0,0.0,0.0,0.0,0.0,0.0,0.0,0.0,0.0,0.0,0.0,0.0,0.0,0.0,0.0,0.0,0.0,0.0,0.0,0.0,0.0,0.0,0.0,0.0,0.0,0.0,0.0,0.0,0.0,0.0,0.0,0.0,0.0,0.0,0.0,0.0,0.0,0.0,0.0,0.0,0.0,0.0,0.0,0.0,0.0,0.0,0.0,0.0,0.0,0.0,0.0,0.0,0.0,0.0,0.0,0.0,0.0,0.0,0.0,0.0,0.0,0.0,0.0,0.0,0.0,0.0,0.0,0.0,0.0,0.0,0.0,0.0,0.0,0.0,0.0,0.0,0.0,0.0,0.0,0.0,0.0,0.0,0.0,0.0,0.0,0.0,0.0,0.0,0.0,0.0,0.0,0.0,0.0,0.0,0.0,0.0,0.0,0.0,0.0,0.0,0.0,0.0,0.0,0.0,0.0,0.0,0.0,0.0,0.0,0.0,0.0,0.0,0.0,0.0,0.0,0.0,0.0,0.0,0.0,0.0,0.0,0.0,0.0,0.0,0.0,0.0,0.0,0.0,0.0,0.0,0.0,0.0,0.0,0.0,0.0,0.0,0.0,0.0,0.0,0.0,0.0,0.0,0.0,0.0,0.0,0.0,0.0,0.0,0.0,0.0,0.0,0.0,0.0,0.0,0.0,0.0,0.0,0.0,0.0,0.0,0.0,0.0,0.0,0.0,0.0,0.0,0.0,0.0,0.0,0.0,0.0,0.0,0.0,0.0,0.0,0.0,0.0,0.0,0.0,0.0,0.0,0.0,0.0,0.0,0.0,0.0,0.0,0.0,0.0,0.0,0.0,0.0,0.0,0.0,0.0,0.0,0.0,0.0,0.0,0.0,0.0,0.0,0.0,0.0,0.0,0.0,0.0,0.0,0.0,0.0,0.0,0.0,0.0,0.0,0.0,0.0,0.0,0.0,0.0,0.0,0.0,0.0,0.0,0.0,0.0,0.0,0.0,0.0,0.0,0.0,0.0,0.0,0.0,0.0,0.0,0.0,0.0,0.0,0.0,0.0,0.0,0.0,0.0,0.0,0.0,0.0,0.0,0.0,0.0,0.0,0.0,0.0,0.0,0.0,0.0,0.0,0.0,0.0,0.0,0.0,0.0,0.0,0.0,0.0,0.0,0.0,0.0,0.0,0.0,0.0,0.0,0.0,0.0,0.0,0.0,0.0,0.0,0.0,0.0,0.0,0.0,0.0,0.0,0.0,0.0,0.0,0.0,0.0,0.0,0.0,0.0,0.0,0.0,0.0,0.0,0.0,0.0,0.0,0.0,0.0,0.0,0.0,0.0,0.0,0.0,0.0,0.0,0.0,0.0,0.0,0.0,0.0,0.0,0.0,0.0,0.0,0.0,0.0,0.0,0.0,0.0,0.0,0.0,0.0,0.0,0.0,0.0,0.0,0.0,0.0,0.0,0.0,0.0,0.0,0.0,0.0,0.0,0.0,0.0,0.0,0.0,0.0,0.0,0.0,0.0,0.0,0.0,0.0,0.0,0.0,0.0,0.0,0.0,0.0,0.0,0.0,0.0,0.0,0.0,0.0,0.0,0.0,0.0,0.0,0.0,0.0,0.0,0.0,0.0,0.0,0.0,0.0,0.0,0.0,0.0,0.0,0.0,0.0,0.0,0.0,0.0,0.0,0.0,0.0,0.0,0.0,0.0,0.0,0.0,0.0,0.0,0.0,0.0,0.0,0.0,0.0,0.0,0.0,0.0,0.0,0.0,0.0,0.0,0.0,0.0,0.0,0.0,0.0,0.0,0.0,0.0,0.0,0.0,0.0,0.0,0.0,0.0,0.0,0.0,0.0,0.0,0.0,0.0,0.0,0.0,0.0,0.0,0.0,0.0,0.0,0.0,0.0,0.0,0.0,0.0,0.0,0.0,0.0,0.0,0.0,0.0,0.0,0.0,0.0,0.0,0.0,0.0,0.0,0.0,0.0,0.0,0.0,0.0,0.0,0.0,0.0,0.0,0.0,0.0,0.0,0.0,0.0,0.0,0.0,0.0,0.0,0.0,0.0,0.0,0.0,0.0,0.0,0.0,0.0,0.0,0.0,0.0,0.0,0.0,0.0,0.0,0.0,0.0,0.0,0.0,0.0,0.0,0.0,0.0,0.0,0.0,0.0,0.0,0.0,0.0,0.0,0.0,0.0,0.0,0.0,0.0,0.0,0.0,0.0,0.0,0.0,0.0,0.0,0.0,0.0,0.0,0.0,0.0,0.0,0.0,0.0,0.0,0.0,0.0,0.0,0.0,0.0,0.0,0.0,0.0,0.0,0.0,0.0,0.0,0.0,0.0,0.0,0.0,0.0,0.0,0.0,0.0,0.0,0.0,0.0,0.0,0.0,0.0,0.0,0.0,0.0,0.0,0.0,0.0,0.0,0.0,0.0,0.0,0.0,0.0,0.0,0.0,0.0,0.0,0.0,0.0,0.0,0.0,0.0,0.0,0.0,0.0,0.0,0.0,0.0,0.0,0.0,0.0,0.0,0.0,0.0,0.0,0.0,0.0,0.0,0.0,0.0,0.0,0.0,0.0,0.0,0.0,0.0,0.0,0.0,0.0,0.0,0.0,0.0,0.0,0.0,0.0,0.0,0.0,0.0,0.0,0.0,0.0,0.0,0.0,0.0,0.0,0.0,0.0,0.0,0.0,0.0,0.0,0.0,0.0,0.0,0.0,0.0,0.0,0.0,0.0,0.0,0.0,0.0,0.0,0.0,0.0,0.0,0.0,0.0,0.0,0.0,0.0,0.0,0.0,0.0,0.0,0.0,0.0,0.0,0.0,0.0,0.0,0.0,0.0,0.0,0.0,0.0,0.0,0.0,0.0,0.0,0.0,0.0,0.0,0.0,0.0,0.0,0.0,0.0,0.0,0.0,0.0,0.0,0.0,0.0,0.0,0.0,0.0,0.0,0.0,0.0,0.0,0.0,0.0,0.0,0.0,0.0,0.0,0.0,0.0,0.0,0.0,0.0,0.0,0.0,0.0,0.0,0.0,0.0,0.0,0.0,0.0,0.0,0.0,0.0,0.0,0.0,0.0,0.0,0.0,0.0,0.0,0.0,0.0,0.0,0.0,0.0,0.0,0.0,0.0,0.0,0.0,0.0,0.0,0.0,0.0,0.0,0.0,0.0,0.0,0.0,0.0,0.0,0.0,0.0,0.0,0.0,0.0,0.0,0.0,0.0,0.0,0.0,0.0,0.0,0.0,0.0,0.0,0.0,0.0,0.0,0.0,0.0,0.0,0.0,0.0,0.0,0.0,0.0,0.0,0.0,0.0,0.0,0.0,0.0,0.0,0.0,0.0,0.0,0.0,0.0,0.0,0.0,0.0,0.0,0.0,0.0,0.0,0.0,0.0,0.0,0.0,0.0,0.0,0.0,0.0,0.0,0.0,0.0,0.0,0.0,0.0,0.0,0.0,0.0,0.0,0.0,0.0,0.0,0.0,0.0,0.0,0.0,0.0,0.0,0.0,0.0,0.0,0.0,0.0,0.0,0.0,0.0,0.0,0.0,0.0,0.0,0.0,0.0,0.0,0.0,0.0,0.0,0.0,0.0,0.0,0.0,0.0,0.0,0.0,0.0,0.0,0.0,0.0,0.0,0.0,0.0,0.0,0.0,0.0,0.0,0.0,0.0,0.0,0.0,0.0,0.0,0.0,0.0,0.0,0.0,0.0,0.0,0.0,0.0,0.0,0.0,0.0,0.0,0.0,0.0,0.0,0.0,0.0,0.0,0.0,0.0,0.0,0.0,0.0,0.0,0.0,0.0,0.0,0.0,0.0,0.0,0.0,0.0,0.0,0.0,0.0,0.0,0.0,0.0,0.0,0.0,0.0,0.0,0.0,0.0,0.0,0.0,0.0,0.0,0.0,0.0,0.0,0.0,0.0,0.0,0.0,0.0,0.0,0.0,0.0,0.0,0.0,0.0,0.0,0.0,0.0,0.0,0.0,0.0,0.0,0.0,0.0,0.0,0.0,0.0,0.0,0.0,0.0,0.0,0.0,0.0,0.0,0.0,0.0,0.0,0.0,0.0,0.0,0.0,0.0,0.0,0.0,0.0,0.0,0.0,0.0,0.0,0.0,0.0,0.0,0.0,0.0,0.0,0.0,0.0,0.0,0.0,0.0,0.0,0.0,0.0,0.0,0.0,0.0,0.0,0.0,0.0,0.0,0.0,0.0,0.0,0.0,0.0,0.0,0.0,0.0,0.0,0.0,0.0,0.0,0.0,0.0,0.0,0.0,0.0,0.0,0.0,0.0,0.0,0.0,0.0,0.0,0.0,0.0,0.0,0.0,0.0,0.0,0.0,0.0,0.0,0.0,0.0,0.0,0.0,0.0,0.0,0.0,0.0,0.0,0.0,0.0,0.0,0.0,0.0,0.0,0.0,0.0,0.0,0.0,0.0,0.0,0.0,0.0,0.0,0.0,0.0,0.0,0.0,0.0,0.0,0.0,0.0,0.0,0.0,0.0,0.0,0.0,0.0,0.0,0.0,0.0,0.0,0.0,0.0,0.0,0.0,0.0,0.0,0.0,0.0,0.0,0.0,0.0,0.0,0.0,0.0,0.0,0.0,0.0,0.0,0.0,0.0,0.0,0.0,0.0,0.0,0.0,0.0,0.0,0.0,0.0,0.0,0.0,0.0,0.0,0.0,0.0,0.0,0.0,0.0,0.0,0.0,0.0,0.0,0.0,0.0,0.0,0.0,0.0,0.0,0.0,0.0,0.0,0.0,0.0,0.0,0.0,0.0,0.0,0.0,0.0,0.0,0.0,0.0,0.0,0.0,0.0,0.0,0.0,0.0,0.0,0.0,0.0,0.0,0.0,0.0,0.0,0.0,0.0,0.0,0.0,0.0,0.0,0.0,0.0,0.0,0.0,0.0,0.0,0.0,0.0,0.0,0.0,0.0,0.0,0.0,0.0,0.0,0.0,0.0,0.0,0.0,0.0,0.0,0.0,0.0,0.0,0.0,0.0,0.0,0.0,0.0,0.0,0.0,0.0,0.0,0.0,0.0,0.0,0.0,0.0,0.0,0.0,0.0,0.0,0.0,0.0,0.0,0.0,0.0,0.0,0.0,0.0,0.0,0.0,0.0,0.0,0.0,0.0,0.0,0.0,0.0,0.0,0.0,0.0,0.0,0.0,0.0,0.0,0.0,0.0,0.0,0.0,0.0,0.0,0.0,0.0,0.0,0.0,0.0,0.0,0.0,0.0,0.0,0.0,0.0,0.0,0.0,0.0,0.0,0.0,0.0,0.0,0.0,0.0,0.0,0.0,0.0,0.0,0.0,0.0,0.0,0.0,0.0,0.0,0.0,0.0,0.0,0.0,0.0,0.0,0.0,0.0,0.0,0.0,0.0,0.0,0.0,0.0,0.0,0.0,0.0,0.0,0.0,0.0,0.0,0.0,0.0,0.0,0.0,0.3914,0.0,0.0,0.0,0.0,0.0,0.0,0.0,0.0,0.0,0.0,0.0,0.0,0.0,0.0,0.0,0.0,0.0,0.0,0.0,0.0,0.0,0.0,0.0,0.0,1.223,1.2542,1.3463,1.2985,1.3216,1.4697,0.0,0.0,0.0,0.0,0.0,1.6735,1.6719,1.6565,1.6291,1.6219,1.6433,1.6804,1.6587,1.6029,1.5174,0.0,0.0,0.0,0.0,0.0,0.0,0.0,0.0,0.0,0.0,0.0,0.0,0.0,0.0,0.0,0.0,0.0,0.0,0.0,0.0,0.0,0.0,0.0,0.0,0.0,0.0,0.0,0.0,0.0,0.0,0.0,0.0,0.0,0.0,0.0,0.0,0.0,0.0,0.0,0.0,0.0,0.0,0.0,0.0,0.0,0.0,0.0,0.0,0.0,0.0,0.0,0.0,0.0,0.0,0.0,0.0,0.0,0.0,0.0,0.0,0.0,0.0,0.0,0.0,0.0,0.0,0.0,0.0,0.0,0.0,0.0,0.6208,0.0,0.0,0.0,0.0,0.0,0.0,0.0,0.0,0.0,0.0,0.0,0.0,0.0,0.0,0.0,0.0,0.0,0.0,0.0,0.0,0.0,1.1495,1.1524,1.155,1.1619,1.1742,1.2044,1.2532,1.3384,0.0,0.0,0.0,0.0,1.7647,1.7068,1.722,1.7386,1.7622,1.7919,1.837,1.9104,2.0212,1.9975,1.8534,1.8657,0.0,0.0,0.0,0.0,0.0,0.0,0.0,0.0,0.0,0.0,0.0,0.0,0.0,0.0,0.0,0.0,0.0,0.0,0.0,0.0,0.0,0.0,0.0,0.0,0.0,0.0,0.0,0.0,0.0,0.0,0.0,0.0,0.0,0.0,0.0,0.0,0.0,0.0,0.0,0.0,0.0,0.0,0.0,0.0,0.0,0.0,0.0,0.0,0.0,0.0,0.0,0.0,0.0,0.0,0.0,0.0,0.0,0.0,0.0,0.0,0.0,0.0,0.0,0.0,0.0,0.2697,0.5701,0.8425,1.058,0.7456,0.762,1.0217,0.0,0.0,0.0,0.0,0.0,0.0,0.0,0.0,0.0,0.0,0.0,0.0,0.0,0.0,0.0,0.0,0.0,0.0,0.0,0.0,1.1511,1.1576,1.1064,1.0725,1.0695,1.0921,1.1822,1.3779,1.4398,0.0,0.0,1.7318,1.7342,1.7586,1.7071,1.7121,1.788,1.9155,2.0167,2.1034,2.2049,2.2732,2.3118,2.1958,2.1618,2.17,0.0,0.0,0.0,0.0,0.0,0.0,0.0,0.0,0.0,0.0,0.0,0.0,0.0,0.0,0.0,0.0,0.0,0.0,0.0,0.0,0.0,0.0,0.0,0.0,0.0,0.0,0.0,0.0,0.0,0.0,0.0,0.0,0.0,0.0,0.0,0.0,0.0,0.0,0.0,0.0,0.0,1.9773,1.9412,0.0,0.0,0.0,0.0,0.0,0.0,0.0,0.0,0.0,0.0,0.0,0.0,0.0,0.0,1.7722,1.6042,1.3894,1.1312,0.9868,0.7899,0.5622,0.5617,0.7141,0.9875,1.1064,0.0,1.1012,1.1839,0.0,0.0,0.0,0.0,0.0,0.0,0.0,0.0,0.0,0.0,0.0,0.0,0.0,0.0,0.0,0.0,0.0,0.0,0.0,0.0,0.0,1.0346,0.9788,0.9741,0.9741,1.055,1.249,0.0,0.0,1.7179,1.7596,1.7823,1.7781,1.7584,1.794,1.8966,2.0307,2.1339,2.2246,2.3445,2.4478,2.5169,2.5073,2.4476,2.3464,2.2302,0.0,0.0,0.0,0.0,0.0,0.0,0.0,0.0,0.0,0.0,0.0,0.0,0.0,0.0,0.0,0.0,0.0,0.0,0.0,0.0,0.0,0.0,0.0,0.0,0.0,0.0,0.0,0.0,0.0,0.0,0.0,0.0,0.0,0.0,0.0,0.0,0.0,0.0,0.0,2.0964,2.1708,2.1462,2.1525,2.1335,0.0,0.0,0.0,0.0,0.0,0.0,0.0,0.0,0.0,1.9198,1.9514,1.9317,1.8664,1.7305,1.5655,1.3867,1.28,1.1376,0.9818,0.9901,1.0875,1.2655,1.3916,1.3776,1.275,1.3637,1.358,1.3025,0.0,0.0,0.0,0.0,0.0,0.0,0.0,0.0,0.0,0.0,0.0,0.0,0.0,0.0,0.0,0.0,0.0,0.0,1.0686,0.9966,0.9339,0.8957,0.9039,0.0,0.0,0.0,1.4964,1.6548,1.7677,1.8214,1.81,1.8519,1.9174,2.0043,2.1273,2.2269,2.2976,2.4279,2.534,2.5927,2.6758,2.6507,2.5239,2.4049,2.2649,0.0,0.0,0.0,0.0,0.0,0.0,0.0,0.0,0.0,0.0,0.0,0.0,0.0,0.0,0.0,0.0,0.0,0.0,0.0,0.0,0.0,0.0,0.0,0.0,0.0,0.0,0.0,0.0,0.0,0.0,0.0,0.0,0.0,0.0,0.0,0.0,0.0,0.0,2.32,2.3663,2.3265,2.3279,2.2814,0.0,0.0,0.0,0.0,0.0,0.0,1.7895,1.8339,1.8606,1.8891,1.9598,1.976,1.9293,1.8165,1.7052,1.5931,1.5059,1.4172,1.3338,1.3812,1.4341,1.5069,1.5768,1.5565,1.4763,1.4859,1.4215,1.318,1.3716,1.481,0.0,1.7547,1.8125,1.8549,0.0,0.0,0.0,0.0,0.0,0.0,0.0,0.0,0.0,0.0,0.0,1.1058,1.0208,0.0,0.9771,0.0,0.0,0.0,0.0,0.0,1.4741,1.581,1.7201,1.8104,1.8554,1.9736,2.0503,2.0611,2.2004,2.2895,2.3329,2.4491,2.5246,2.5602,2.6307,2.7161,2.7821,2.6331,2.4798,2.3232,0.0,0.0,0.0,0.0,0.0,0.0,0.0,0.0,0.0,0.0,0.0,0.0,0.0,0.0,0.0,0.0,0.0,0.0,0.0,0.0,0.0,0.0,0.0,0.0,0.0,0.0,0.0,0.0,0.0,0.0,0.0,0.0,0.0,0.0,0.0,0.0,0.0,0.0,0.0,2.4364,2.5044,0.0,0.0,0.0,0.0,2.0481,1.9512,1.8769,1.827,1.8635,1.8863,1.8787,1.933,1.9381,1.8903,1.829,1.7543,1.6658,1.6161,1.569,1.5235,1.5294,1.5352,1.541,1.6077,1.6637,1.6959,1.5112,1.3771,1.3027,1.4255,1.64,1.8498,1.6161,1.7159,1.9736,0.0,0.0,0.0,0.3615,0.4383,0.5174,0.5942,0.7418,0.8508,0.8687,0.9804,1.0449,0.0,0.9663,0.9295,0.0,0.0,0.0,0.0,0.0,1.444,1.6059,1.7251,1.8363,1.9383,1.9984,2.0567,2.1256,2.1665,2.2323,2.2967,2.3823,2.4605,2.5172,2.5952,2.6458,2.6655,2.5856,2.4655,2.3139,2.1092,1.9287,0.0,0.0,0.0,0.0,0.0,0.0,0.0,0.0,0.0,0.0,0.0,0.0,0.0,0.0,0.0,0.0,0.0,0.0,0.0,0.0,0.0,0.0,0.0,0.0,0.0,0.0,0.0,0.0,0.0,0.0,0.0,0.0,0.0,0.0,0.0,0.0,0.0,2.608,2.6355,0.0,0.0,2.3041,2.2136,2.1549,2.0177,1.9437,1.9516,1.901,1.8844,1.9257,1.9364,1.9465,1.9544,1.9134,1.8736,1.8412,1.7899,1.7465,1.7217,1.6355,1.6597,1.7629,1.7746,1.7645,1.7245,1.67,1.616,1.5775,1.6252,1.7255,1.8317,1.7376,1.7977,1.9344,-0.0152,0.0821,0.0,0.2566,0.3385,0.423,0.5029,0.659,0.7734,0.8024,0.9325,1.0165,0.0,0.0,0.0,0.0,0.0,0.0,0.0,0.0,1.4335,1.5581,1.7382,1.8839,2.0098,2.0269,2.0671,2.1499,2.1514,2.1828,2.246,2.3187,2.3844,2.4648,2.518,2.5486,2.5541,2.529,2.4566,2.3395,2.1761,2.0342,1.9058,0.0,0.0,0.0,0.0,0.0,0.0,0.0,0.0,0.0,0.0,0.0,0.0,0.0,0.0,0.0,0.0,0.0,0.0,0.0,0.0,0.0,0.0,0.0,0.0,0.0,0.0,0.0,0.0,0.0,0.0,0.0,0.0,0.0,0.0,0.0,2.8077,2.7485,2.7412,2.6681,2.4936,2.3919,2.3013,2.224,2.0735,1.9925,2.0029,1.9113,1.887,1.9293,1.9256,1.9407,1.9802,1.9595,1.9482,1.9471,1.9039,1.8824,1.8784,1.7705,1.7682,1.8578,1.8694,1.8344,1.7755,1.7822,1.7656,1.7434,1.7545,1.7822,1.8084,1.7931,1.8193,1.8798,-0.1146,-0.0363,0.0518,0.1509,0.223,0.3049,0.4097,0.5611,0.6865,0.7468,0.9185,1.0342,0.0,0.0,0.0,0.0,0.0,0.0,0.0,1.2923,1.4426,1.4416,1.7389,1.9548,2.0479,2.0655,2.0994,2.1591,2.1619,2.1695,2.1766,2.2527,2.3242,2.3796,2.4149,2.445,2.4855,2.5036,2.471,2.4082,2.3122,2.1901,2.0416,0.0,0.0,0.0,0.0,0.0,0.0,0.0,0.0,0.0,0.0,0.0,0.0,0.0,0.0,0.0,0.0,0.0,0.0,0.0,0.0,0.0,0.0,0.0,0.0,0.0,0.0,0.0,0.0,0.0,0.0,0.0,0.0,0.0,2.8986,2.9499,2.9475,2.8331,2.8167,2.7408,2.5449,2.4343,2.3335,2.2373,2.1209,2.0264,1.9641,1.9052,1.8768,1.8913,1.9005,1.9285,1.9605,1.967,1.9754,1.9754,1.9591,1.9715,1.9889,1.9222,1.8669,1.8185,1.8744,1.8827,1.8614,1.8247,1.792,1.7711,1.7986,1.8084,1.803,1.749,1.7656,1.8208,-0.1431,-0.0438,0.0425,0.1209,0.192,0.2682,0.3504,0.4856,0.6018,0.6733,0.81,0.0,0.0,0.0,0.0,0.0,0.0,0.0,1.138,1.3034,1.4684,1.6264,1.8094,1.9348,2.0079,2.0428,2.0703,2.1084,2.1386,2.1478,2.1452,2.2204,2.2683,2.2789,2.357,2.3965,2.3944,2.4033,2.4243,2.4191,2.3634,2.2889,2.1998,0.0,0.0,0.0,0.0,0.0,0.0,0.0,0.0,0.0,0.0,0.0,0.0,0.0,0.0,0.0,0.0,0.0,0.0,0.0,0.0,0.0,0.0,0.0,0.0,0.0,0.0,0.0,0.0,0.0,0.0,0.0,0.0,3.0043,2.9401,2.9913,3.0074,2.9569,2.8783,2.7845,2.6366,2.4973,2.3777,2.2813,2.1374,2.0504,2.0439,1.9468,1.8976,1.9111,1.9104,1.927,1.9615,2.0009,2.0328,2.0572,2.0688,2.0802,2.0808,2.0133,1.9701,1.9379,1.8791,1.8679,1.8881,1.8464,1.8096,1.7711,1.7767,1.7711,1.7545,1.7545,1.781,1.8127,-0.1536,-0.0575,0.0268,0.1053,0.1663,0.2277,0.3111,0.4183,0.5255,0.6143,0.7303,0.0,0.0,0.0,0.0,0.0,0.0,1.1818,1.1676,1.3115,1.4818,1.6697,1.7805,1.8704,1.9279,1.9852,2.0153,2.0342,2.0788,2.0804,2.0557,2.137,2.1932,2.2289,2.3013,2.3453,2.3692,2.4051,2.4164,2.4196,2.4281,2.399,2.3315,2.2236,2.1721,2.1372,2.0099,1.9662,1.9597,1.867,0.0,0.0,0.0,0.0,0.0,0.0,0.0,0.0,0.0,0.0,0.0,0.0,0.0,0.0,0.0,0.0,0.0,0.0,0.0,0.0,0.0,0.0,0.0,0.0,2.9753,3.0362,2.9814,3.0286,3.0503,3.0282,2.9023,2.7814,2.6748,2.5169,2.3947,2.3148,2.1585,2.0759,2.093,1.9873,1.9324,1.9514,1.9364,1.9494,1.9918,2.0333,2.0764,2.1091,2.1337,2.136,2.1198,2.0502,2.0087,0.0,1.8821,1.8464,1.8506,1.8356,1.7915,0.0,0.0,0.0,0.0,0.0,1.7071,1.7401,-0.1464,-0.0595,0.0185,0.1086,0.1506,0.1999,0.2923,0.3767,0.4709,0.5712,0.0,0.0,0.0,0.0,0.0,0.0,0.0,0.0,0.0,1.3395,1.495,1.6307,1.706,1.7712,1.8398,1.9137,1.9457,1.9434,1.9927,1.9943,1.9538,2.045,2.1273,2.2072,2.2649,2.3323,2.3976,2.4603,2.4563,2.4277,2.507,2.5038,2.4382,2.3145,2.2808,2.288,2.1912,2.1218,2.068,2.0334,0.0,0.0,0.0,0.0,0.0,0.0,0.0,0.0,0.0,0.0,0.0,0.0,0.0,0.0,0.0,0.0,0.0,0.0,0.0,0.0,0.0,0.0,0.0,0.0,3.0127,3.0274,3.0263,3.0599,3.0766,3.0421,2.8947,2.7621,2.6834,2.5081,2.3868,2.3299,2.1885,2.1108,2.1108,0.0,0.0,0.0,0.0,1.9845,2.042,2.0657,2.0973,2.1408,2.155,2.1498,2.1187,2.0497,1.9983,1.969,1.8765,1.8193,1.7963,1.7961,1.7503,1.6738,1.7005,1.6418,1.5424,1.5542,1.5896,0.0,-0.0819,0.0,0.0738,0.1475,0.2031,0.2629,0.3228,0.4028,0.479,0.5413,0.5934,0.0,0.0,0.0,0.0,0.0,0.0,0.0,0.0,0.0,1.5466,1.6615,1.6744,1.7164,1.7934,1.8399,1.865,1.8774,1.9627,1.9918,1.9597,2.0685,2.136,2.1861,2.2947,2.3818,2.4515,2.4909,2.5105,2.5249,2.5186,2.4924,2.4555,2.5049,2.51,2.487,2.418,2.3956,2.3792,2.2657,2.1908,2.1407,2.0945,0.0,0.0,0.0,0.0,0.0,0.0,0.0,0.0,0.0,0.0,0.0,0.0,0.0,0.0,0.0,0.0,0.0,0.0,0.0,0.0,3.0001,3.033,3.0591,3.0799,3.0616,3.0312,3.0013,2.8943,2.7816,2.6844,2.5185,2.3784,2.3036,2.1805,2.1108,2.1108,2.044,0.0,1.9872,2.0002,2.0156,2.0431,2.052,2.0839,2.1319,0.0,0.0,2.1302,2.0257,1.9795,1.9796,1.8642,1.8193,1.8278,1.7607,1.6879,1.6082,1.6077,1.5782,1.531,1.5164,1.5205,1.5299,0.0377,0.0689,0.1066,0.1861,0.2231,0.2677,0.3581,0.396,0.4405,0.5153,0.5467,0.0,0.0,0.0,0.0,0.0,0.0,0.0,0.0,1.4455,1.5059,1.5939,1.6039,1.6336,1.6758,1.7388,1.759,1.7414,1.8576,1.9103,1.9112,2.0438,2.1498,2.2403,2.362,2.4565,2.5328,2.5778,2.5986,2.5914,2.5959,2.5736,2.5414,2.529,2.5367,2.539,2.4763,2.4226,2.3767,2.3056,2.2398,2.1702,2.0991,2.0346,1.9928,0.0,0.0,0.0,0.0,0.0,0.0,0.0,0.0,0.0,0.0,0.0,0.0,0.0,0.0,3.1721,3.1053,0.0,3.0725,3.0288,2.99,2.9692,2.9534,2.9138,2.9139,2.9943,2.9115,2.8148,2.7303,2.572,2.4462,2.3617,2.2281,2.145,2.1126,2.0624,2.0272,2.0174,2.0314,2.0601,2.0977,2.0786,2.0924,2.1393,2.1059,2.083,2.0756,1.9998,1.9575,1.9356,1.8472,1.7947,1.7596,1.6535,1.5673,1.5081,1.4797,1.475,1.4758,1.4471,1.4306,1.4192,0.1599,0.1552,0.1571,0.2343,0.2504,0.2843,0.3854,0.3939,0.4105,0.4844,0.5061,0.538,0.5934,0.6648,0.7551,0.0,0.0,0.0,0.0,1.395,1.4393,1.5078,1.5255,1.5421,1.5577,1.6218,1.6362,1.6057,1.7259,1.8073,1.84,2.0061,2.1575,2.3063,2.4462,2.5561,2.654,2.726,2.7267,2.6934,2.7138,2.6956,2.6507,2.5396,2.5276,2.5564,2.4859,2.4036,2.3248,2.3029,2.2357,2.1491,2.0607,2.0165,1.989,1.9643,1.9609,0.0,0.0,0.0,0.0,0.0,0.0,0.0,0.0,0.0,3.2419,3.2649,3.3038,3.3179,3.2868,3.2206,3.1553,3.0838,2.9523,2.85,2.8197,2.7734,2.7931,2.9502,2.891,2.8179,2.7515,2.6101,2.4884,2.398,2.2769,2.1717,2.1145,2.0817,2.0588,2.0566,2.0712,2.0964,2.1502,2.1115,2.1139,2.1409,2.0951,2.0551,2.0166,1.965,1.9206,1.8862,1.821,1.75,1.6696,1.5404,1.4599,1.4078,1.3621,1.3654,1.3931,1.357,1.3307,1.3093,0.2396,0.2672,0.2847,0.3139,0.3369,0.365,0.3961,0.4218,0.4427,0.4481,0.459,0.4838,0.5262,0.5471,0.6576,0.9107,1.084,0.0,1.3563,1.3817,1.4153,1.4758,1.4858,1.4891,1.4768,1.4988,1.5169,1.5227,1.6013,1.6823,1.7677,1.9725,2.1629,2.3436,2.52,2.6912,2.8597,2.9129,2.9184,2.8763,2.8798,2.8234,2.7279,2.6495,2.6198,2.6035,2.553,2.516,2.4749,2.3405,2.2557,2.1835,2.1199,2.0124,1.9134,1.9193,0.0,1.9093,1.985,2.1428,2.4169,2.9711,3.0005,3.0175,0.0,0.0,3.4046,3.4534,3.4638,3.438,3.3557,3.3096,3.2484,3.1592,2.945,2.813,2.8634,2.8144,2.7668,2.7744,2.7166,2.6911,2.6968,2.538,2.4072,2.3458,2.259,2.178,2.1135,2.109,2.1012,2.0889,2.1036,2.1282,2.1502,2.126,2.121,2.1188,2.0399,2.0076,2.0182,1.912,1.8714,1.8839,1.779,1.6886,1.6125,1.5174,1.431,1.3491,1.3123,1.2852,1.2694,1.2654,1.2447,1.2199,0.2965,0.3084,0.3128,0.338,0.3515,0.373,0.4111,0.4016,0.4039,0.4291,0.4265,0.4371,0.4918,0.5811,0.7016,0.8523,1.0085,1.1302,1.1982,1.2438,1.3067,1.3905,1.3606,1.3611,1.4034,1.395,1.397,1.3969,1.5033,1.6105,1.7224,1.9509,2.1882,2.4277,2.5987,2.7773,2.9578,3.0072,3.0403,3.0471,3.0173,2.9665,2.8826,2.8045,2.7244,2.6416,2.5097,2.4142,0.0,0.0,2.1871,2.1198,2.0531,1.971,1.8973,1.8997,1.8516,0.0,1.8978,2.1913,2.5382,0.0,3.0409,3.2555,3.5027,3.5393,3.5202,3.537,3.516,3.4745,3.413,3.3008,3.1943,0.0,2.9132,2.7603,2.7709,2.6878,2.6368,2.6747,2.6181,2.58,2.628,2.5402,2.4414,2.3515,2.2423,2.1544,2.0796,2.0569,2.0489,2.0534,2.0742,2.0988,2.1254,2.1062,2.0743,2.0393,1.9759,1.9371,1.9208,1.8397,1.8043,1.8003,1.6961,1.6258,1.576,1.4605,1.369,1.2997,1.2666,1.2274,1.1977,1.2243,1.2144,1.1728,0.3434,0.3323,0.3244,0.3423,0.3434,0.3563,0.403,0.3665,0.3495,0.3963,0.3783,0.3881,0.4654,0.6035,0.708,0.7598,0.8991,0.9917,1.0215,1.0784,1.1571,1.2492,1.2103,1.2082,1.2481,1.2388,1.2301,1.2317,1.3472,1.4782,1.6277,1.8791,2.144,2.4129,2.6021,2.7911,2.98,3.058,3.1179,3.1645,3.1278,3.0779,3.0045,2.8999,2.7718,2.6273,2.4748,2.37,0.0,0.0,2.1439,2.0937,2.0141,1.9355,1.8811,1.8642,1.8018,1.7569,1.8521,0.0,0.0,2.6895,3.031,3.3568,3.482,3.5646,3.603,3.5776,3.5307,3.4796,3.429,3.3014,3.18,3.1101,2.9013,2.7386,2.7137,2.613,2.553,2.5978,2.5249,2.4794,2.4974,2.4896,2.4405,2.3567,2.2504,2.1438,2.0558,2.031,2.0226,2.0274,2.0566,2.0807,2.105,2.0709,2.0297,1.9681,1.919,1.8735,1.8206,1.773,1.7459,1.7313,1.6425,1.5845,1.5509,1.4179,1.3273,1.2712,1.232,1.1877,1.1477,1.1895,1.1746,1.1326,0.3832,0.3531,0.3364,0.3315,0.324,0.3278,0.3484,0.3186,0.3007,0.3281,0.3046,0.3267,0.4396,0.549,0.6266,0.6546,0.7588,0.8317,0.8478,0.9124,0.9714,1.0288,1.0478,1.0315,0.9844,0.9953,1.0002,1.0119,1.1162,1.2639,1.454,1.7423,1.9976,2.231,2.4804,2.7111,2.9097,3.047,3.1507,3.2179,3.2051,3.147,3.0535,2.8952,2.7076,2.5282,2.4924,0.0,0.0,0.0,2.1645,2.1334,2.0456,1.9355,0.0,1.7898,1.7451,0.0,0.0,0.0,2.1753,2.711,2.9348,3.1204,3.5004,3.6286,3.6461,3.5608,3.5219,3.4725,3.3758,3.343,3.2751,3.1295,2.939,2.79,2.7415,2.654,2.5677,2.5091,2.4526,2.3841,0.0,2.33,2.3634,2.3496,2.2707,2.1665,2.0539,2.0731,2.0716,2.0284,2.0741,2.0961,2.0828,2.0477,1.9991,1.9341,1.8753,1.8158,1.7525,1.718,1.7022,1.6978,1.6341,1.5857,1.5338,1.415,1.3272,1.2538,1.2072,1.1678,1.1326,1.1326,1.1175,1.0922,0.3578,0.2872,0.2403,0.22,0.2082,0.2051,0.2217,0.2444,0.2609,0.276,0.2942,0.0,0.0,0.0,0.0,0.0,0.6362,0.7012,0.7228,0.7353,0.7791,0.8581,0.8075,0.7862,0.7947,0.7692,0.7627,0.7833,0.8743,1.0179,1.2004,1.4387,1.6835,1.9339,2.1602,2.3979,2.6486,2.832,3.0203,3.1952,3.181,3.1662,3.1255,2.9473,2.7927,2.6496,0.0,0.0,0.0,0.0,2.0867,2.0411,1.9382,0.0,0.0,1.7614,0.0,1.6764,1.7474,0.0,2.0438,2.4223,2.7216,3.0007,3.271,3.4376,3.5151,3.4314,3.3785,3.3278,3.2612,3.1893,3.1107,3.0505,2.8751,2.7349,2.6942,2.5743,2.4705,2.413,2.3707,0.0,0.0,0.0,0.0,2.2598,2.2408,2.1817,2.0549,2.0264,2.0089,2.0039,2.0033,2.0123,2.0161,1.9868,1.923,1.8207,1.7613,1.6979,1.6465,1.6555,1.6539,1.6368,1.5856,1.544,1.5069,1.3946,1.306,1.2262,1.1791,1.1241,1.0769,1.0769,1.0565,1.0308,0.3095,0.2118,0.1433,0.1035,0.0943,0.0,0.0,0.0,0.0,0.0,0.0,0.0,0.0,0.0,0.0,0.0,0.0,0.5429,0.5767,0.5659,0.594,0.6909,0.6325,0.6073,0.6355,0.6098,0.603,0.6032,0.7017,0.8258,0.9807,1.1797,1.3806,1.5906,1.8107,2.0472,2.2967,2.5558,2.8145,3.0459,3.0692,3.0963,3.099,2.911,2.7765,0.0,0.0,0.0,0.0,0.0,0.0,0.0,0.0,0.0,0.0,0.0,1.669,1.6158,1.6289,1.7488,1.9302,2.1932,2.5258,2.8482,3.0875,3.2543,3.3447,3.2929,3.2482,3.1976,3.1473,3.0942,3.0451,3.0186,2.8862,2.7658,2.7142,2.5894,2.4671,2.3744,2.3144,2.2561,0.0,0.0,0.0,2.1738,2.1883,2.1494,2.0338,1.9961,1.9785,1.9656,1.9658,1.9605,1.9483,1.9193,1.8578,1.7502,1.6798,1.6259,1.5914,1.6104,1.6104,1.5931,1.5515,1.5103,1.4611,1.3553,1.276,1.2121,1.1313,1.0793,1.048,1.0244,1.0051,0.9947,0.2466,0.129,0.0518,0.0,0.0,0.0,0.0,0.0,0.0,0.0,0.0,0.0,0.0,0.0,0.0,0.0,0.0,0.0,0.4103,0.4012,0.0,0.5239,0.5083,0.4984,0.4948,0.5021,0.4957,0.4749,0.5885,0.6984,0.7994,0.968,1.1038,1.2188,1.4547,1.672,1.8852,2.2364,2.5328,2.7797,2.8638,2.9204,2.9427,2.7752,0.0,0.0,0.0,0.0,0.0,0.0,0.0,0.0,0.0,0.0,0.0,0.0,0.0,1.5673,1.5561,1.6573,1.8106,2.0466,2.3417,2.6478,2.9425,3.0793,3.1467,3.1436,3.118,3.0814,3.0269,0.0,3.0765,3.0165,2.9484,2.8775,2.7918,2.6596,2.5305,0.0,0.0,0.0,0.0,0.0,0.0,2.0884,0.0,2.0744,1.9952,1.9869,1.9703,1.9307,1.9564,1.9426,1.8873,1.8468,1.7935,1.7159,1.6277,1.5856,1.5856,1.5856,1.5798,1.5614,1.5294,1.4756,1.4091,1.3129,1.2459,1.2001,1.0715,1.0309,1.0378,0.9783,0.9681,0.9792,0.0,0.0,0.0,0.0,0.0,0.0,0.0,0.0,0.0,0.0,0.0,0.0,0.0,0.0,0.0,0.0,0.0,0.0,0.3276,0.3327,0.0,0.0,0.0,0.3414,0.3215,0.2759,0.0,0.0,0.0,0.5026,0.6354,0.8087,0.9334,1.0278,1.2246,1.4208,1.6239,1.9126,2.1889,2.4326,0.0,2.607,2.684,0.0,0.0,0.0,0.0,0.0,0.0,0.0,0.0,0.0,0.0,0.0,1.8062,0.0,0.0,1.5471,1.5298,1.5404,1.5961,1.804,2.0456,2.2948,2.5387,2.7239,2.8466,2.8576,2.8909,2.8934,2.8251,0.0,0.0,2.8724,2.8451,0.0,2.7417,2.5765,0.0,2.3416,0.0,2.1765,2.1664,2.1047,0.0,0.0,1.9943,1.9793,1.9861,1.9769,1.9682,1.9496,1.9183,1.8883,1.8739,1.7533,1.6934,1.6898,1.5959,1.5362,1.501,1.5147,1.5079,1.4765,1.4538,1.424,1.3846,1.2964,1.22,1.1461,1.0561,0.9999,0.9633,0.9396,0.9316,0.9316,0.0,0.0,0.0,0.0,0.0,0.0,0.0,0.0,0.0,0.0,0.0,0.0,0.0,0.0,0.0,0.0,0.0,0.0,0.0,0.3229,0.0,0.0,0.0,0.322,0.3059,0.2485,0.2264,0.0,0.0,0.0,0.0,0.6905,0.8231,0.9371,1.064,1.2288,1.4169,0.0,0.0,0.0,0.0,0.0,0.0,0.0,0.0,0.0,0.0,0.0,0.0,0.0,0.0,2.21,2.14,2.0126,1.8701,1.778,0.0,1.5411,1.4844,1.464,1.495,1.6468,1.837,2.0486,2.2783,2.433,2.5415,2.5915,2.6472,0.0,2.6127,2.7524,0.0,0.0,0.0,0.0,2.7235,2.5359,2.3567,0.0,2.1572,0.0,2.1227,2.0327,1.968,0.0,1.9327,1.9321,1.9363,1.93,1.9109,1.8806,1.8489,1.822,1.8071,1.6779,1.6201,1.6319,1.5409,1.4765,1.4419,1.4547,1.4488,1.4181,0.0,1.364,1.3304,1.2246,1.1658,1.1203,1.0079,0.961,0.95,0.9095,0.9001,0.9106,0.0,0.0,0.0,0.0,0.0,0.0,0.0,0.0,0.0,0.0605,0.0,0.0,0.0,0.0,0.0,0.0,0.0,0.0,0.0,0.0,0.0,0.0,0.3723,0.3668,0.3578,0.3066,0.0,0.0,0.0,0.0,0.0,0.0,0.0,0.0,0.0,0.0,0.0,0.0,0.0,0.0,0.0,0.0,0.0,0.0,0.0,0.0,0.0,0.0,0.0,0.0,2.2739,2.2965,2.1903,2.068,1.9364,1.7796,1.6613,1.5477,1.4255,1.4144,1.4598,1.5276,1.6759,1.8646,2.0853,2.1785,2.2457,2.3331,0.0,2.4149,2.3946,2.5686,2.7033,2.6712,0.0,2.7219,2.7307,2.502,2.2948,2.1586,2.0535,2.0086,2.0398,1.9498,1.8806,1.8637,1.8947,1.8965,1.8718,1.8647,1.8335,1.7683,1.7647,1.7442,1.7038,1.6158,1.5624,1.5606,1.4802,1.424,1.389,1.401,1.395,1.3649,0.0,0.0,1.2696,1.1437,1.1032,1.1034,0.9603,0.9253,0.9528,0.8884,0.8818,0.901,0.0,0.0,0.0,0.0,0.0,0.0,0.0,-0.0839,-0.0235,0.0471,0.0979,0.0,0.0,0.0,0.0,0.0,0.0,0.0,0.0,0.0,0.0,0.3684,0.3661,0.3347,0.0,0.0,0.0,0.0,0.0,0.0,0.0,0.0,0.0,0.0,0.0,0.0,0.0,0.0,0.0,0.0,0.0,0.0,0.0,0.0,0.0,0.0,0.0,0.0,0.0,2.1811,2.2772,2.3074,2.1617,2.0652,1.9636,1.7853,1.6807,1.5808,1.4237,1.3738,1.3871,1.4194,1.5284,1.6697,1.8251,1.9211,0.0,0.0,2.1416,2.1765,2.1969,2.3426,2.4695,2.4729,0.0,0.0,0.0,0.0,2.2045,0.0,0.0,0.0,0.0,0.0,0.0,0.0,0.0,0.0,1.87,1.8232,1.7628,1.6923,1.6879,1.6731,1.6272,1.5704,1.531,1.5024,1.4373,1.3769,1.3164,1.3398,1.3277,1.2981,0.0,0.0,1.2528,1.1623,1.0982,1.0458,0.9646,0.9153,0.8931,0.8824,0.8958,0.9125,0.0,0.0,0.0,0.0,0.0,0.0,0.0,-0.0801,-0.0134,0.0571,0.1106,0.1912,0.3183,0.3609,0.0,0.0,0.0,0.0,0.0,0.0,0.0,0.0,0.0,0.0,0.0,0.0,0.0,0.0,0.0,0.0,0.0,0.0,0.0,0.0,0.0,0.0,0.0,0.0,0.0,0.0,0.0,0.0,0.0,0.0,0.0,0.0,0.0,0.0,0.0,0.0,2.0506,2.1051,2.1279,2.0759,1.9686,1.7979,1.6877,1.5836,1.4348,1.38,1.3589,1.336,1.4359,1.5593,1.6526,0.0,0.0,0.0,1.9736,2.0014,2.018,2.149,0.0,2.2663,0.0,0.0,0.0,0.0,0.0,0.0,0.0,0.0,0.0,0.0,0.0,0.0,0.0,0.0,1.7968,1.7265,1.6699,1.6232,1.5939,1.5745,1.5788,1.53,1.4891,1.4597,1.4052,1.3439,1.2751,1.2878,1.2736,1.2436,0.0,0.0,1.202,1.0966,1.0436,1.0143,0.9336,0.8918,0.8752,0.854,0.8715,0.8935,0.0,0.0,0.0,0.0,0.0,0.0,0.0,-0.0733,0.0,0.0839,0.149,0.2361,0.3603,0.3915,0.4408,0.0,0.0,0.0,0.0,0.0,0.0,0.0,0.0,0.0,0.0,0.0,0.0,0.0,0.0,0.0,0.0,0.0,0.0,0.0,0.0,0.0,0.0,0.0,0.0,0.0,0.0,0.0,0.0,0.0,0.0,0.0,0.0,0.0,0.0,0.0,1.7926,1.8415,2.011,2.0127,1.9255,1.7819,1.6814,1.5786,1.4393,1.3847,1.3497,1.2702,1.3597,1.4752,1.5188,1.5972,0.0,0.0,1.7968,1.8175,1.842,0.0,2.0229,0.0,2.1711,2.2476,0.0,0.0,0.0,0.0,0.0,0.0,0.0,0.0,0.0,0.0,0.0,0.0,0.0,1.6345,1.5759,1.5626,1.5049,1.4864,1.5141,1.4649,1.4332,1.4117,1.3613,1.3003,1.2352,1.2413,1.2251,1.1934,0.0,0.0,0.0,1.0474,1.0021,0.9914,0.9103,0.8744,0.8699,0.8374,0.853,0.8864,0.0,0.0,0.0,0.0,0.0,0.0,0.0,-0.0533,0.0334,0.1306,0.2029,0.297,0.4342,0.4371,0.4663,0.0,0.0,0.0,0.0,0.0,0.0,0.0,0.0,0.0,0.0,0.0,0.0,0.0,0.0,0.0,0.0,0.0,0.0,0.0,0.0,0.0,0.0,0.0,0.0,0.0,0.0,0.0,0.0,0.0,0.0,0.0,0.0,0.0,0.0,0.0,0.0,1.6218,1.7177,1.7723,1.7857,1.6872,0.0,0.0,1.4138,1.3695,1.3471,1.2318,1.2961,1.3851,1.4034,0.0,0.0,1.5564,1.5656,1.5823,1.6357,1.6814,1.7418,1.8475,0.0,1.9387,0.0,0.0,0.0,0.0,0.0,0.0,0.0,0.0,0.0,0.0,0.0,0.0,0.0,1.5748,1.5302,1.4875,1.4452,1.4065,1.3935,1.3721,1.3476,1.3142,1.2704,1.224,1.1768,1.1804,1.1632,1.1365,0.0,0.0,0.0,1.0752,1.0228,0.9731,0.9446,0.8938,0.8421,0.8527,0.8809,0.9125,0.0,0.0,0.0,0.0,0.0,0.0,0.0,-0.0766,0.0133,0.1669,0.2045,0.2737,0.414,0.4984,0.5764,0.0,0.0,0.0,0.0,0.0,0.0,0.0,0.0,0.0,0.0,0.0,0.0,0.0,0.0,0.0,0.0,0.0,0.0,0.0,0.0,0.0,0.0,0.0,0.0,0.0,0.0,0.0,0.0,0.0,0.0,0.0,0.0,0.0,0.0,0.0,0.0,0.0,1.477,1.5059,0.0,0.0,1.6717,1.6617,1.5494,1.4131,1.2908,1.22,1.2345,1.2746,1.3324,0.0,1.4235,1.512,1.51,1.5047,1.5692,1.5824,1.6179,1.7167,1.7567,1.7759,1.7674,0.0,0.0,0.0,0.0,0.0,0.0,0.0,0.0,0.0,0.0,0.0,0.0,1.54,1.5048,1.4501,1.4216,1.3911,1.3645,1.3425,1.3215,1.2927,1.2537,1.211,1.1565,1.1342,1.1046,1.0737,0.0,0.0,0.0,0.9862,0.9524,0.9343,0.8845,0.8517,0.8268,0.8215,0.8503,0.8891,0.0,0.0,0.0,0.0,0.0,0.0,-0.1331,-0.0834,0.0067,0.1833,0.2496,0.3183,0.4141,0.5914,0.7229,0.7713,0.0,0.0,0.0,0.0,0.0,0.0,0.0,0.0,0.0,0.0,0.0,0.0,0.0,0.0,0.0,0.0,0.0,0.0,0.0,0.0,0.0,0.0,0.0,0.0,0.0,0.0,0.0,0.0,0.0,0.0,0.0,0.0,0.0,0.0,0.0,0.0,0.0,0.0,1.3631,0.0,1.611,1.6245,1.5602,1.4069,1.2552,1.177,1.1786,1.2092,0.0,1.2998,1.3555,1.4297,1.4287,1.4296,1.4765,1.4841,1.5111,1.5983,1.62,1.6289,1.646,1.6102,0.0,0.0,0.0,0.0,0.0,0.0,0.0,0.0,0.0,0.0,0.0,0.0,1.459,1.419,1.3697,1.3347,1.3127,1.282,1.2599,1.2445,1.2091,1.1657,1.1125,1.0729,1.0403,0.0,0.0,0.0,0.0,0.9108,0.8924,0.886,0.8349,0.8124,0.8124,0.8015,0.8345,0.8854,0.0,0.0,0.0,0.0,0.0,0.0,0.0,-0.0635,0.0267,0.18,0.356,0.4655,0.4605,0.7212,0.8997,0.907,0.0,0.0,0.0,0.0,0.0,0.0,0.0,0.0,0.0,0.0,0.0,0.0,0.0,0.0,0.0,0.0,0.0,0.0,0.0,0.0,0.0,0.0,0.0,0.0,0.0,0.0,0.0,0.0,0.0,0.0,0.0,0.0,0.0,0.0,0.0,0.0,0.0,1.268,1.2889,1.4022,1.4199,1.4074,1.3913,1.3446,1.2575,1.0912,1.1335,1.2029,0.0,1.2241,1.2652,1.2563,1.287,1.3265,1.3337,1.3454,1.3941,1.4854,1.4919,1.4961,1.5357,1.567,0.0,0.0,0.0,0.0,0.0,0.0,0.0,0.0,0.0,0.0,0.0,0.0,1.3729,1.3817,1.2838,1.2305,1.2305,1.1706,1.1409,1.1409,1.1037,1.0677,1.0425,0.9961,0.0,0.0,0.0,0.0,0.0,0.8816,0.8558,0.8293,0.8148,0.7993,0.7942,0.8229,0.8615,0.9126,0.0,0.0,0.0,0.0,0.0,0.0,0.0,-0.1141,-0.0373,0.1368,0.2516,0.3672,0.4925,0.7371,0.935,1.0452,0.0,0.0,0.0,0.0,0.0,0.0,0.0,0.0,0.0,0.0,0.0,0.0,0.0,0.0,0.0,0.0,0.0,0.0,0.0,0.0,0.0,0.0,0.0,0.0,0.0,0.0,0.0,0.0,0.0,0.0,0.0,0.0,0.0,0.0,0.0,0.0,0.0,0.0,0.0,1.2783,1.3061,1.3245,1.2865,1.2641,1.2234,1.1216,1.0533,1.0432,1.1507,1.1471,1.1423,1.2114,1.2386,1.2449,1.2555,1.2614,1.2936,1.3738,1.3438,0.0,0.0,0.0,0.0,0.0,0.0,0.0,0.0,0.0,0.0,0.0,0.0,0.0,0.0,0.0,1.3179,1.3163,1.2706,1.2267,1.1783,1.1133,1.0812,1.0812,1.0218,0.9879,0.9649,0.9103,0.0,0.0,0.0,0.0,0.0,0.7802,0.7751,0.7774,0.7821,0.7868,0.7965,0.8316,0.8777,0.9309,0.0,0.0,0.0,0.0,0.0,0.0,0.0,-0.1174,-0.0615,0.0789,0.2035,0.3291,0.4587,0.7349,0.9663,1.1058,0.0,0.0,0.0,0.0,0.0,0.0,0.0,0.0,0.0,0.0,0.0,0.0,0.0,0.0,0.0,0.0,0.0,0.0,0.0,0.0,0.0,0.0,0.0,0.0,0.0,0.0,0.013,0.0,0.0,0.0,0.0,0.0,0.0,0.0,0.0,0.0,0.0,0.0,0.0,0.0,1.2231,1.2452,1.2305,1.2009,1.1564,1.0968,1.0284,1.0045,1.1089,1.0659,1.0346,1.1365,1.1546,1.1553,1.1758,1.1776,1.1826,1.2033,1.1969,0.0,0.0,0.0,0.0,0.0,0.0,0.0,0.0,0.0,0.0,0.0,0.0,0.0,0.0,0.0,1.2059,1.208,1.2056,1.1829,1.1289,1.0492,1.0067,1.0067,0.9468,0.9013,0.8851,0.0,0.0,0.0,0.0,0.0,0.0,0.6913,0.694,0.6997,0.7165,0.7398,0.7661,0.8115,0.8632,0.9158,0.0,0.0,0.0,0.0,0.0,0.0,0.0,0.0,0.0,0.0,0.1976,0.3365,0.3792,0.7117,0.983,0.0,0.0,0.0,0.0,0.0,0.0,0.0,0.0,0.0,0.0,0.0,0.0,0.0,0.3899,0.2365,0.0565,0.0,0.0,0.0,0.0,0.0,0.0,0.0,0.0,0.0,0.0,-0.0139,0.0,0.0,0.0,0.0,0.0,0.0,0.0,0.0,0.0,0.0,0.0,0.0,0.0,0.0,0.0,0.0,0.0,1.1477,1.068,1.0374,1.0501,1.0615,1.0426,0.978,0.0,1.0219,1.032,1.0422,1.0896,1.089,1.0631,1.017,0.0,0.0,0.0,0.0,0.0,0.0,0.0,0.0,0.0,0.0,0.0,0.0,0.0,0.0,0.0,0.0,0.0,1.0713,1.0948,1.0962,1.0812,0.9734,0.9246,0.917,0.8556,0.8174,0.8012,0.0,0.0,0.0,0.0,0.0,0.0,0.6109,0.6156,0.6061,0.6336,0.6687,0.7091,0.7669,0.8254,0.8829,0.0,0.0,0.0,0.0,0.0,0.0,0.0,0.0,0.0,0.0,0.1314,0.2837,0.4196,0.6819,0.9398,0.0,0.0,0.0,0.0,0.0,0.0,0.0,0.0,0.0,0.0,0.0,0.0,0.5467,0.4747,0.3374,0.1452,0.1454,0.0,0.0,0.0,0.0,0.0,0.0,0.0,0.0,-0.0234,-0.0317,0.0,0.0,0.0,0.0,0.3347,0.4559,0.0,0.0,0.0,0.0,0.0,0.0,0.0,0.0,1.0972,1.0961,1.1244,0.0,1.1117,1.0818,1.0306,0.9783,0.0,0.8748,0.8306,0.8257,0.8223,0.8341,0.8728,0.8853,0.9057,0.9685,0.0,0.0,0.0,0.0,0.0,0.0,0.0,0.0,0.0,0.0,0.0,0.0,0.0,0.0,0.0,0.0,0.0,1.046,0.991,0.9713,0.9959,0.9043,0.856,0.8408,0.7633,0.7249,0.7161,0.0,0.0,0.0,0.0,0.0,0.0,0.5519,0.5564,0.5523,0.5921,0.6281,0.6656,0.7186,0.7857,0.8554,0.0,0.0,0.0,0.0,0.0,0.0,0.0,0.0,0.0,0.0,0.0,0.0,0.0,0.0,0.0,0.0,0.0,0.0,0.0,0.0,0.0,0.0,0.0,0.0,0.0,0.0,0.0,0.0,0.0,0.4075,0.0,0.0,0.0,0.0,0.0,0.0,0.0,0.0,0.0,0.0,-0.0839,0.0,0.0,0.0,0.0,0.0,0.2389,0.36,0.0,0.5269,0.6352,0.7442,0.0,0.0,0.0,0.0,1.0341,1.0364,1.0581,1.0755,1.0783,1.0568,0.9746,0.8922,0.8439,0.7711,0.6933,0.6408,0.6798,0.7256,0.7451,0.7982,0.8479,0.0,0.0,0.0,0.0,0.0,0.0,0.0,0.0,0.0,0.0,0.0,0.0,0.0,0.0,0.0,0.0,0.0,0.0,0.0,0.9008,0.8843,0.9252,0.8426,0.7868,0.7642,0.6949,0.656,0.6391,0.0,0.0,0.0,0.0,0.0,0.4489,0.4691,0.4719,0.4724,0.5051,0.5425,0.5883,0.6424,0.7116,0.7837,0.0,0.0,0.0,0.0,0.0,0.0,0.0,0.0,0.0,0.0,0.0,0.0,0.0,0.0,0.0,0.0,0.0,0.0,0.0,0.0,0.0,0.0,0.0,0.0,0.0,0.0,0.0,0.0,0.0,0.0,0.0,0.0,0.0,0.0,0.0,0.0,0.0,0.0,0.0,0.0,0.0,0.0,0.0,0.0,0.0,0.0,0.0,0.0,0.0,0.4299,0.5263,0.616,0.7003,0.0,0.0,0.0,0.0,0.0,0.9913,0.9902,0.9874,0.9946,0.9165,0.826,0.7651,0.6713,0.5749,0.496,0.572,0.6555,0.6535,0.7428,0.0,0.0,0.0,0.0,0.0,0.0,0.0,0.0,0.0,0.0,0.0,0.0,0.0,0.0,0.0,0.0,0.0,0.0,0.0,0.0,0.8192,0.8194,0.8616,0.7802,0.733,0.703,0.6412,0.6022,0.5699,0.5081,0.0,0.0,0.0,0.0,0.3692,0.3894,0.3894,0.3894,0.409,0.442,0.4954,0.5477,0.6067,0.6793,0.0,0.0,0.0,0.0,0.0,0.0,0.0,0.0,0.0,0.0,0.0,0.0,0.0,0.0,0.0,0.0,0.0,0.0,0.0,0.0,0.0,0.0,0.0,0.0,0.0,0.0,0.0,0.0,0.0,0.0,0.4095,0.3068,0.2102,0.0,0.0,0.0,0.0,0.0,0.0,0.0,0.0,0.0,0.0,0.0,0.0,0.0,0.0,0.0,0.0,0.3647,0.4384,0.5074,0.6083,0.0,0.0,0.0,0.0,0.0,0.8799,0.8841,0.8912,0.9129,0.876,0.8192,0.7293,0.6273,0.5345,0.4885,0.4822,0.5014,0.5443,0.6153,0.6749,0.0,0.0,0.0,0.0,0.0,0.0,0.0,0.0,0.0,0.0,0.0,0.0,0.0,0.0,0.0,0.0,0.0,0.0,0.0,0.0,0.7414,0.7585,0.734,0.6953,0.6416,0.5789,0.5243,0.4851,0.4339,0.3934,0.0,0.0,0.0,0.3293,0.3496,0.3496,0.3293,0.336,0.3491,0.382,0.435,0.4948,0.5804,0.0,0.0,0.0,0.0,0.0,0.0,0.0,0.0,0.0,0.0,0.0,0.0,0.0,0.0,0.0,0.0,0.0,0.0,0.0,0.0,0.0,0.0,0.0,0.0,0.0,0.0,0.0,0.0,0.0,0.6829,0.5013,0.3279,0.1962,0.0972,0.0,0.0,0.0,0.0,0.0,-0.2713,0.0,0.0,0.0,0.0,0.0,0.0,0.0,0.0,0.0,0.0,0.3251,0.4055,0.5176,0.0,0.0,0.0,0.0,0.0,0.8108,0.82,0.8167,0.8049,0.8135,0.8073,0.7633,0.6476,0.5332,0.4654,0.4406,0.0,0.0,0.0,0.6124,0.0,0.0,0.0,0.0,0.0,0.0,0.0,0.0,0.0,0.0,0.0,0.0,0.0,0.0,0.0,0.0,0.0,0.0,0.0,0.0,0.0,0.698,0.6759,0.6414,0.6099,0.5473,0.501,0.4696,0.4049,0.3579,0.0,0.0,0.3126,0.2955,0.2819,0.2888,0.2955,0.2612,0.2792,0.3355,0.4156,0.4885,0.5675,0.0,0.0,0.0,0.0,0.0,0.0,0.0,0.0,0.0,0.0,0.0,0.0,0.0,0.0,0.0,0.0,0.0,0.0,0.0,0.0,0.0,0.0,0.0,0.0,0.0,0.0,0.0,1.085,0.9587,0.7848,0.557,0.3446,0.1963,0.0,0.0,0.0,0.0,0.0,0.0,-0.3183,0.0,0.0,0.0,0.0,0.0,0.0,0.0,0.0,0.0,0.0,0.0,0.0,0.0,0.0,0.0,0.641,0.6805,0.695,0.7099,0.7263,0.7342,0.6961,0.7368,0.7735,0.7522,0.6376,0.5098,0.4219,0.3917,0.0,0.0,0.4573,0.0,0.0,0.0,0.0,0.0,0.0,0.0,0.0,0.0,0.0,0.0,0.0,0.0,0.0,0.0,0.0,0.0,0.0,0.0,0.0,0.0,0.0,0.6617,0.6067,0.5811,0.5786,0.524,0.4774,0.4543,0.3844,0.3312,0.3085,0.2879,0.2772,0.2685,0.239,0.2384,0.2589,0.2089,0.2261,0.2956,0.3823,0.4622,0.5415,0.0,0.0,0.0,0.0,0.0,0.0,0.0,0.0,0.0,0.0,0.0,0.0,0.0,0.0,0.0,0.0,0.0,0.0,0.0,0.0,0.0,0.0,0.0,0.0,0.0,1.4073,1.3145,1.2913,1.1095,0.8827,0.6051,0.3942,0.2726,0.2333,0.0,0.0,0.0,0.0,0.0,-0.3413,-0.3615,0.0,0.0,0.0,0.0,0.0,0.0,0.0,0.0,0.0,0.0,0.0,0.0,0.0,0.3076,0.4715,0.5213,0.5295,0.521,0.5748,0.6295,0.6079,0.6452,0.6785,0.6299,0.5168,0.4077,0.3532,0.2788,0.0,0.0,0.0,0.0,0.0,0.0,0.0,0.0,0.0,0.0,0.0,0.0,0.0,0.0,0.0,0.0,0.0,0.0,0.0,0.0,0.0,0.0,0.0,0.0,0.0,0.6534,0.5541,0.5249,0.5637,0.5012,0.4545,0.4157,0.3446,0.3013,0.2715,0.2711,0.26,0.2324,0.241,0.2315,0.2028,0.1909,0.2154,0.2484,0.2753,0.3487,0.4486,0.0,0.0,0.0,0.0,0.0,0.0,0.0,0.0,0.0,0.0,0.0,0.0,0.0,0.0,0.0,0.0,0.0,0.0,0.0,0.0,0.0,0.0,0.0,1.5818,1.5749,1.4879,1.4259,1.4044,1.1242,0.8516,0.6025,0.4515,0.0,0.0,0.0,0.0,0.0,0.0,0.0,-0.2856,-0.3567,-0.3872,0.0,0.0,0.0,0.0,0.0,0.0,0.0,0.0,-0.0759,0.0083,0.1046,0.1779,0.2452,0.3094,0.3841,0.46,0.4688,0.5061,0.5375,0.5145,0.4974,0.495,0.561,0.4829,0.3821,0.3122,0.2339,0.0,0.0,0.0,0.0,0.0,0.0,0.0,0.0,0.0,0.0,0.0,0.0,0.0,0.0,0.0,0.0,0.0,0.0,0.0,0.0,0.0,0.0,0.0,0.0,0.0,0.0,0.5498,0.5159,0.524,0.4623,0.4235,0.4079,0.3376,0.3021,0.2872,0.2606,0.2429,0.2258,0.2199,0.2104,0.1961,0.1803,0.1775,0.1821,0.2442,0.3143,0.3929,0.0,0.0,0.0,0.0,0.0,0.0,0.0,0.0,0.0,0.0,0.0,0.0,0.0,0.0,0.0,0.0,0.0,0.0,0.0,0.0,0.0,0.0,0.0,1.5478,1.5901,1.535,1.4875,1.4474,1.1496,0.9013,0.7055,0.0,0.0,0.0,0.0,0.0,0.0,0.0,0.0,0.0,-0.3248,-0.3865,0.0,0.0,0.0,0.0,0.0,0.0,0.0,0.0,-0.2136,-0.1253,-0.0485,0.0388,0.1336,0.195,0.2831,0.3615,0.4021,0.4264,0.4402,0.4159,0.3728,0.3441,0.4122,0.3845,0.3253,0.2673,0.1805,0.0948,0.0276,0.0,0.0,0.0,0.0,0.0,0.0,0.0,0.0,0.0,0.0,0.0,0.0,0.0,0.0,0.0,0.0,0.0,0.0,0.0,0.0,0.0,0.0,0.0,0.0,0.5167,0.487,0.4749,0.4247,0.3999,0.3999,0.3376,0.3034,0.2905,0.2537,0.2362,0.2282,0.2062,0.1953,0.1939,0.173,0.1573,0.1556,0.2195,0.2843,0.3511,0.0,0.0,0.0,0.0,0.0,0.0,0.0,0.0,0.0,0.0,0.0,0.0,0.0,0.0,0.0,0.0,0.0,0.0,0.0,0.0,0.0,0.0,0.0,1.5039,1.626,1.5603,1.4897,1.4131,1.2114,1.0556,0.9438,0.6978,0.0,0.0,0.0,0.0,0.0,0.0,0.0,0.0,-0.2675,-0.342,-0.4222,0.0,0.0,0.0,0.0,0.0,0.0,0.0,-0.3676,-0.3084,-0.1114,-0.0758,-0.0651,0.1413,0.2101,0.2308,0.287,0.3289,0.3519,0.3184,0.2842,0.2421,0.1808,0.1969,0.2208,0.1951,0.1056,0.0362,0.0493,0.0,0.0,0.0,0.0,0.0,0.0,0.0,0.0,0.0,0.0,0.0,0.0,0.0,0.0,0.0,0.0,0.0,0.0,0.0,0.0,0.0,0.0,0.0,0.0,0.4616,0.436,0.4225,0.3966,0.3763,0.3765,0.3295,0.2982,0.2821,0.2522,0.2418,0.241,0.2221,0.2071,0.1884,0.1682,0.1749,0.1891,0.1945,0.2454,0.3094,0.0,0.0,0.0,0.0,0.0,0.0,0.0,0.0,0.0,0.0,0.0,0.0,0.0,0.0,0.0,0.0,0.0,0.0,0.0,0.0,0.0,0.0,0.0,0.0,0.0,0.0,1.404,1.401,1.2523,1.0962,0.0,0.0,0.0,0.547,0.0,0.0,0.0,0.0,0.0,0.0,-0.1853,-0.2736,-0.3514,0.0,0.0,0.0,0.0,0.0,0.0,0.0,0.0,0.0,-0.3239,-0.2485,-0.1636,-0.0363,0.0639,0.1543,0.229,0.2733,0.2823,0.26,0.1971,0.1309,0.0853,0.1166,0.1401,0.0,0.0306,0.0,-0.0217,0.0,0.0,0.0,0.0,0.0,0.0,0.0,0.0,0.0,0.0,0.0,0.0,0.0,0.0,0.0,0.0,0.0,0.0,0.0,0.0,0.0,0.0,0.0,0.0,0.0,0.456,0.4353,0.3853,0.3638,0.3614,0.3476,0.3108,0.2749,0.2606,0.2432,0.2354,0.2206,0.2094,0.194,0.187,0.1779,0.1763,0.2169,0.2633,0.3043,0.0,0.0,0.0,0.0,0.0,0.0,0.0,0.0,0.0,0.0,0.0,0.4792,0.0,0.0,0.0,0.0,0.0,0.0,0.0,0.0,0.0,0.0,0.0,0.0,0.0,1.3946,1.4258,0.0,0.0,0.0,0.0,0.0,0.0,0.6657,0.0,0.4669,0.0,0.0,0.0,0.0,-0.095,-0.2,-0.2951,0.0,0.0,0.0,0.0,0.0,0.0,0.0,0.0,0.0,-0.458,-0.3868,-0.289,-0.1616,-0.0503,0.05,0.1539,0.1907,0.191,0.1674,0.1001,0.0233,-0.0313,0.0,0.0,0.0,0.0,-0.0678,0.0,0.0,0.0,0.0,0.0,0.0,0.0,0.0,0.0,0.0,0.0,0.0,0.0,0.0,0.0,0.0,0.0,0.0,0.0,0.0,0.0,0.0,0.0,0.0,0.0,0.0,0.0,0.4209,0.3698,0.3491,0.3487,0.3329,0.3018,0.2566,0.2551,0.2512,0.2509,0.247,0.2382,0.2313,0.2243,0.2136,0.2101,0.2472,0.2804,0.3156,0.0,0.0,0.9274,0.8938,0.0,0.0,0.0,0.0,0.0,0.5793,0.5448,0.4971,0.0,0.0,0.0,0.183,0.0,0.0,0.0,0.0,0.0,0.0,0.0,0.0,0.0,0.0,0.0,0.0,0.0,0.0,0.0,0.0,0.9059,0.874,0.0,0.5936,0.0,0.0,0.0,0.0,0.0,-0.1227,-0.2546,-0.287,0.0,0.0,0.0,0.0,0.0,0.0,0.0,0.0,-0.5314,-0.4925,-0.433,-0.2428,-0.1524,-0.0804,0.0525,0.0816,0.0664,0.0543,-0.0077,0.0,-0.1559,-0.1255,-0.0864,-0.0785,0.0,0.0,0.0,0.0,0.0,0.0,0.0,0.0,0.0,0.0,0.0,0.0,0.0,0.0,0.0,0.0,0.0,0.0,0.0,0.0,0.0,0.0,0.0,0.0,0.0,0.0,0.0,0.0,0.0,0.0,0.3644,0.3408,0.3234,0.301,0.2707,0.2481,0.2515,0.2603,0.281,0.281,0.281,0.2809,0.2802,0.2758,0.2713,0.286,0.3065,0.3314,0.0,0.0,1.0548,0.9669,0.0,0.0,0.0,0.0,0.5933,0.5761,0.541,0.4971,0.443,0.3466,0.0,0.1701,0.0984,0.0,0.0,0.0,0.0,0.0,0.0,0.0,0.0,0.0,0.0,0.0,0.0,0.0,0.0,0.0,0.0,0.9304,0.0,0.6909,0.0,0.0,0.0,0.1801,0.0776,-0.0262,-0.1329,-0.2206,-0.2847,0.0,0.0,0.0,0.0,0.0,0.0,0.0,-0.5589,-0.5488,-0.5263,-0.3605,-0.2756,-0.2117,-0.0898,-0.0518,-0.0515,-0.0542,-0.1404,-0.241,-0.2895,-0.2898,-0.2586,-0.196,0.0,0.0,0.0,0.0,0.0,0.0,0.0,0.0,0.0,0.0,0.0,0.0,0.0,0.0,0.0,0.0,0.0,0.0,0.0,0.0,0.0,0.0,0.0,0.0,0.0,0.0,0.4621,0.4311,0.4088,0.0,0.3461,0.3147,0.3163,0.3301,0.3139,0.2863,0.2685,0.2745,0.2961,0.3107,0.3107,0.3101,0.3037,0.2931,0.2856,0.3235,0.3393,0.3469,0.0,0.0,0.0,0.0,0.0,0.0,0.0,0.0,0.6272,0.5861,0.54,0.4954,0.4369,0.3398,0.0,0.0,0.0398,0.0045,0.0,0.0,0.0,0.0,0.0,0.0,0.0,0.0,0.0,0.0,0.0,0.0,0.0,0.0,0.0,1.0573,0.0,0.7998,0.0,0.0,0.3942,0.2518,0.1343,0.0254,-0.0855,-0.1625,-0.2411,-0.3041,-0.3824,0.0,0.0,0.0,0.0,0.0,0.0,0.0,-0.5973,-0.4998,-0.4205,-0.3373,-0.2459,-0.2144,-0.2277,-0.2855,0.0,-0.4009,-0.4368,-0.4416,-0.4318,0.0,0.0,0.0,0.0,0.0,0.0,0.0,0.0,0.0,0.0,0.0,0.0,0.0,0.0,0.0,0.0,0.0,0.0,0.0,0.0,0.0,0.0,0.0,0.0,0.0,0.0,0.0,0.47,0.4281,0.4023,0.3828,0.3315,0.3062,0.2981,0.31,0.304,0.289,0.2818,0.2973,0.3189,0.3368,0.3522,0.3556,0.3655,0.3534,0.3363,0.3743,0.371,0.3587,0.0,0.0,0.0,0.0,0.0,0.0,0.0,0.0,0.0,0.619,0.5596,0.4994,0.4394,0.3428,0.2289,0.0,0.0,0.0,-0.0805,0.0,0.0,0.0,0.0,0.0,0.0,0.0,0.0,0.0,0.0,0.0,0.0,0.0,0.0,1.2037,0.0,0.0,0.0,0.0,0.4559,0.3152,0.1992,0.0749,-0.0501,-0.1086,-0.1925,-0.2856,-0.3285,-0.3872,-0.4699,-0.5432,0.0,0.0,0.0,0.0,-0.6597,-0.6254,-0.5509,-0.4669,-0.4045,-0.3901,-0.4274,-0.5472,-0.5613,0.0,-0.5902,-0.5838,-0.5786,0.0,0.0,0.0,0.0,0.0,0.0,0.0,0.0,0.0,0.0,0.0,0.0,0.0,0.0,0.0,0.0,0.0,0.0,0.0,0.0,0.0,0.0,0.0,0.0,0.0,0.0,0.4659,0.4672,0.4263,0.3897,0.3551,0.3247,0.2904,0.2744,0.2689,0.2734,0.2717,0.2968,0.313,0.3249,0.3696,0.3856,0.3931,0.4159,0.4108,0.3891,0.4201,0.4043,0.3786,0.0,0.0,0.0,0.0,0.0,0.0,0.0,0.0,0.0,0.0,0.6175,0.5494,0.4877,0.366,0.233,0.1005,-0.0175,-0.094,0.0,0.0,0.0,0.0,0.0,0.0,0.0,0.0,0.0,0.0,0.0,1.7141,1.8266,1.5648,1.3876,1.2714,0.0,0.0,0.0,0.0,0.5361,0.411,0.2849,0.1602,0.0326,-0.049,-0.1323,-0.2273,-0.3069,-0.365,-0.4268,-0.5369,-0.5894,0.0,0.0,0.0,0.0,-0.6937,-0.652,-0.6033,-0.5517,-0.5581,-0.6084,0.0,-0.7214,-0.6981,0.0,0.0,0.0,0.0,0.0,0.0,0.0,0.0,0.0,0.0,0.0,0.0,0.0,0.0,0.0,0.0,0.0,0.0,0.0,0.0,0.0,0.0,0.0,0.0,0.0,0.0,0.5541,0.5508,0.4851,0.0,0.4646,0.3972,0.3607,0.3542,0.3064,0.2746,0.2511,0.2737,0.2778,0.2722,0.293,0.3008,0.3102,0.3616,0.3918,0.3931,0.4159,0.4302,0.429,0.4453,0.4429,0.4349,0.0,0.0,0.0,0.0,0.0,0.0,0.0,0.0,0.0,0.0,0.0,0.5947,0.5049,0.3748,0.2396,0.1005,-0.0258,0.0,0.0,0.0,0.0,0.0,0.0,0.0,0.0,0.0,0.0,0.0,0.0,1.6422,1.8216,1.6324,1.5394,1.5306,0.0,0.0,0.0,0.0,0.5931,0.4766,0.3287,0.1987,0.0892,-0.008,-0.1052,-0.1896,-0.2621,-0.3334,-0.4196,-0.5044,-0.5498,-0.5774,-0.6478,0.0,0.0,0.0,-0.6875,-0.6592,-0.6892,-0.7368,-0.7966,0.0,-0.8689,-0.8456,-0.8232,0.0,0.0,0.0,0.0,0.0,0.0,0.0,0.0,0.0,0.0,0.0,0.0,0.0,0.0,0.0,0.0,0.0,0.0,0.0,0.0,0.0,0.0,0.0,0.0,0.5331,0.5305,0.5345,0.4867,0.0,0.4632,0.4087,0.3532,0.3137,0.2668,0.2431,0.2353,0.2431,0.2496,0.2623,0.2969,0.3128,0.3088,0.3804,0.4116,0.4241,0.4704,0.4704,0.455,0.501,0.4923,0.4612,0.0,0.0,0.0,0.0,0.0,0.0,0.0,0.0,0.0,0.0,0.0,0.6381,0.53,0.0,0.0,0.0,-0.0255,0.0,0.0,0.0,0.0,0.0,0.0,0.0,0.0,0.0,0.0,0.0,1.4731,1.5786,1.7895,1.6839,1.677,1.7441,1.4797,1.2782,0.0,0.0,0.668,0.543,0.3706,0.2395,0.1299,0.0323,-0.0731,-0.1714,-0.2299,0.0,0.0,0.0,0.0,0.0,0.0,0.0,0.0,0.0,0.0,-0.7192,-0.8017,0.0,-0.9368,-0.9958,-1.0088,-0.99,0.0,0.0,0.0,0.0,0.0,0.0,0.0,0.0,0.0,0.0,0.0,0.0,0.0,0.0,0.0,0.0,0.0,0.0,0.0,0.0,0.0,0.0,0.0,0.0,0.5196,0.5098,0.5067,0.5103,0.4789,0.4515,0.4536,0.3944,0.3292,0.2668,0.2431,0.2196,0.2118,0.2196,0.2275,0.2429,0.3003,0.3167,0.3136,0.4,0.4318,0.4462,0.5087,0.5087,0.4935,0.5404,0.5263,0.489,0.0,0.0,0.0,0.0,0.0,0.0,0.0,0.0,0.0,0.0,0.0,0.6723,0.5779,0.4172,0.2561,0.0932,0.0,0.0,0.0,0.0,0.0,0.0,0.0,0.0,0.0,0.0,0.0,0.0,1.4742,1.6143,1.8269,1.7347,1.7382,1.8026,1.5771,1.3119,1.0385,0.0,0.7786,0.6118,0.444,0.2915,0.155,0.0851,-0.0171,-0.1418,0.0,0.0,0.0,0.0,0.0,0.0,0.0,0.0,0.0,0.0,0.0,0.0,-0.8807,-0.9393,0.0,-1.1177,-1.1363,0.0,0.0,0.0,0.0,0.0,0.0,0.0,0.0,0.0,0.0,0.0,0.0,0.0,0.0,0.0,0.0,0.0,0.0,0.0,0.0,0.0,0.0,0.0,0.0,0.0,0.5423,0.5172,0.4983,0.495,0.4304,0.3942,0.4034,0.329,0.2731,0.2196,0.2431,0.2276,0.1886,0.2119,0.2196,0.2275,0.2821,0.3137,0.3141,0.4068,0.438,0.4462,0.5087,0.5321,0.5321,0.5479,0.5553,0.555,0.0,0.0,0.0,0.0,0.0,0.0,0.0,0.0,0.0,0.0,0.0,0.0,0.0,0.4465,0.2943,0.1317,-0.0085,0.0,0.0,0.0,0.0,0.0,0.0,0.0,0.0,0.0,0.0,1.2535,1.3248,1.4589,1.6437,1.5762,1.534,1.512,1.4554,1.339,1.1784,0.9352,0.0,0.6318,0.4666,0.3357,0.2164,0.093,-0.0256,-0.1368,0.0,0.0,0.0,0.0,0.0,0.0,-0.6525,-0.6845,-0.707,-0.7891,-0.8288,-0.8732,0.0,0.0,0.0,-1.1578,-1.2016,-1.2136,0.0,0.0,0.0,0.0,0.0,0.0,0.0,0.0,0.0,0.0,0.0,0.0,0.0,0.0,0.0,0.0,0.0,0.0,0.0,0.0,0.0,0.0,0.0,0.0,0.493,0.4753,0.4565,0.4365,0.4031,0.367,0.3126,0.2814,0.2454,0.2042,0.1963,0.1886,0.1729,0.1886,0.2058,0.2084,0.2765,0.3062,0.3141,0.4075,0.4462,0.4621,0.5246,0.5479,0.5556,0.6022,0.6022,0.5864,0.0,0.0,0.0,1.4591,0.0,1.3693,1.268,1.1949,1.086,0.0,0.0,0.0,0.0,0.0,0.3002,0.1258,-0.0043,0.0,0.0,0.0,0.0,0.0,0.0,0.0,0.0,0.0,0.0,0.0,0.0,1.3834,1.5216,1.4675,1.4031,1.3445,1.3114,1.2664,0.0,0.0,0.0,0.6791,0.0,0.3727,0.2612,0.0,0.0,0.0,0.0,0.0,0.0,0.0,0.0,0.0,0.0,-0.6915,-0.7456,-0.8078,-0.857,-0.9067,-0.9639,0.0,0.0,0.0,0.0,-1.288,0.0,0.0,0.0,0.0,0.0,0.0,0.0,0.0,0.0,0.0,0.0,0.0,0.0,0.0,0.0,0.0,0.0,0.0,0.0,0.0,0.0,0.0,0.0,0.0,0.4862,0.4654,0.4332,0.3887,0.3655,0.3112,0.2439,0.232,0.2057,0.1572,0.1572,0.1493,0.1336,0.1572,0.183,0.2028,0.2616,0.2997,0.3176,0.4088,0.4543,0.4779,0.5401,0.5712,0.5789,0.6409,0.6405,0.6173,1.0857,1.2246,1.337,1.3784,1.3326,1.289,1.2915,1.1415,1.0035,0.9346,0.0,0.0,0.0,0.0,0.0,0.0711,0.0,0.0,0.0,0.0,0.0,0.0,0.0,0.0,0.0,0.0,0.0,0.0,0.0,0.0,0.0,0.0,1.3803,1.3353,1.1774,1.0943,1.0653,0.0,0.8742,0.7585,0.0,0.3859,0.2793,0.0,0.0,0.0,-0.1166,-0.2211,0.0,-0.3558,0.0,0.0,0.0,-0.6985,-0.8473,-0.8317,-0.8571,-0.9157,0.0,0.0,0.0,0.0,0.0,0.0,0.0,0.0,0.0,0.0,0.0,0.0,0.0,0.0,0.0,0.0,0.0,0.0,0.0,0.0,0.0,0.0,0.0,0.0,0.0,0.0,0.0,0.0,0.0,0.5574,0.5225,0.4882,0.4279,0.3485,0.2988,0.2493,0.1948,0.1947,0.1605,0.0864,0.1337,0.1336,0.0943,0.118,0.1592,0.203,0.238,0.2788,0.3251,0.4274,0.4701,0.4776,0.555,0.586,0.5941,0.6405,0.6563,0.6637,0.9593,1.0952,1.2074,1.2522,1.2608,1.2251,1.1203,1.0457,0.9597,0.0,0.0,0.0,0.5622,0.3677,0.2109,0.0,0.0,0.0,0.0,0.0,0.0,0.0,0.0,0.0,0.0,0.0,0.0,0.0,0.0,0.0,0.0,0.0,0.0,1.172,1.107,1.0283,0.9342,0.8409,0.0,0.0,0.4617,0.346,0.0,0.0,0.0,0.0,0.0,-0.2477,-0.3469,0.0,-0.4775,-0.579,0.0,0.0,-0.8714,-0.8991,-0.9025,-0.9058,-0.9783,0.0,0.0,0.0,0.0,0.0,0.0,0.0,0.0,0.0,0.0,0.0,0.0,0.0,0.0,0.0,0.0,0.0,0.0,0.0,0.0,0.0,0.0,0.0,0.0,0.0,0.0,0.0,0.0,0.5431,0.5215,0.4498,0.3681,0.2773,0.2431,0.1947,0.1507,0.1269,0.1027,0.0707,0.0799,0.0879,0.0943,0.1199,0.1551,0.2079,0.244,0.2855,0.3319,0.4141,0.4774,0.5165,0.5398,0.5786,0.6257,0.6486,0.6563,0.6637,0.8076,0.9521,1.0763,1.1213,1.1291,1.1027,1.0245,0.9357,0.8431,0.0,0.0,0.0,0.4734,0.3158,0.1949,0.0,0.0,0.0,0.0,0.0,0.0,0.081,0.0571,0.0699,0.0,0.0,0.0,0.0,0.0,0.0,0.0,0.0,0.0,0.0,1.0653,0.9675,0.8355,0.7381,0.0,0.0,0.4379,0.0,0.0,0.1399,0.0266,0.0,0.0,0.0,-0.3432,-0.3871,-0.4763,0.0,0.0,-0.7937,-0.8548,-0.8794,-0.898,-0.923,-0.9909,-1.0482,0.0,0.0,0.0,0.0,0.0,0.0,0.0,0.0,0.0,0.0,0.0,0.0,0.0,0.0,0.0,0.0,0.0,0.0,0.0,0.0,0.0,0.0,0.0,0.0,0.0,0.0,0.5233,0.5044,0.4482,0.3985,0.3343,0.231,0.1873,0.1468,0.1037,0.0711,0.0393,0.0236,0.0319,0.0398,0.055,0.0797,0.1218,0.1824,0.2208,0.27,0.3306,0.3941,0.4504,0.5087,0.5323,0.5712,0.6177,0.656,0.6714,0.6791,0.0,0.7994,0.9297,0.9778,0.9616,0.9451,0.9605,0.8235,0.7043,0.0,0.0,0.0,0.0,0.0,0.0,0.0,0.0,0.0,0.0,0.0,0.0,0.0815,0.0527,0.0281,0.0179,0.0,0.0,0.0,0.0,0.0,0.0,0.0,0.0,0.0,1.0455,0.9181,0.7639,0.0,0.0,0.5628,0.4275,0.317,0.0,0.0,0.0179,0.0,-0.1166,-0.2062,-0.3226,-0.3666,-0.4658,0.0,0.0,-0.762,-0.8201,-0.8285,-0.8869,0.0,-1.0055,-1.0647,0.0,0.0,0.0,0.0,-1.4534,-1.4799,0.0,0.0,0.0,0.0,0.0,0.0,0.0,0.0,0.0,0.0,0.0,0.0,0.0,0.0,0.0,0.0,0.0,0.0,0.0,0.4268,0.4785,0.4565,0.3433,0.3433,0.2982,0.1862,0.1324,0.0829,0.0568,0.0079,-0.0236,-0.0393,-0.0157,-0.0079,0.0,0.0157,0.0638,0.1221,0.1793,0.2442,0.3165,0.3664,0.4174,0.4776,0.5323,0.5712,0.6018,0.6633,0.6876,0.7045,0.5309,0.6272,0.7132,0.7633,0.7976,0.8141,0.7918,0.7328,0.683,0.6789,0.0,0.0,0.364,0.0,0.0,0.0,0.0,0.0,0.0,0.0,0.0986,0.0899,0.0349,0.0048,0.0045,0.1374,0.0,0.0,0.0,0.0,0.0,0.0,0.0,0.0,0.9936,0.8577,0.7016,0.0,0.0,0.4063,0.3323,0.0,0.216,0.0698,-0.0177,-0.0718,-0.1794,-0.2601,-0.3396,0.0,-0.5451,-0.646,0.0,0.0,0.0,-0.906,0.0,-0.9459,-1.0118,-1.0658,-1.132,-1.2049,0.0,0.0,0.0,-1.4462,0.0,0.0,0.0,0.0,0.0,0.0,0.0,0.0,0.0,0.0,0.0,0.0,0.0,0.0,0.0,0.0,0.0,0.0,0.1579,0.3304,0.4085,0.4063,0.3202,0.2899,0.2186,0.0949,0.0485,0.0081,-0.0317,-0.0787,-0.0943,-0.0786,-0.0721,-0.056,-0.0236,0.0,0.0324,0.0815,0.1492,0.2148,0.2766,0.323,0.3987,0.4927,0.5085,0.5553,0.6257,0.6335,0.6798,0.7296,0.4003,0.475,0.5487,0.6098,0.6539,0.6737,0.6635,0.6226,0.577,0.5473,0.0,0.0,0.0,0.0,0.0,0.0,0.0,0.0,0.0,0.0,0.1096,0.0987,0.0407,-0.0198,-0.0667,0.0556,0.0,0.0,0.0,0.0,0.0,0.0,0.0,0.0,0.0,0.8771,0.72,0.0,0.4967,0.3722,0.3003,0.0,0.1712,0.078,-0.0176,-0.0987,-0.2064,-0.305,-0.4107,-0.4978,-0.5763,0.0,0.0,-0.7529,-0.8168,0.0,-0.908,-0.9401,0.0,-1.0503,-1.1112,-1.1799,0.0,0.0,0.0,0.0,0.0,0.0,0.0,0.0,0.0,0.0,0.0,0.0,0.0,0.0,0.0,0.0,0.0,0.0,0.0,0.0,0.0,0.0,-0.0233,0.2648,0.3547,0.3593,0.2734,0.2083,0.1205,-0.0079,-0.0642,-0.0964,-0.1256,-0.1569,-0.1649,-0.1413,-0.1272,-0.1113,-0.0786,-0.0477,-0.008,0.0401,0.1078,0.1733,0.2322,0.2735,0.3515,0.446,0.4849,0.5392,0.6018,0.6331,0.6816,0.7426,0.2728,0.3377,0.4038,0.4774,0.5108,0.535,0.5505,0.5149,0.4632,0.0,0.0,0.0,0.0,0.0,0.0,0.0,0.0,0.0,0.0,0.0,0.0,0.109,0.0522,-0.0255,-0.1219,-0.0094,0.0,0.0,0.0,0.0,0.0,0.0,0.0,0.0,0.0,0.0,0.0,0.0,0.0,0.372,0.0,0.199,0.1166,0.0774,-0.0176,-0.1517,-0.233,-0.3497,-0.4823,-0.5331,0.0,-0.6383,-0.6947,-0.7385,0.0,0.0,0.0,0.0,0.0,0.0,0.0,0.0,0.0,-1.322,0.0,0.0,0.0,-1.5856,0.0,0.0,0.0,0.0,0.0,0.0,0.0,0.0,0.0,0.0,0.0,0.0,0.0,0.0,0.0,0.0,-0.2213,0.1534,0.2465,0.2582,0.1939,0.1113,0.008,-0.1178,-0.1758,-0.2077,-0.2195,-0.2352,-0.2352,-0.2038,-0.1884,-0.165,-0.1415,-0.1021,-0.055,-0.0157,0.066,0.1312,0.181,0.2394,0.3028,0.3763,0.4538,0.5157,0.5702,0.6285,0.6939,0.748,0.154,0.2128,0.2755,0.3291,0.3657,0.4109,0.455,0.4409,0.4053,0.0,0.0,0.0,0.0,0.0,0.0,0.0,0.0,0.0,0.147,0.0,0.0,0.1051,0.0658,0.0106,-0.0582,-0.0393,0.0794,0.0,0.0,0.0,0.0,0.0,1.0985,1.0205,0.9667,0.0,0.0,0.0,0.4829,0.0,0.2462,0.159,0.0,0.0085,-0.0697,-0.1573,-0.2939,-0.4034,-0.4823,0.0,-0.5969,-0.6597,0.0,-0.7574,0.0,0.0,0.0,0.0,0.0,0.0,0.0,0.0,-1.2608,0.0,0.0,0.0,-1.5479,-1.6452,0.0,0.0,0.0,0.0,0.0,0.0,0.0,0.0,0.0,0.0,0.0,0.0,0.0,0.0,0.0,0.0,0.0,-0.0964,-0.0063,0.0486,0.0755,0.0,-0.1021,-0.2275,-0.2749,-0.3062,-0.3212,-0.329,-0.3136,-0.2668,-0.2669,-0.2356,-0.1808,-0.1572,-0.1257,-0.0709,0.033,0.1065,0.1419,0.2229,0.2867,0.3297,0.4151,0.4927,0.5637,0.6086,0.6869,0.7683,0.0997,0.1427,0.1816,0.2234,0.2694,0.3095,0.3403,0.2906,0.251,0.0,0.0,0.0,0.0,0.0,0.0,0.0,0.0,0.1408,0.0,0.0,0.0,0.0971,0.0638,0.0057,-0.0959,-0.0527,0.0454,0.0,0.4131,0.0,0.0,0.0,0.9847,0.9489,0.8971,0.0,0.713,0.0,0.0,0.0,0.0,0.0,0.0,-0.0496,-0.1559,-0.2924,-0.3751,-0.4389,-0.4996,0.0,-0.6096,0.0,0.0,0.0,0.0,0.0,0.0,0.0,0.0,0.0,0.0,0.0,0.0,0.0,0.0,0.0,-1.5948,0.0,0.0,0.0,0.0,0.0,0.0,0.0,0.0,0.0,0.0,0.0,0.0,0.0,0.0,0.0,0.0,0.0,0.0,0.0,0.0,-0.0662,-0.0073,-0.1058,-0.2236,-0.3366,-0.407,-0.438,-0.4302,-0.4229,-0.4075,-0.3761,-0.337,-0.2902,-0.2434,-0.1962,-0.1492,-0.0866,0.0,0.0648,0.1103,0.179,0.2345,0.2824,0.3526,0.442,0.5433,0.5891,0.6624,0.7425,0.0618,0.0852,0.1099,0.1435,0.176,0.2093,0.2292,0.1746,0.1411,0.0,0.0,0.0,0.133,0.1552,0.0,0.0,0.1425,0.1517,0.0,0.0,0.1217,0.0974,0.0615,0.0,0.0,-0.0618,0.0107,0.1152,0.3155,0.0,0.0,0.0,0.0,0.8521,0.0,0.7555,0.6759,0.0,0.0,0.2958,0.1659,0.052,-0.0532,-0.106,-0.2229,-0.3737,-0.4202,-0.4565,-0.5082,-0.567,-0.6169,0.0,-0.6929,0.0,0.0,0.0,0.0,0.0,-0.9372,0.0,0.0,0.0,0.0,0.0,0.0,0.0,0.0,0.0,0.0,0.0,0.0,0.0,0.0,0.0,0.0,0.0,0.0,0.0,0.0,0.0,0.0,0.0,0.0,0.0,0.0,0.0,0.0,0.0,-0.1343,-0.2435,-0.3571,-0.4414,-0.5297,-0.555,-0.5237,-0.5085,-0.4851,-0.4538,-0.3992,-0.3526,-0.3059,-0.2508,-0.1882,-0.11,-0.0483,0.0161,0.0787,0.1288,0.1843,0.251,0.3057,0.3895,0.4945,0.5508,0.6305,0.7034,0.0431,0.0511,0.0,0.0,0.0,0.1008,0.1343,0.1343,0.1176,0.0,0.0,0.0,0.0,0.0,0.0,0.0,0.0,0.14,0.1491,0.0,0.1236,0.1088,0.0524,-0.0062,0.0,0.0,-0.033,0.0792,0.2276,0.0,0.0,0.0,0.0,0.0,0.7162,0.6694,0.5718,0.4967,0.3886,0.2614,0.1345,-0.0078,-0.1394,0.0,-0.2527,-0.3573,-0.409,0.0,0.0,-0.5583,-0.6141,0.0,0.0,0.0,0.0,0.0,0.0,0.0,0.0,0.0,0.0,-1.1487,0.0,0.0,0.0,0.0,-1.5858,0.0,0.0,0.0,0.0,0.0,0.0,-1.8304,0.0,0.0,0.0,0.0,0.0,0.0,0.0,0.0,0.0,0.0,0.0,0.0,0.0,0.0,-0.3276,-0.4198,-0.49,-0.5361,-0.6325,-0.6556,-0.586,-0.5702,-0.5389,-0.5002,-0.4538,-0.4151,-0.3763,-0.329,-0.2663,-0.1806,-0.0966,-0.0241,0.0393,0.1048,0.1684,0.2275,0.2668,0.3264,0.4061,0.4945,0.5837,0.6729,0.0,0.0,0.0,0.0,0.0,0.0765,0.0874,0.0629,0.0,0.0,0.0,0.0,0.0,0.0,0.1331,0.0,0.0,0.126,0.1579,0.1238,0.0,0.0,0.0,-0.0068,0.0,0.0,-0.0612,0.0227,0.1417,0.0,0.0,0.0,0.0,0.0,0.0,0.5269,0.0,0.0,0.0,0.0,0.0,-0.1314,-0.2318,0.0,0.0,-0.3415,-0.4068,-0.4565,0.0,-0.5593,-0.5843,-0.6087,-0.6813,-0.7292,-0.7504,-0.7768,-0.8295,0.0,0.0,0.0,-1.0656,-1.1152,0.0,0.0,0.0,0.0,0.0,0.0,0.0,0.0,0.0,0.0,0.0,-1.7711,0.0,0.0,0.0,0.0,0.0,0.0,0.0,0.0,0.0,0.0,0.0,0.0,0.0,0.0,0.0,-0.5199,-0.5981,-0.6537,-0.7155,-0.7322,-0.6942,-0.6791,-0.6405,-0.5867,-0.5243,-0.4696,-0.4151,-0.3444,-0.2663,-0.1883,-0.1346,-0.0633,0.0157,0.0634,0.1187,0.1885,0.2512,0.3153,0.3734,0.4681,0.5482,0.6269,0.0824,0.0,0.0,0.0,0.0,0.0,0.0,0.0,0.0,0.0,0.0471,0.0,0.0962,0.0,0.1274,0.0,0.1252,0.112,0.1309,0.0963,0.0,0.0532,0.0222,0.0,0.0,0.0,-0.0777,-0.0119,0.0,0.1836,0.0,0.0,0.0,0.0,0.0,0.3895,0.3484,0.0,0.183,0.0,0.0,-0.2321,0.0,0.0,-0.3275,0.0,0.0,-0.4476,-0.4819,-0.5339,-0.5686,-0.5889,-0.6376,-0.6919,-0.735,-0.7433,-0.8013,-0.8627,-0.8775,-0.9458,0.0,0.0,-1.1875,0.0,0.0,0.0,0.0,0.0,0.0,0.0,0.0,0.0,0.0,0.0,0.0,0.0,0.0,0.0,0.0,0.0,0.0,0.0,0.0,0.0,-1.6892,-1.2714,0.0,0.0,0.0,0.0,-0.6982,-0.7398,-0.7957,-0.8093,-0.7714,-0.7484,-0.7103,-0.6486,-0.5789,-0.5165,-0.4616,-0.3837,-0.2978,-0.2196,-0.1727,-0.1021,-0.0157,0.0317,0.0955,0.1671,0.2327,0.2961,0.3497,0.4398,0.5279,0.6102,0.0,0.0,0.0,0.0,0.0382,0.0,0.0,0.0,0.0286,0.0,0.0478,0.077,0.0785,0.0949,0.1214,0.1428,0.1195,0.0,0.0696,0.0668,0.0,0.0,-0.0076,-0.0439,-0.0803,0.0,0.0,0.0,0.0,0.0,0.0,0.0,0.0,0.0,0.2807,0.0,0.2054,0.1457,0.0726,-0.0219,-0.2077,-0.3059,-0.3368,-0.3684,0.0,-0.3961,-0.4278,-0.4372,-0.444,-0.5103,-0.5593,-0.5876,-0.5966,-0.6505,-0.7114,-0.7103,-0.7696,-0.8403,-0.8403,-0.9013,-0.9809,-1.0459,0.0,0.0,0.0,0.0,-1.4072,0.0,0.0,0.0,0.0,0.0,0.0,0.0,0.0,0.0,0.0,0.0,0.0,0.0,0.0,0.0,0.0,-1.9488,-1.6604,-1.5333,-1.1474,0.0,0.0,0.0,0.0,-0.7863,-0.8644,-0.8718,-0.8178,-0.794,-0.7553,-0.6942,-0.6022,-0.5398,-0.5004,-0.4389,-0.3608,-0.2747,-0.2195,-0.1412,-0.0551,0.0081,0.0894,0.1709,0.2167,0.2657,0.3331,0.4121,0.5165,0.6232,0.1338,0.0968,0.0588,0.0,-0.0193,-0.0096,0.0,0.0,0.0,0.0,0.0393,0.0491,0.05,0.0678,0.0948,0.0953,0.0827,0.0,0.0,0.0,0.0,0.0326,-0.0079,-0.0459,-0.09,-0.1236,0.0,-0.1018,0.0,0.0,0.056,0.0,0.0,0.0,0.0,0.0,0.0703,0.0134,-0.0781,-0.1876,-0.2863,-0.3528,0.0,0.0,-0.4408,-0.4449,-0.4686,-0.5007,-0.5401,-0.5468,-0.558,-0.5787,-0.6347,-0.6585,-0.6687,-0.72,-0.7671,-0.8012,-0.8322,-0.9013,-0.9702,-0.998,-1.0791,-1.1741,0.0,0.0,0.0,0.0,0.0,0.0,0.0,0.0,0.0,0.0,0.0,0.0,0.0,0.0,0.0,0.0,0.0,0.0,0.0,-1.9804,-1.7606,-1.3481,-1.3024,0.0,0.0,0.0,0.0,-0.9055,-0.9158,-0.9246,-0.9241,-0.8551,-0.794,-0.7326,-0.6637,-0.5941,-0.524,-0.4618,-0.3837,-0.2978,-0.2352,-0.1648,-0.0787,-0.0161,0.0651,0.1468,0.1917,0.268,0.358,0.4545,0.5257,0.5776,0.1242,0.0,0.0,-0.0097,0.0,0.0,0.0,0.0,0.0,0.0199,0.0198,0.0,0.0199,0.0388,0.0477,0.0477,0.0551,0.0,0.0,0.0,0.0,0.0,-0.024,-0.0546,-0.077,-0.1263,0.0,-0.1271,0.0,0.0,-0.0286,0.0,0.0,0.0,0.0,-0.0183,0.0,-0.1422,-0.217,-0.2921,-0.3663,0.0,0.0,-0.4698,-0.4932,-0.501,-0.5243,-0.5589,-0.596,-0.5738,-0.5792,-0.5964,-0.6356,-0.6537,-0.6592,-0.7208,-0.7484,-0.771,-0.8025,-0.8632,-0.9085,-0.9207,-0.9921,-1.0721,-1.1224,-1.1772,-1.2374,0.0,0.0,0.0,0.0,0.0,0.0,0.0,0.0,0.0,0.0,0.0,0.0,0.0,0.0,0.0,0.0,-1.9098,-1.7753,-1.4378,-1.3555,0.0,0.0,0.0,0.0,0.0,-0.9572,-0.9595,-0.9695,-0.9089,-0.8479,-0.7714,-0.7099,-0.6247,-0.5395,-0.4774,-0.4073,-0.321,-0.2586,-0.1884,-0.1182,-0.0407,0.033,0.1158,0.1946,0.2815,0.3665,0.4426,0.5066,0.5635,0.0961,0.0,0.0,0.0,0.0,0.0,0.0,-0.0199,0.0,0.0,0.0,-0.0099,-0.0099,-0.0097,-0.0095,-0.0095,0.0,0.0,-0.0628,-0.0346,-0.0169,-0.0421,-0.0566,-0.0631,-0.0628,-0.1276,0.0,0.0,0.0,0.0,-0.0583,0.0,0.0,0.0,0.0,0.0,0.0,-0.3002,-0.3511,0.0,-0.4457,-0.4698,-0.4618,-0.5165,-0.5398,-0.5479,-0.5783,-0.6099,-0.6335,-0.6093,-0.6177,-0.6338,-0.6338,-0.649,-0.6641,-0.7026,-0.7253,-0.748,-0.7617,-0.7986,-0.8266,-0.8364,-0.8669,-0.9097,-0.9879,-1.0281,-1.08,-1.1608,-1.2336,0.0,0.0,0.0,0.0,0.0,0.0,0.0,0.0,0.0,0.0,0.0,0.0,0.0,0.0,0.0,-1.7397,-1.6054,0.0,0.0,0.0,0.0,0.0,0.0,-1.0016,0.0,-0.9992,0.0,-0.8941,-0.8178,-0.7403,-0.6553,-0.5699,-0.5085,-0.4307,-0.3446,-0.2823,-0.2199,-0.1499,-0.0661,0.0169,0.0934,0.2073,0.2873,0.3399,0.3907,0.4604,0.5499,0.0,0.0,0.0,0.0,0.0,-0.0099,-0.0101,-0.0398,-0.0494,-0.01,-0.0402,0.0,-0.0402,-0.0292,-0.0381,-0.0668,-0.0459,0.0,0.0,0.0,0.0,-0.0674,-0.0657,-0.0721,-0.0865,-0.0993,-0.1091,0.0,-0.1303,-0.135,-0.1528,0.0,0.0,0.0,0.0,0.0,-0.3571,-0.4146,0.0,-0.4636,-0.5043,-0.5246,-0.5404,-0.5479,-0.5559,-0.5637,-0.6025,-0.6486,-0.6791,-0.6868,-0.6795,-0.6644,-0.6791,-0.6563,-0.6412,-0.6868,-0.6942,-0.6988,-0.708,-0.7335,-0.7465,-0.7442,-0.7614,-0.7889,-0.8419,-0.8941,-0.9524,-1.0212,-1.0836,-1.1149,-1.0965,0.0,0.0,0.0,0.0,0.0,0.0,0.0,0.0,0.0,0.0,0.0,0.0,0.0,0.0,0.0,0.0,0.0,0.0,0.0,0.0,0.0,0.0,0.0,0.0,0.0,0.0,-0.8851,-0.8012,-0.7246,-0.6405,-0.578,-0.4924,-0.3912,-0.3136,-0.2277,-0.1499,-0.0661,0.0258,0.1063,0.166,0.2197,0.2761,0.3233,0.3862,0.4632,0.0,0.0,0.0,0.0,0.0,0.0,0.0,-0.0498,0.0,-0.01,-0.0493,-0.0787,-0.0597,-0.0577,-0.0754,-0.1143,-0.0827,-0.0718,-0.1076,-0.0958,-0.0936,-0.101,-0.0977,0.0,-0.11,-0.1304,-0.1478,-0.1685,-0.1818,-0.1985,0.0,-0.2138,-0.2297,-0.2773,0.0,-0.4025,0.0,0.0,0.0,-0.5606,-0.5604,-0.5709,-0.5941,-0.5944,-0.6025,-0.6177,-0.6486,-0.6791,-0.7022,-0.6868,-0.6718,-0.6641,-0.6714,-0.6563,-0.6412,-0.6788,-0.6729,-0.6497,-0.6645,-0.6633,-0.6577,-0.6537,-0.6676,-0.6895,-0.7166,-0.7707,-0.8361,-0.8924,-0.9454,-0.9803,-0.9847,-1.0173,0.0,0.0,0.0,0.0,0.0,0.0,0.0,0.0,0.0,0.0,0.0,0.0,0.0,0.0,0.0,0.0,0.0,0.0,0.0,0.0,0.0,0.0,0.0,0.0,0.0,-0.8998,-0.8394,-0.7476,-0.6402,-0.5857,-0.5002,-0.3917,-0.3137,-0.2433,-0.1812,-0.0825,0.0,0.0806,0.133,0.1868,0.242,0.2835,0.3464,0.4032,0.0,0.05,0.0,0.0,0.0,0.0,0.0,-0.06,-0.0603,-0.0099,-0.0585,-0.0874,-0.0789,-0.0954,-0.1218,-0.1524,-0.1195,-0.1166,-0.1525,-0.1386,-0.1353,-0.1513,-0.1456,-0.1421,-0.1492,-0.1696,-0.1801,0.0,0.0,0.0,0.0,-0.2923,-0.3283,-0.3703,0.0,0.0,0.0,0.0,-0.6003,-0.6318,-0.617,-0.617,-0.6318,-0.6409,-0.6563,-0.6714,-0.6865,-0.7099,-0.7184,-0.6872,-0.6718,-0.6637,-0.6563,-0.6412,-0.6335,-0.656,-0.6322,-0.5999,-0.6108,-0.5918,-0.5626,-0.555,-0.5621,-0.5762,-0.5969,-0.6531,-0.7107,-0.7634,-0.8105,-0.845,-0.882,-0.9051,0.0,0.0,0.0,0.0,0.0,0.0,0.0,0.0,0.0,0.0,0.0,0.0,0.0,0.0,0.0,0.0,0.0,0.0,0.0,0.0,0.0,0.0,-1.0791,0.0,-0.9911,0.0,-0.8627,-0.7706,-0.6318,-0.5931,-0.5082,-0.3919,-0.3215,-0.2603,-0.1917,-0.1082,-0.0346,0.0358,0.0893,0.143,0.1973,0.2408,0.2857,0.3406,0.0,0.0,0.0,0.0,0.0,0.0,0.0,-0.0303,-0.0707,-0.0403,-0.0805,-0.1106,-0.0806,-0.1363,-0.1809,-0.1812,-0.2022,-0.2064,-0.2154,-0.2019,-0.2061,-0.2188,-0.1806,-0.1764,-0.2119,-0.1803,-0.1742,0.0,0.0,0.0,0.0,0.0,-0.4301,-0.5051,0.0,0.0,0.0,-0.6596,-0.6776,-0.6861,-0.6788,-0.6784,-0.6861,-0.6865,-0.6865,-0.6865,-0.7103,-0.718,-0.7184,-0.7184,-0.7022,-0.6788,-0.6412,-0.6338,-0.6261,-0.587,-0.5705,-0.5591,-0.5309,-0.5035,-0.4767,-0.4437,-0.439,-0.45,-0.4691,-0.515,-0.5694,-0.6248,-0.6547,-0.685,-0.7464,-0.7031,-0.6775,0.0,0.0,0.0,0.0,0.0,0.0,0.0,0.0,0.0,0.0,0.0,0.0,0.0,0.0,0.0,0.0,0.0,0.0,0.0,0.0,-1.1626,-1.1137,-1.0683,0.0,-0.9544,-0.8784,-0.7863,-0.6784,-0.6318,-0.5467,-0.4307,-0.3602,-0.257,-0.1422,-0.1372,-0.079,0.0,0.0088,0.053,0.1253,0.1492,0.1853,0.2423,0.0,0.0,0.0,0.0,0.0,0.0,0.0,-0.0909,-0.1208,-0.1094,-0.1092,-0.1292,-0.149,-0.1535,-0.178,-0.2062,-0.2282,-0.2424,-0.2424,-0.2462,-0.2665,-0.286,-0.2467,-0.241,-0.2743,-0.2433,-0.2365,0.0,0.0,0.0,0.0,0.0,0.0,0.0,0.0,-0.656,-0.699,-0.6994,-0.7171,-0.7411,-0.7176,-0.7176,-0.7249,-0.7249,-0.7249,-0.7249,-0.733,-0.7407,-0.7334,-0.7099,-0.6942,-0.6865,-0.6563,-0.6254,-0.6022,-0.5715,-0.5269,-0.4876,-0.4609,-0.413,-0.3602,-0.3368,-0.3316,-0.3286,-0.3151,-0.3616,-0.4114,-0.4443,-0.488,-0.519,-0.5412,-0.54,-0.5345,0.0,0.0,0.0,0.0,0.0,0.0,0.0,0.0,0.0,0.0,0.0,0.0,0.0,0.0,-1.2301,-1.1693,0.0,0.0,-1.1798,0.0,-1.1031,-1.0752,-1.0309,-0.9776,-0.9231,-0.8703,-0.771,-0.6472,-0.6009,-0.5042,-0.3685,-0.3124,-0.253,-0.1853,-0.1464,-0.1048,-0.0528,-0.0177,0.0267,0.0717,0.1244,0.1514,0.1794,0.0096,0.0,0.0294,0.0,-0.02,-0.0401,-0.0501,-0.1097,-0.1582,-0.1658,-0.1655,-0.1658,-0.1865,-0.1896,-0.1948,-0.2426,-0.2643,-0.2781,-0.2782,-0.2989,-0.3265,-0.3531,-0.3207,0.0,-0.3446,-0.3292,-0.3226,-0.3385,-0.3683,0.0,0.0,0.0,0.0,0.0,-0.6668,-0.7127,-0.7592,-0.7372,-0.7526,-0.7876,-0.7569,-0.7565,-0.7787,-0.7714,-0.7714,-0.7714,-0.7642,-0.7565,-0.7565,-0.7173,-0.7019,-0.6865,-0.6563,-0.6177,-0.5786,-0.5401,-0.4849,-0.4288,-0.3921,-0.3305,-0.2717,-0.2391,-0.2297,-0.2149,-0.1812,-0.2146,-0.2584,-0.2746,-0.3258,-0.3572,-0.342,-0.36,-0.3553,0.0,0.0,0.0,0.0,0.0,0.0,0.0,0.0,-0.8621,0.0,0.0,0.0,0.0,0.0,-1.1172,-1.0987,0.0,0.0,0.0,0.0,0.0,0.0,0.0,-0.9385,-0.8851,-0.8322,-0.7399,-0.6089,-0.5506,-0.4468,-0.3255,-0.2884,-0.2594,-0.2297,-0.1739,-0.1315,-0.0966,-0.0446,0.0,0.0359,0.0897,0.1166,0.1345,0.0093,0.0,0.0096,0.0392,0.0,-0.0295,-0.0098,-0.087,-0.1622,-0.1813,-0.2288,-0.2401,-0.196,-0.2276,-0.2707,-0.2947,-0.3121,-0.3317,-0.3587,-0.378,-0.3959,0.0,0.0,-0.4014,-0.4387,-0.4224,-0.4253,-0.4603,0.0,0.0,-0.5297,-0.6222,-0.682,-0.722,-0.7582,-0.7755,-0.7783,-0.8021,-0.8102,-0.8102,-0.8102,-0.8178,-0.8403,-0.8178,-0.8255,-0.8327,-0.7953,-0.7804,-0.7804,-0.7561,-0.7249,-0.6865,-0.6412,-0.5948,-0.5482,-0.4857,-0.4392,-0.3856,-0.3253,-0.2696,-0.2169,-0.168,-0.1304,-0.1076,-0.0874,-0.0805,-0.0923,-0.1367,-0.1751,-0.1986,-0.1758,-0.1539,-0.1235,-0.0903,0.0,0.0,0.0,0.0,0.0,0.0,-0.5198,-0.6431,-0.6701,0.0,0.0,0.0,0.0,0.0,0.0,0.0,0.0,-1.0773,-1.0627,0.0,-0.9979,-0.9515,-0.9015,-0.8403,-0.7787,-0.6942,-0.5867,-0.4728,-0.3974,-0.35,-0.3233,-0.2863,-0.235,-0.2223,-0.1793,-0.1076,-0.0807,-0.0449,0.0,0.0269,0.0538,0.0807,0.0,0.0,0.0,0.0098,-0.0291,-0.0674,-0.0578,-0.1437,-0.2098,-0.2383,-0.2824,-0.3105,-0.317,-0.3102,-0.3152,0.0,-0.3641,-0.3942,0.0,-0.445,-0.4743,-0.4986,-0.4789,-0.4925,-0.545,-0.5126,-0.5101,-0.5426,0.0,0.0,0.0,-0.7127,-0.7516,-0.7626,-0.8005,-0.8263,-0.8394,-0.8623,-0.8703,-0.8703,-0.8551,-0.8479,-0.8403,-0.8327,-0.8255,-0.8178,-0.8178,-0.803,-0.7804,-0.7561,-0.7249,-0.6865,-0.6412,-0.587,-0.5306,-0.4604,-0.3953,-0.3229,-0.254,-0.1845,-0.1254,-0.0821,-0.0338,0.0067,0.0459,0.0695,0.0669,0.0179,0.0057,0.0,0.0,0.0471,0.0979,0.1526,0.0,0.0,0.0,0.0,0.0,0.0,0.0,-0.3605,0.0,-0.5486,0.0,0.0,0.0,0.0,0.0,0.0,0.0,0.0,-0.9268,0.0,-0.9066,-0.864,-0.8114,-0.7553,-0.7096,-0.617,-0.4854,-0.4254,-0.3655,-0.3097,-0.2899,-0.2672,-0.2302,-0.2034,-0.1601,-0.0966,-0.0803,-0.0449,0.009,0.0448,0.0628,0.0807,0.0186,0.0093,0.0,0.0096,-0.038,-0.0754,-0.0943,-0.1781,-0.2425,-0.2701,-0.3224,-0.3593,-0.3764,-0.3795,0.0,-0.3696,-0.408,0.0,-0.4565,-0.501,-0.5385,-0.5571,-0.5488,-0.5694,-0.6156,0.0,0.0,-0.6335,-0.6629,-0.7009,-0.7393,-0.7988,-0.8275,-0.8237,-0.8703,-0.8932,-0.9084,-0.916,-0.9231,-0.9306,-0.9084,-0.9008,-0.8937,-0.8784,-0.8713,-0.8632,-0.8556,-0.8327,-0.7949,-0.7638,-0.713,-0.6619,-0.6173,-0.5448,-0.4717,-0.4234,-0.343,-0.2557,-0.1767,-0.1112,-0.0412,0.0067,0.0671,0.1266,0.2005,0.2266,0.2279,0.2101,0.1992,0.1981,0.202,0.2578,0.3237,0.3757,0.0,0.0,0.0,0.0,0.0,0.0,0.0,0.0,0.0,-0.3169,0.0,0.0,0.0,0.0,0.0,0.0,0.0,-0.8198,-0.8002,0.0,-0.7938,-0.7552,-0.7143,-0.6703,-0.617,-0.5344,-0.4286,-0.3951,-0.343,-0.289,-0.2654,-0.2502,-0.2305,-0.1858,-0.1424,-0.0968,-0.0714,-0.0359,0.0,0.0359,0.0538,0.0807,0.0359,0.0182,0.0,0.0,-0.0277,0.0,-0.1108,-0.1908,-0.2604,-0.2873,-0.3499,-0.3888,-0.3784,-0.4357,-0.4696,-0.451,0.0,0.0,0.0,-0.5453,-0.5703,-0.5716,-0.6114,0.0,-0.6662,-0.6644,-0.6868,-0.7334,-0.771,-0.8016,-0.8178,-0.878,-0.9079,-0.9074,-0.9468,-0.962,-0.962,-0.962,-0.9771,-0.9916,-0.9695,-0.9771,-0.9846,-0.9473,-0.9473,-0.9468,-0.8932,-0.8627,-0.8327,-0.771,-0.6992,-0.6339,-0.566,-0.4825,-0.4021,-0.3734,-0.2838,-0.1823,-0.1049,-0.0411,0.0269,0.1008,0.1743,0.252,0.3599,0.3843,0.3906,0.425,0.4138,0.4059,0.4263,0.4844,0.5446,0.5913,0.6508,0.6753,0.6299,0.0,0.0,0.0,0.0,0.0,0.0,-0.0791,-0.1393,0.0,0.0,0.0,0.0,0.0,0.0,-0.6848,-0.6809,-0.6765,-0.6805,-0.6324,-0.6029,-0.5783,-0.4932,-0.4437,-0.4125,-0.3655,-0.329,-0.2937,-0.2585,-0.2348,-0.2259,-0.1689,-0.1256,-0.0987,-0.0538,-0.0269,0.0,0.0,0.0269,0.0718,0.0,0.0,0.0,-0.0185,-0.0457,-0.0813,-0.1265,-0.198,-0.2708,-0.3206,-0.3801,-0.4246,-0.452,-0.4806,-0.502,-0.5402,-0.5206,-0.528,-0.5542,-0.5813,-0.6186,-0.6541,-0.6756,-0.7015,-0.7458,-0.7475,-0.7783,-0.8322,-0.8623,-0.8927,-0.9241,-0.9539,-0.969,-0.969,-0.9916,-1.0067,-1.0067,-1.0218,-1.0293,-1.0368,-1.0143,-0.9992,-0.9916,-0.9771,-0.962,-0.9322,-0.9246,-0.8861,-0.8327,-0.771,-0.7073,-0.6409,-0.5538,-0.4525,-0.3627,-0.3006,-0.2263,-0.1395,-0.0478,0.027,0.1008,0.1678,0.2963,0.4238,0.5037,0.551,0.5923,0.6199,0.6147,0.6199,0.6478,0.6999,0.7581,0.8107,0.8663,0.8919,0.8545,0.0,0.0,0.0,0.4648,0.3541,0.2359,0.1456,0.0598,0.0,0.0,0.0,0.0,0.0,-0.3889,-0.5738,-0.5818,-0.5853,-0.5789,-0.5454,-0.5052,-0.4535,-0.3834,-0.3379,-0.3089,-0.2873,-0.2546,-0.2167,-0.2247,-0.2011,-0.153,-0.1413,-0.1076,-0.0538,-0.0448,-0.0269,0.0,0.0269,0.0359,0.0538,0.0364,0.0181,0.009,0.0182,-0.0271,-0.0897,-0.1345,-0.2064,-0.2704,-0.337,-0.397,-0.4408,-0.4734,-0.5136,-0.5453,-0.5719,-0.5633,-0.5725,-0.6169,-0.6435,-0.6786,-0.7168,-0.7405,-0.757,-0.7873,-0.7996,-0.8399,-0.9013,-0.9236,-0.9533,-0.9846,-1.0143,-1.0293,-1.0293,-1.0513,-1.0588,-1.0588,-1.0738,-1.0738,-1.0738,-1.0663,-1.0513,-1.0293,-1.0218,-0.9916,-0.9549,-0.9397,-0.8865,-0.8174,-0.7638,-0.6969,-0.6122,-0.5229,-0.423,-0.3201,-0.2355,-0.1581,-0.0754,0.0135,0.1008,0.2013,0.3278,0.4338,0.5363,0.6242,0.6812,0.7301,0.7784,0.8039,0.8237,0.8543,0.9173,0.9775,1.025,1.0721,1.0963,1.0629,1.0051,0.0,0.7711,0.6723,0.5667,0.4457,0.3558,0.264,0.1678,0.0,0.0,-0.0435,-0.0956,-0.2222,-0.4224,-0.4421,-0.4439,-0.4485,-0.4129,-0.3795,-0.3368,-0.2978,-0.2759,-0.2553,-0.243,-0.2264,-0.1921,-0.1936,-0.1705,-0.1265,-0.1135,-0.0712,-0.0179,-0.0179,0.0,0.027,0.0272,0.0455,0.0729,0.0538,0.0269,0.018,0.0718,0.0,-0.0897,-0.1436,-0.2064,-0.2782,-0.3497,-0.4032,-0.4478,-0.4748,-0.5366,-0.5811,-0.5808,-0.5897,-0.6166,-0.6792,-0.6966,-0.7277,-0.7658,-0.7867,-0.8104,-0.8231,-0.8421,-0.8784,-0.9397,-0.9771,-1.0067,-1.0368,-1.0738,-1.0887,-1.0962,-1.1111,-1.1186,-1.126,-1.1186,-1.1186,-1.1186,-1.1186,-1.1037,-1.0812,-1.0663,-1.0293,-0.9922,-0.9473,-0.8865,-0.8102,-0.7638,-0.6681,-0.5625,-0.4907,-0.3859,-0.2856,-0.1831,-0.0874,0.0,0.0739,0.1812,0.3215,0.5074,0.5848,0.6415,0.7529,0.808,0.8575,0.9277,0.9881,1.0343,1.0637,1.1353,1.1981,1.2323,1.2686,1.2802,1.2454,0.0,0.0,0.9532,0.8684,0.7729,0.6318,0.5521,0.4652,0.3558,0.2726,0.0,0.0,0.0449,-0.0694,-0.2332,-0.2662,-0.2925,-0.3109,-0.2737,-0.2451,-0.2354,-0.2354,-0.222,-0.2101,-0.2066,-0.1989,-0.1779,-0.1549,-0.1324,-0.1097,-0.0777,-0.0352,0.009,0.009,0.0269,0.0629,0.0275,0.0462,0.1017,0.018,0.009,-0.009,-0.0269,-0.0538,-0.0987,-0.1705,-0.2243,-0.2782,-0.3497,-0.4212,-0.4748,-0.4921,-0.5636,-0.608,-0.6251,-0.6694,-0.6877,-0.6795,-0.6966,-0.7327,-0.7835,-0.8105,-0.8414,-0.8825,-0.9034,-0.9397,-0.9771,-1.0067,-1.0438,-1.0962,-1.1186,-1.1484,-1.1781,-1.1706,-1.1706,-1.1855,-1.1706,-1.1632,-1.1632,-1.1632,-1.1409,-1.1037,-1.1037,-1.0663,-1.0067,-0.9695,-0.9165,-0.8475,-0.7561,-0.6608,-0.5625,-0.4619,-0.3574,-0.2505,-0.1491,-0.0336,0.0739,0.1344,0.3017,0.4948,0.6195,0.7261,0.8318,0.9218,0.9993,1.0726,1.1312,1.2011,1.2591,1.2842,1.3499,1.4029,1.408,1.4247,1.4247,0.0,0.0,1.3096,1.1693,1.1072,1.0106,0.8574,0.7511,0.6445,0.5362,0.4659,0.3724,0.2504,0.2232,0.1598,0.0307,-0.0955,-0.1563,-0.164,-0.1582,-0.1533,-0.1492,-0.1492,-0.1338,-0.1106,-0.1366,-0.1203,-0.0791,-0.0824,-0.0672,-0.0422,-0.0431,-0.0176,0.0359,0.0359,0.0359,0.045,0.0643,0.064,0.0544,0.0539,0.0269,0.009,0.0448,-0.0179,-0.0987,-0.1885,-0.2244,-0.2693,-0.3497,-0.4032,-0.4476,-0.4921,-0.5636,-0.6142,-0.6246,-0.6923,-0.7288,-0.7118,-0.745,-0.7861,-0.8296,-0.8459,-0.8986,-0.9677,-0.9648,-0.9986,-1.073,-1.0732,-1.0962,-1.1409,-1.1484,-1.1706,-1.2003,-1.2003,-1.2077,-1.2157,-1.2077,-1.1929,-1.1855,-1.1706,-1.1484,-1.126,-1.1037,-1.0663,-1.0143,-0.962,-0.8934,-0.8085,-0.7488,-0.6552,-0.5444,-0.452,-0.3459,-0.2436,-0.1423,0.0201,0.1879,0.2952,0.4417,0.5943,0.7181,0.8255,0.9252,1.0342,1.1188,1.1939,1.2831,1.3619,1.4304,1.4758,1.5288,1.5745,1.595,1.5988,0.0,0.0,1.5526,1.4924,1.3892,1.3209,1.2281,1.0877,0.9585,0.8419,0.7389,0.6406,0.5406,0.4449,0.3887,0.3227,0.2513,0.0724,-0.0209,-0.0148,-0.0301,-0.0383,-0.0471,-0.0629,-0.0707,-0.055,-0.0795,-0.0794,-0.0629,-0.0643,-0.0494,-0.0253,-0.0255,0.0087,0.0538,0.0538,0.0718,0.0899,0.0643,0.0648,0.0745,0.0896,0.0449,0.018,0.0807,0.0,-0.1066,-0.2044,-0.2305,-0.2657,-0.3469,-0.3824,-0.4273,-0.4919,-0.5612,-0.6087,-0.6248,-0.7083,-0.753,-0.7443,-0.7982,-0.8446,-0.8691,-0.907,-0.9623,-1.04,-1.0277,-1.0687,-1.1599,-1.1386,-1.1471,-1.1855,-1.1855,-1.2003,-1.2231,-1.2378,-1.2452,-1.2526,-1.2378,-1.2305,-1.215,-1.1929,-1.1706,-1.1409,-1.1037,-1.0628,-1.0146,-0.9604,-0.8692,-0.7815,-0.7343,-0.6339,-0.5164,-0.4286,-0.3199,-0.2071,-0.1082,0.0939,0.3084,0.4353,0.5547,0.6732,0.8161,0.916,1.0174,1.1443,1.2307,1.3108,1.416,1.5034,1.5785,1.6389,1.6926,1.7376,1.769,0.0,0.0,0.0,1.7116,1.6541,1.5749,1.5091,1.4194,1.2851,1.1551,1.0374,0.9334,0.8101,0.7089,0.6356,0.546,0.4699,0.414,0.2031,0.0987,0.1166,0.0743,0.0534,0.055,0.0079,-0.0079,0.0,-0.0314,-0.0393,-0.0314,-0.0395,-0.0325,-0.0168,0.0,0.0347,0.0718,0.0807,0.0987,0.1259,0.0826,0.0841,0.095,0.0625,0.0269,-0.009,-0.0448,-0.0702,-0.1208,-0.2158,-0.2303,-0.2554,-0.3386,-0.3913,-0.4378,-0.491,-0.5537,-0.607,-0.6405,-0.7224,-0.7708,-0.7858,-0.83,-0.8631,-0.8882,-0.9743,-1.0377,-1.0649,-1.1008,-1.135,-1.1812,-1.18,-1.1961,-1.2224,-1.2224,-1.2452,-1.282,-1.2826,-1.2973,-1.3119,-1.2746,-1.2599,-1.2526,-1.2305,-1.2003,-1.1632,-1.1409,-1.0887,-1.0137,-0.9697,-0.8965,-0.7989,-0.7155,-0.5971,-0.4682,-0.3772,-0.2542,-0.1213,-0.0134,0.1942,0.4082,0.4875,0.6129,0.7647,0.9064,1.0319,1.148,1.2777,1.3733,1.4559,1.532,1.635,1.718,1.7693,1.8334,1.8867,1.902,0.0,0.0,1.8358,1.8387,1.8017,1.6933,1.6558,1.5797,1.4208,1.3113,1.2066,1.0895,0.9765,0.8673,0.7618,0.6998,0.6129,0.4797,0.282,0.1867,0.189,0.1386,0.1199,0.1257,0.0786,0.0628,0.0786,0.0393,0.0314,0.0472,0.0322,0.0247,0.0253,0.0344,0.0528,0.0718,0.0987,0.1076,0.1169,0.1378,0.1111,0.0746,0.0523,0.0,-0.0523,-0.1072,-0.1156,-0.1493,-0.2157,-0.2481,-0.2725,-0.3318,-0.3657,-0.4095,-0.473,-0.5289,-0.5736,-0.6239,-0.7012,-0.7556,-0.7784,-0.8307,-0.8794,-0.9336,-0.9923,-1.059,-1.1321,-1.137,-1.1709,-1.2236,-1.2196,-1.2263,-1.2526,-1.2599,-1.2746,-1.29,-1.29,-1.2973,-1.2973,-1.2746,-1.2599,-1.2526,-1.2077,-1.1855,-1.1613,-1.1004,-1.0519,-1.0075,-0.943,-0.8634,-0.7767,-0.6933,-0.5887,-0.476,-0.3612,-0.2437,-0.1074,0.1006,0.2813,0.448,0.5731,0.6976,0.828,0.9755,1.1017,1.2258,1.3545,1.4451,1.5352,1.6475,1.7357,1.8089,1.8815,1.9364,1.9799,1.9938,0.0,1.9909,1.9654,1.9609,1.9359,1.8653,1.8101,1.7382,1.6287,1.4959,1.3747,1.2632,1.1476,1.0307,0.9251,0.7902,0.6785,0.5804,0.449,0.3502,0.284,0.2516,0.2202,0.2041,0.1648,0.1413,0.1335,0.0864,0.0707,0.0787,0.0645,0.0577,0.0591,0.0777,0.0881,0.0987,0.1166,0.1256,0.1257,0.1267,0.1107,0.0945,0.0685,0.0,-0.0751,-0.1128,-0.1311,-0.1561,-0.212,-0.2364,-0.2607,-0.308,-0.3325,-0.375,-0.4532,-0.4999,-0.5437,-0.6083,-0.6771,-0.7392,-0.769,-0.8488,-0.9222,-0.9767,-1.0344,-1.0974,-1.1725,-1.181,-1.2097,-1.2589,-1.2563,-1.2614,-1.2673,-1.2826,-1.29,-1.2973,-1.29,-1.2973,-1.2973,-1.2673,-1.2526,-1.2452,-1.2003,-1.1706,-1.1539,-1.0912,-1.046,-1.0027,-0.9351,-0.8448,-0.7486,-0.6736,-0.5748,-0.4553,-0.3422,-0.1945,-0.0201,0.2012,0.362,0.4951,0.6519,0.7692,0.8918,1.0319,1.164,1.294,1.4145,1.5099,1.6083,1.7379,1.8285,1.9108,1.9918,2.0526,2.0966,2.1159,2.1312,2.1312,2.121,2.1107,2.0862,2.0444,1.9834,1.9045,1.8113,1.6781,1.5465,1.4259,1.2965,1.1661,1.0282,0.8706,0.754,0.688,0.5992,0.5105,0.4196,0.3523,0.3062,0.2744,0.2353,0.204,0.1885,0.1492,0.1262,0.1271,0.097,0.0911,0.1022,0.1038,0.1145,0.1166,0.1345,0.1436,0.1345,0.1166,0.1009,0.0945,0.0935,0.0082,-0.0635,-0.09,-0.1152,-0.1394,-0.1871,-0.1869,-0.2032,-0.252,-0.3005,-0.3602,-0.4351,-0.4608,-0.5192,-0.5993,-0.657,-0.7169,-0.7748,-0.8917,-0.9814,-1.0279,-1.0932,-1.1477,-1.1887,-1.2389,-1.2618,-1.2689,-1.2898,-1.2969,-1.29,-1.29,-1.3046,-1.3193,-1.2973,-1.3046,-1.3193,-1.2746,-1.2452,-1.2305,-1.2077,-1.1781,-1.1409,-1.1409,-1.0713,-0.974,-0.9614,-0.8543,-0.71,-0.6623,-0.5403,-0.3816,-0.2952,-0.0737,0.1811,0.2889,0.4228,0.5686,0.7042,0.8334,0.9558,1.0696,1.2135,1.3563,1.4678,1.5728,1.6832,1.7886,1.9112,2.0249,2.096,2.1809,2.2523,2.2937,2.2976,2.2976,2.2976,2.2884,2.2671,2.2265,2.1801,2.094,1.9559,1.8418,1.7185,1.571,1.4273,1.2634,1.0647,0.9378,0.8461,0.7817,0.7086,0.6428,0.5796,0.4378,0.3595,0.3368,0.2981,0.2668,0.2511,0.2275,0.2144,0.1949,0.1546,0.1419,0.1651,0.1218,0.1145,0.1436,0.1436,0.1436,0.1345,0.1166,0.0909,0.065,0.0805,0.008,-0.0554,-0.0732,-0.1062,-0.1388,-0.1628,-0.1813,-0.2151,-0.2525,-0.313,-0.3645,-0.4181,-0.4887,-0.5559,-0.5934,-0.6507,-0.7243,-0.8132,-0.9054,-0.9786,-1.0259,-1.1095,-1.1564,-1.1717,-1.2178,-1.2388,-1.2305,-1.2545,-1.2688,-1.2673,-1.282,-1.29,-1.2973,-1.2746,-1.2746,-1.2753,-1.2526,-1.2157,-1.1855,-1.1632,-1.126,-1.072,-1.0398,-0.9769,-0.8996,-0.8478,-0.7677,-0.6749,-0.6011,-0.5055,-0.3885,-0.1811,0.0134,0.1877,0.322,0.4556,0.5877,0.7437,0.879,1.0072,1.1384,1.2512,1.3752,1.5362,1.6336,1.7371,1.9034,2.002,2.076,2.1546,2.2243,2.2711,2.2858,2.3017,2.3109,2.3029,2.2897,2.2644,2.2265,2.1814,2.1126,2.0175,1.932,1.8251,1.7032,1.4896,1.3137,1.1931,1.0575,0.9501,0.871,0.8192,0.7543,0.676,0.5423,0.4508,0.407,0.3684,0.3372,0.3134,0.2666,0.2362,0.2301,0.1937,0.1819,0.187,0.1641,0.1584,0.1705,0.1436,0.1345,0.1166,0.1166,0.0917,0.0757,0.0786,0.0236,-0.0237,-0.056,-0.0971,-0.1299,-0.1528,-0.1731,-0.2001,-0.2282,-0.2899,-0.3508,-0.4032,-0.4769,-0.5456,-0.5959,-0.6747,-0.7631,-0.8607,-0.9252,-0.9864,-1.0333,-1.1111,-1.1605,-1.169,-1.2157,-1.2324,-1.2201,-1.2466,-1.2599,-1.2599,-1.2826,-1.29,-1.29,-1.2673,-1.2526,-1.2452,-1.2305,-1.1929,-1.1484,-1.1335,-1.0962,-1.0421,-1.0131,-0.9556,-0.8827,-0.8185,-0.7355,-0.6443,-0.5509,-0.4287,-0.2883,-0.0738,0.0805,0.2213,0.362,0.4885,0.6203,0.7702,0.8994,1.0332,1.1826,1.2887,1.4038,1.5827,1.6886,1.79,1.9586,2.073,2.1567,2.2133,2.2884,2.3508,2.3872,2.4065,2.4257,2.4487,2.4359,2.4133,2.3848,2.318,2.2518,2.1871,2.0509,1.8973,1.7201,1.536,1.3897,1.3071,1.1682,1.0596,0.9892,0.9124,0.8429,0.7688,0.6561,0.5619,0.4774,0.4387,0.3919,0.3526,0.3136,0.2838,0.2629,0.2261,0.2151,0.2303,0.1901,0.1848,0.1885,0.1436,0.1166,0.1076,0.0897,0.0733,0.0566,0.0942,0.055,0.0079,-0.0471,-0.08,-0.1128,-0.1498,-0.1631,-0.183,-0.2039,-0.2569,-0.3275,-0.3948,-0.4444,-0.5139,-0.599,-0.7184,-0.8168,-0.8904,-0.9463,-0.9933,-1.0484,-1.1182,-1.1646,-1.18,-1.2184,-1.2359,-1.2305,-1.2452,-1.2599,-1.2599,-1.2753,-1.2826,-1.2826,-1.2599,-1.2452,-1.2224,-1.2003,-1.1632,-1.1037,-1.1037,-1.0812,-1.0368,-1.0143,-0.9691,-0.9093,-0.8298,-0.732,-0.6173,-0.4995,-0.3282,-0.1344,0.0067,0.141,0.2683,0.3951,0.5345,0.6728,0.7902,0.9204,1.0491,1.2182,1.3336,1.456,1.6136,1.7284,1.8433,1.9736,2.1221,2.2468,2.2866,2.3683,2.4686,2.5579,2.5733,2.5994,2.6681,2.6614,2.6417,2.6294,2.5328,2.4525,2.4017,2.1818,1.9372,1.6978,1.5901,1.4946,1.404,1.2668,1.1632,1.1072,1.0014,0.9099,0.8475,0.7868,0.6865,0.5398,0.4932,0.4465,0.3919,0.3604,0.3333,0.2918,0.2517,0.25,0.2775,0.2084,0.1936,0.2154,0.1346,0.1076,0.0987,0.0538,0.0364,0.0279,0.0783,0.0471,0.0079,-0.0471,-0.0947,-0.1265,-0.1337,-0.1608,-0.1966,-0.2216,-0.2662,-0.3288,-0.4095,-0.4658,-0.5256,-0.5921,-0.7196,-0.8268,-0.877,-0.9611,-1.022,-1.0528,-1.1277,-1.1727,-1.1951,-1.2182,-1.2223,-1.2077,-1.2305,-1.2378,-1.2378,-1.2378,-1.2378,-1.2157,-1.215,-1.2003,-1.1855,-1.1632,-1.126,-1.0887,-1.0663,-1.0218,-0.9544,-0.9306,-0.8791,-0.7997,-0.7292,-0.6475,-0.548,-0.372,-0.235,-0.1143,0.0269,0.1612,0.2885,0.4284,0.5609,0.6929,0.8415,0.991,1.1388,1.2814,1.417,1.5432,1.6792,1.7666,1.8802,2.0692,2.1786,2.2665,2.3697,2.4348,2.5116,2.6014,2.629,2.6391,2.6526,2.6417,2.6233,2.5936,2.5305,2.4709,2.4054,2.1893,2.0058,1.8954,1.7292,1.5864,1.479,1.3691,1.262,1.1508,1.0845,1.0013,0.9094,0.8331,0.7407,0.6328,0.5553,0.5007,0.4693,0.4073,0.3538,0.3242,0.2902,0.2726,0.2715,0.2244,0.2113,0.2154,0.1346,0.0987,0.0718,0.0538,0.0275,0.0,0.0693,0.0546,0.0236,-0.0471,-0.0786,-0.1021,-0.1257,-0.1602,-0.1876,-0.1974,-0.2582,-0.3275,-0.3867,-0.4649,-0.5384,-0.6366,-0.7455,-0.8327,-0.8775,-0.9539,-1.0143,-1.0588,-1.126,-1.1706,-1.2003,-1.2224,-1.2231,-1.215,-1.215,-1.2157,-1.2157,-1.2157,-1.2077,-1.1855,-1.1929,-1.1781,-1.1409,-1.1409,-1.1111,-1.0663,-1.0519,-1.0143,-0.9544,-0.9155,-0.8557,-0.7847,-0.7135,-0.5976,-0.4588,-0.2978,-0.1745,-0.0672,0.0605,0.1879,0.3218,0.455,0.5877,0.7195,0.8479,1.0018,1.1616,1.2924,1.435,1.5781,1.7272,1.8208,1.9222,2.0923,2.2166,2.312,2.3841,2.4653,2.5462,2.6377,2.6595,2.6814,2.7233,2.7133,2.6942,2.6634,2.6,2.5059,2.3725,2.2457,2.109,1.961,1.8262,1.6982,1.5939,1.4791,1.365,1.2638,1.1677,1.0638,0.9625,0.8856,0.8093,0.7173,0.6093,0.5395,0.5002,0.4231,0.3787,0.343,0.3109,0.2763,0.2569,0.2274,0.2132,0.1974,0.1166,0.0812,0.0637,0.0364,0.0,-0.0388,0.0757,0.0618,0.0314,-0.0471,-0.0628,-0.0786,-0.1257,-0.1598,-0.1784,-0.1795,-0.2474,-0.3139,-0.367,-0.4608,-0.5668,-0.6922,-0.7725,-0.8403,-0.8998,-0.9539,-1.0143,-1.0812,-1.126,-1.1706,-1.2003,-1.215,-1.2224,-1.2305,-1.2077,-1.2003,-1.2003,-1.1929,-1.1855,-1.1632,-1.1855,-1.1632,-1.1111,-1.1186,-1.0887,-1.0443,-1.0288,-0.9986,-0.9614,-0.9079,-0.8475,-0.7918,-0.71,-0.5578,-0.3668,-0.2367,-0.1276,-0.0202,0.1008,0.2283,0.3482,0.4818,0.6145,0.7466,0.8663,1.0158,1.1774,1.3016,1.4473,1.602,1.7615,1.8626,1.9624,2.1031,2.244,2.3501,2.3901,2.4874,2.5884,2.6726,2.7026,2.7393,2.8093,2.8173,2.7986,2.7613,2.6719,2.544,2.3609,2.3109,2.205,2.0017,1.9052,1.8161,1.7152,1.5815,1.4666,1.3795,1.2426,1.1153,0.9997,0.9306,0.8637,0.7906,0.6673,0.5805,0.516,0.4465,0.397,0.3577,0.3165,0.2811,0.2351,0.2224,0.1974,0.1705,0.0987,0.0636,0.0556,0.0186,-0.0382,-0.0788,0.0678,0.0618,0.0314,-0.0471,-0.0707,-0.1021,-0.1493,-0.1889,-0.2209,-0.2373,-0.2613,-0.3086,-0.371,-0.4969,-0.6146,-0.7064,-0.7885,-0.8551,-0.9003,-1.0062,-1.0738,-1.1037,-1.1632,-1.2003,-1.2231,-1.1929,-1.1929,-1.2305,-1.2077,-1.2003,-1.2003,-1.1855,-1.1632,-1.1409,-1.1484,-1.1335,-1.1037,-1.0594,-1.0293,-1.0218,-0.9458,-0.9079,-0.878,-0.8403,-0.7944,-0.7439,-0.6599,-0.5014,-0.3105,-0.1681,-0.0739,0.0134,0.1412,0.2552,0.3751,0.515,0.6342,0.763,0.9532,1.0995,1.2362,1.4082,1.5463,1.6793,1.8131,1.8846,1.9712,2.1464,2.2486,2.3478,2.488,2.5514,2.6217,2.7248,2.7824,2.8326,2.8554,2.9003,2.8983,2.8127,2.6817,2.5542,2.4578,2.3544,2.2512,2.153,2.0205,1.8962,1.7999,1.6957,1.561,1.4028,1.2968,1.1764,1.0443,0.9458,0.8789,0.8343,0.7395,0.653,0.5783,0.4774,0.4207,0.3822,0.3411,0.2893,0.2351,0.2224,0.1885,0.1436,0.0897,0.0636,0.0372,0.0096,-0.0293,-0.0788,0.0904,0.0688,0.0385,-0.0462,-0.0685,-0.0909,-0.146,-0.1693,-0.1932,-0.2116,-0.2512,-0.2981,-0.337,-0.4927,-0.617,-0.6784,-0.771,-0.8327,-0.8627,-0.9685,-1.0443,-1.0738,-1.1484,-1.1855,-1.1929,-1.1929,-1.1929,-1.1929,-1.1781,-1.1632,-1.1632,-1.1484,-1.1335,-1.126,-1.1111,-1.0962,-1.0738,-1.0519,-1.0218,-0.9992,-0.9614,-0.9231,-0.8836,-0.82,-0.7635,-0.6907,-0.5499,-0.4206,-0.2951,-0.1554,-0.047,0.047,0.1679,0.295,0.4154,0.5282,0.6606,0.8041,0.9548,1.1093,1.2644,1.4053,1.5489,1.689,1.7969,1.9085,2.0238,2.1593,2.2874,2.4044,2.5068,2.6002,2.6904,2.764,2.8296,2.8825,2.9035,2.9118,2.8853,2.7768,2.6772,2.5863,2.4969,2.4031,2.3011,2.2013,2.0855,1.9703,1.8657,1.7517,1.637,1.5118,1.3866,1.2536,1.1319,1.0231,0.9419,0.8707,0.7817,0.6968,0.6173,0.537,0.4784,0.4389,0.3835,0.3206,0.2654,0.2324,0.1794,0.1166,0.0807,0.0457,0.0095,-0.0295,-0.0699,-0.1099]}]]